     2              OBSERVATION DATA    GPS                 RINEX VERSION / TYPE
ASHTORIN 15 - APR - 99 09:42                                PGM / RUN BY / DATE
                                                            COMMENT
Original Marker Name: MAK2                                  COMMENT
Campaign Name: dhl corners                                  COMMENT
4-Character Station Name: MAK2                              COMMENT
6-Character Antenna Code: DMRCHT                            COMMENT
Vertical Measurement Point: BCR                             COMMENT
Vertical Offset to Rinex Ref. Point: 0.0349                 COMMENT
Radial Measurement Point: ECF                               COMMENT
Radial Offset to Rinex Ref. Point: 0.1896                   COMMENT
Antenna Height from Field Measurement: 0.8895 m             COMMENT
Original XYZ: 0.0000 0.0000 0.0000                          COMMENT
New XYZ position is based on association with SCEC monument COMMENT
E1C9N0W1+0011. Position of that monument is believed to be  COMMENT
valid to within 1 m horizontally; vertical accuracy         COMMENT
should be no worse than 3-times this value.                 COMMENT
                                                            COMMENT
Revised Rinex header created by UCSD GPS archive for        COMMENT
GSAC on 02-Jun-1999 (1999:153) 01:06:35 GMT                 COMMENT
For assistance contact dagnew@ucsd.edu or hjohnson@ucsd.edu COMMENT
                                                            COMMENT
MACK2 1967 DOT BM RESET                                     MARKER NAME
                                                            MARKER NUMBER
SJB SCRIPPS INSTITUTION OF OCEANOGRAPHY                     OBSERVER / AGENCY
319 ASHTECH Z12-XII3 1F501D0                                REC # / TYPE / VERS
409 DORNE-MARGOL. TYPE T                                    ANT # / TYPE
 -2282037.0000 -4861866.0000  3428700.0000                  APPROX POSITION XYZ
        0.8342        0.0000        0.0000                  ANTENNA: DELTA H/E/N
     1     1     0                                          WAVELENGTH FACT L1/2
     7    L1    L2    C1    P1    P2    D1    D2            # / TYPES OF OBSERV
    30                                                      INTERVAL
  1999     4    14    17     2   30.000000                  TIME OF FIRST OBS
  1999     4    14    23    50    0.000000                  TIME OF LAST OBS
                                                            END OF HEADER
 99  4 14 17  2 30.0000000  0  5  2 27 26  4  7                      0.000000000
     43698.477 9     31249.79052         0.000           0.0004          0.0005
        -0.000          -0.000
    193828.829 9    136659.25048  21698135.578    21698135.1744   21698144.4304
        -0.000          -0.000
     63886.042 9     45398.27047  23014102.237    23014102.6284   23014111.8034
        -0.000          -0.000
   -228663.320 9   -163571.75346  23409202.500    23409204.0254   23409215.8454
        -0.000          -0.000
     39664.895 9     28545.98449  20449597.852    20449597.1484   20449605.1414
        -0.000          -0.000
 99  4 14 17  3  0.0000000  3  2
MAK2                                                        MARKER NAME
--> THIS IS THE START OF A NEW SITE <---                    COMMENT
 99  4 14 17  3  0.0000000  0  6  2 27 26  4  7  9                   0.000593658
     62077.901 9      2784.87845         0.000           0.0004   21497186.3804
        -0.000          -0.000
    279092.156 9    203098.09848  21714360.636    21714360.2714   21714369.5864
        -0.000          -0.000
     92821.906 9     67945.65147  23019608.988    23019608.9074   23019618.1834
        -0.000          -0.000
   -329419.235 9   -242082.68246  23390030.326    23390030.5394   23390042.3844
        -0.000          -0.000
     56669.080 9     41795.99949  20452833.692    20452832.9884   20452840.9594
        -0.000          -0.000
   -239990.600 9   -166351.68052         0.000           0.0004          0.0005
        -0.000          -0.000
 99  4 14 17  3 30.0000000  0  7 15  2 27 26  4  7  9                0.000000163
   -769086.89518   -608845.01745         0.000           0.0005   24227756.1424
        -0.000          -0.000
   -858072.667 9   -714215.63748  21322078.083    21322077.6034   21322086.0864
        -0.000          -0.000
   -573955.255 9   -461614.28648  21552031.235    21552030.7904   21552040.1594
        -0.000          -0.000
   -816487.858 9   -640607.48447  22846573.121    22846573.1274   22846582.3414
        -0.000          -0.000
  -1368815.157 9  -1052001.41446  23192240.077    23192240.1464   23192251.9234
        -0.000          -0.000
   -864643.574 9   -676109.97549  20277513.708    20277513.0004   20277521.0134
        -0.000          -0.000
  -1272162.14219   -970641.08745         0.000           0.0005   23889146.9524
        -0.000          -0.000
 99  4 14 17  4  0.0000000  0  7 15  2 27 26  4  7  9                0.000000110
   -702594.888 8   -557033.20845  24240396.742    24240395.7634   24240407.9224
        -0.000          -0.000
   -842765.228 9   -702287.80648  21324991.116    21324990.5764   21324999.0874
        -0.000          -0.000
   -491343.915 9   -397241.93348  21567751.677    21567751.2864   21567760.6824
        -0.000          -0.000
   -790052.307 9   -620008.42347  22851603.583    22851603.6444   22851612.9254
        -0.000          -0.000
  -1472840.907 9  -1133060.26746  23172444.644    23172444.6504   23172456.4694
        -0.000          -0.000
   -850284.528 9   -664921.12349  20280246.202    20280245.4984   20280253.5324
        -0.000          -0.000
  -1368895.593 9  -1046017.74346  23870727.536    23870727.2894   23870738.4354
        -0.000          -0.000
 99  4 14 17  4 30.0000000  0  7 15  2 27 26  4  7  9                0.000000057
   -635570.543 8   -504806.55645  24253150.012    24253150.6534   24253162.8524
        -0.000          -0.000
   -827244.211 9   -690193.54448  21327944.729    21327944.1724   21327952.7054
        -0.000          -0.000
   -408302.877 9   -332534.74548  21583554.014    21583553.5674   21583562.9304
        -0.000          -0.000
   -763107.131 9   -599012.22947  22856731.115    22856731.1544   22856740.4364
        -0.000          -0.000
  -1576721.376 9  -1214005.91946  23152676.644    23152676.7364   23152688.6864
        -0.000          -0.000
   -835476.801 9   -653382.64149  20283064.047    20283063.3274   20283071.3594
        -0.000          -0.000
  -1465429.278 9  -1121238.73246  23852357.921    23852357.8064   23852368.5724
        -0.000          -0.000
 99  4 14 17  5  0.0000000  0  7 15  2 27 26  4  7  9                0.000000034
   -568022.593 8   -452171.89745  24266004.112    24266004.5954   24266016.6504
        -0.000          -0.000
   -811510.459 9   -677933.51948  21330938.818    21330938.2494   21330946.7394
        -0.000          -0.000
   -324835.783 9   -267495.57648  21599437.345    21599436.9114   21599446.3054
        -0.000          -0.000
   -735665.480 9   -577629.18447  22861953.146    22861953.1994   22861962.5044
        -0.000          -0.000
  -1680461.949 9  -1294842.56346  23132935.344    23132935.4424   23132947.4624
        -0.000          -0.000
   -820231.383 9   -641503.11449  20285965.207    20285964.4794   20285972.5224
        -0.000          -0.000
  -1561773.477 9  -1196312.08246  23834024.365    23834024.5984   23834034.9714
        -0.000          -0.000
 99  4 14 17  5 30.0000000  0  7 15  2 27 26  4  7  9                0.000000035
   -499972.556 8   -399146.03245  24278953.903    24278953.9814   24278966.1374
        -0.000          -0.000
   -795577.909 9   -665518.59148  21333970.756    21333970.1304   21333978.6434
        -0.000          -0.000
   -240950.111 9   -202130.23648  21615400.296    21615399.9004   21615409.3054
        -0.000          -0.000
   -707744.291 9   -555872.47847  22867266.507    22867266.5714   22867275.8634
        -0.000          -0.000
  -1784054.830 9  -1375564.12046  23113222.143    23113222.2604   23113234.2674
        -0.000          -0.000
   -804563.958 9   -629294.74849  20288946.616    20288945.8954   20288953.9604
        -0.000          -0.000
  -1657935.512 9  -1271243.47446  23815725.339    23815725.6064   23815735.8844
        -0.000          -0.000
 99  4 14 17  6  0.0000000  0  7 15  2 27 26  4  7  9                0.000000052
   -431444.242 8   -345747.45545  24291994.452    24291994.2334   24292006.5484
        -0.000          -0.000
   -779476.552 9   -652972.12248  21337034.767    21337034.1694   21337042.6984
        -0.000          -0.000
   -156636.725 9   -136431.61148  21631444.547    21631444.2124   21631453.7234
        -0.000          -0.000
   -679362.062 9   -533756.52147  22872667.504    22872667.5724   22872676.8744
        -0.000          -0.000
  -1887507.329 9  -1456176.32046  23093535.699    23093535.7684   23093547.7924
        -0.000          -0.000
   -788497.686 9   -616775.59349  20292003.927    20292003.2284   20292011.2794
        -0.000          -0.000
  -1753936.998 9  -1346049.78346  23797456.846    23797457.0734   23797467.3854
        -0.000          -0.000
 99  4 14 17  6 30.0000000  0  6  2 27 26  4  7  9                   0.000000062
   -763205.218 9   -640293.20448  21340131.122    21340130.4954   21340139.0404
        -0.000          -0.000
    -71894.023 9    -70398.46248  21647570.690    21647570.3294   21647579.8834
        -0.000          -0.000
   -650500.943 9   -511267.40047  22878159.671    22878159.7794   22878169.1114
        -0.000          -0.000
  -1990812.483 9  -1536673.69146  23073877.266    23073877.3574   23073889.3554
        -0.000          -0.000
   -772034.726 9   -603947.33849  20295136.762    20295136.0604   20295144.1074
        -0.000          -0.000
  -1849783.329 9  -1420735.17246  23779217.965    23779218.1204   23779228.4164
        -0.000          -0.000
 99  4 14 17  7  0.0000000  0  6  2 27 26  4  7  9                   0.000000125
   -746717.836 9   -627445.93648  21343268.633    21343267.9834   21343276.5574
        -0.000          -0.000
     13311.886 9     -4004.37248  21663784.969    21663784.6244   21663794.1474
        -0.000          -0.000
   -621115.434 9   -488369.64847  22883751.604    22883751.6884   22883761.1014
        -0.000          -0.000
  -2093922.263 9  -1617018.82646  23054256.123    23054256.0914   23054268.1364
        -0.000          -0.000
   -755140.672 9   -590783.16249  20298351.633    20298350.9044   20298358.9674
        -0.000          -0.000
  -1945436.807 9  -1495270.29646  23761015.745    23761015.8314   23761026.2324
        -0.000          -0.000
 99  4 14 17  7 30.0000000  0  6  2 27 26  4  7  9                   0.000000135
   -730168.534 9   -614550.40948  21346417.929    21346417.2734   21346425.8374
        -0.000          -0.000
     98848.727 9     62647.59748  21680062.309    21680061.9454   21680071.4174
        -0.000          -0.000
   -591363.291 9   -465186.23047  22889413.367    22889413.4194   22889422.9084
        -0.000          -0.000
  -2196974.736 9  -1697319.32246  23034645.793    23034645.8764   23034657.8324
        -0.000          -0.000
   -737956.992 9   -577393.29749  20301621.647    20301620.9204   20301628.9884
        -0.000          -0.000
  -2041035.080 9  -1569762.41346  23742824.052    23742824.0254   23742834.4474
        -0.000          -0.000
 99  4 14 17  8  0.0000000  0  6  2 27 26  4  7  9                   0.000000151
   -713455.796 9   -601527.54648  21349598.348    21349597.6714   21349606.2394
        -0.000          -0.000
    184808.191 9    129628.86747  21696420.021    21696419.6314   21696429.0924
        -0.000          -0.000
   -561150.885 9   -441644.17447  22895162.718    22895162.7194   22895172.1844
        -0.000          -0.000
  -2299883.399 9  -1777507.74646  23015062.875    23015062.9044   23015074.9404
        -0.000          -0.000
   -720398.079 9   -563711.05649  20304963.041    20304962.3174   20304970.3754
        -0.000          -0.000
  -2136483.242 9  -1644137.56646  23724660.882    23724660.9294   23724671.2644
        -0.000          -0.000
 99  4 14 17  8 30.0000000  0  6  2 27 26  4  7  9                   0.000000174
   -696579.594 9   -588377.29948  21352809.899    21352809.1784   21352817.7714
        -0.000          -0.000
    271147.539 9    196906.16147  21712849.981    21712849.5774   21712859.0394
        -0.000          -0.000
   -530511.906 9   -417769.71047  22900993.240    22900993.1924   22901002.7284
        -0.000          -0.000
  -2402665.291 9  -1857597.39746  22995504.039    22995504.0544   22995515.9964
        -0.000          -0.000
   -702497.571 9   -549762.63049  20308369.382    20308368.6694   20308376.7564
        -0.000          -0.000
  -2231794.311 9  -1718405.87646  23706523.769    23706523.6754   23706534.1304
        -0.000          -0.000
 99  4 14 17  9  0.0000000  0  6  2 27 26  4  7  9                   0.000000197
   -679560.431 9   -575115.65448  21356048.603    21356047.8664   21356056.4774
        -0.000          -0.000
    357844.080 9    264461.78047  21729347.855    21729347.4754   21729356.9724
        -0.000          -0.000
   -499494.280 9   -393600.20447  22906895.743    22906895.7364   22906905.2594
        -0.000          -0.000
  -2505359.974 9  -1937619.08646  22975961.767    22975961.7734   22975973.7834
        -0.000          -0.000
   -684296.032 9   -535579.63949  20311833.123    20311832.4014   20311840.4864
        -0.000          -0.000
  -2326986.036 9  -1792581.20246  23688409.411    23688409.1664   23688419.6764
        -0.000          -0.000
 99  4 14 17  9 30.0000000  0  6  2 27 26  4  7  9                   0.000000222
   -662394.772 9   -561739.86548  21359315.132    21359314.4144   21359323.0304
        -0.000          -0.000
    444889.733 9    332289.43047  21745912.290    21745911.8584   21745921.3924
        -0.000          -0.000
   -468090.915 9   -369130.12947  22912871.663    22912871.6594   22912881.2074
        -0.000          -0.000
  -2607979.508 9  -2017582.22746  22956433.767    22956433.7714   22956445.7844
        -0.000          -0.000
   -665803.417 9   -521169.84049  20315352.207    20315351.4754   20315359.5394
        -0.000          -0.000
  -2422054.493 9  -1866660.47346  23670318.445    23670318.1794   23670328.7974
        -0.000          -0.000
 99  4 14 17 10  0.0000000  0  6  2 27 26  4  7  9                   0.000000212
   -645107.463 9   -548269.27248  21362604.855    21362604.1274   21362612.7684
        -0.000          -0.000
    532226.181 9    400343.67347  21762531.962    21762531.5634   21762541.1184
        -0.000          -0.000
   -436317.597 9   -344371.77547  22918918.012    22918918.0034   22918927.5564
        -0.000          -0.000
  -2710559.336 9  -2097514.42346  22936913.473    22936913.5054   22936925.3884
        -0.000          -0.000
   -647045.821 9   -506553.55449  20318921.676    20318920.9544   20318929.0194
        -0.000          -0.000
  -2517033.709 9  -1940670.20546  23652244.591    23652244.3524   23652254.9694
        -0.000          -0.000
 99  4 14 17 10 30.0000000  0  6  2 27 26  4  7  9                   0.000000193
   -627649.667 9   -534665.83348  21365927.051    21365926.3274   21365934.9734
        -0.000          -0.000
    619914.325 9    468671.96947  21779218.592    21779218.2114   21779227.8144
        -0.000          -0.000
   -404117.254 9   -319280.66547  22925045.584    22925045.5814   22925055.1174
        -0.000          -0.000
  -2813035.793 9  -2177366.07846  22917412.748    22917412.8154   22917424.6644
        -0.000          -0.000
   -627945.527 9   -491670.22749  20322556.448    20322555.6974   20322563.7514
        -0.000          -0.000
  -2611861.575 9  -2014561.98546  23634199.341    23634199.1244   23634209.8564
        -0.000          -0.000
 99  4 14 17 11  0.0000000  0  6  2 27 26  4  7  9                   0.000000150
   -610032.012 9   -520937.84148  21369279.667    21369278.9364   21369287.5704
        -0.000          -0.000
    707978.573 9    537293.32147  21795976.723    21795976.3494   21795985.9964
        -0.000          -0.000
   -371466.634 9   -293838.69647  22931258.904    22931258.8904   22931268.3654
        -0.000          -0.000
  -2915401.319 9  -2257131.29446  22897933.250    22897933.2904   22897944.9894
        -0.000          -0.000
   -608470.074 9   -476494.57949  20326262.523    20326261.7724   20326269.8334
        -0.000          -0.000
  -2706528.964 9  -2088328.73246  23616184.619    23616184.5554   23616195.1904
        -0.000          -0.000
 99  4 14 17 11 30.0000000  0  6  2 27 26  4  7  9                   0.000000089
   -592230.267 9   -507066.39348  21372667.289    21372666.5714   21372675.2164
        -0.000          -0.000
    796447.216 9    606229.78947  21812811.851    21812811.4754   21812821.1684
        -0.000          -0.000
   -338339.481 9   -268025.40247  22937562.841    22937562.8654   22937572.3484
        -0.000          -0.000
  -3017611.016 9  -2336775.06646  22878483.410    22878483.4064   22878495.1044
        -0.000          -0.000
   -588568.745 9   -460987.06849  20330049.669    20330048.9304   20330056.9854
        -0.000          -0.000
  -2801006.919 9  -2161947.85146  23598206.231    23598206.1324   23598216.6784
        -0.000          -0.000
 99  4 14 17 12  0.0000000  0  6  2 27 26  4  7  9                   0.000000039
   -574207.983 9   -493023.10648  21376096.841    21376096.1464   21376104.8144
        -0.000          -0.000
    885363.318 9    675514.91447  21829732.177    21829731.7814   21829741.4354
        -0.000          -0.000
   -304706.807 9   -241818.20447  22943963.046    22943963.0354   22943972.5944
        -0.000          -0.000
  -3119608.288 9  -2416253.32246  22859073.935    22859073.9324   22859085.5424
        -0.000          -0.000
   -568197.069 9   -445113.06249  20333926.379    20333925.6164   20333933.6694
        -0.000          -0.000
  -2895251.312 9  -2235384.98846  23580272.283    23580272.0774   23580282.5104
        -0.000          -0.000
 99  4 14 17 12 30.0000000  0  6  2 27 26  4  7  9                   0.000000008
   -555983.902 9   -478822.57048  21379564.817    21379564.1364   21379572.8054
        -0.000          -0.000
    974726.011 9    745148.03947  21846737.488    21846737.0984   21846746.7594
        -0.000          -0.000
   -270590.104 9   -215233.84247  22950455.354    22950455.3204   22950464.8874
        -0.000          -0.000
  -3221399.149 9  -2495570.75146  22839703.723    22839703.7234   22839715.3104
        -0.000          -0.000
   -547391.544 9   -428900.98949  20337885.567    20337884.7854   20337892.8474
        -0.000          -0.000
  -2989269.686 9  -2308646.00146  23562381.327    23562380.9934   23562391.3874
        -0.000          -0.000
 99  4 14 17 13  0.0000000  0  6  2 27 26  4  7  9                   0.000000005
   -537561.662 9   -464467.62348  21383070.601    21383069.8594   21383078.5114
        -0.000          -0.000
   1064508.617 9    815108.35847  21863822.705    21863822.2904   21863832.0084
        -0.000          -0.000
   -236012.231 9   -188290.11146  22957035.429    22957035.4254   22957044.9634
        -0.000          -0.000
  -3322983.115 9  -2574726.94846  22820372.766    22820372.7854   22820384.4364
        -0.000          -0.000
   -526184.885 9   -412376.34149  20341921.094    20341920.3314   20341928.3894
        -0.000          -0.000
  -3083072.275 9  -2381738.87046  23544531.416    23544531.0504   23544541.2724
        -0.000          -0.000
 99  4 14 17 13 30.0000000  0  6  2 27 26  4  7  9                   0.000000027
   -518960.349 9   -449973.14248  21386610.409    21386609.6584   21386618.2894
        -0.000          -0.000
   1154664.665 9    885359.68147  21880978.946    21880978.5734   21880988.3024
        -0.000          -0.000
   -201006.851 9   -161013.27246  22963696.783    22963696.8134   22963706.3604
        -0.000          -0.000
  -3424368.748 9  -2653728.59346  22801079.601    22801079.6514   22801091.2224
        -0.000          -0.000
   -504620.237 9   -395572.74349  20346024.755    20346023.9914   20346032.0464
        -0.000          -0.000
  -3176679.001 9  -2454679.11846  23526718.539    23526718.1724   23526728.5564
        -0.000          -0.000
 99  4 14 17 14  0.0000000  0  6  2 27 26  4  7  9                   0.000000055
   -500217.486 9   -435368.35148  21390177.108    21390176.3494   21390184.9844
        -0.000          -0.000
   1245140.947 9    955860.52247  21898196.118    21898195.7344   21898205.5684
        -0.000          -0.000
   -165613.348 9   -133434.00846  22970432.093    22970432.1114   22970441.5524
        -0.000          -0.000
  -3525599.703 9  -2732609.72946  22781815.872    22781815.9674   22781827.5384
        -0.000          -0.000
   -482761.921 9   -378540.31449  20350184.330    20350183.5614   20350191.6164
        -0.000          -0.000
  -3270131.898 9  -2527499.51046  23508934.940    23508934.6134   23508945.0224
        -0.000          -0.000
 99  4 14 17 14 30.0000000  0  6  2 27 26  4  7  9                   0.000000078
   -481341.938 9   -420660.17948  21393769.024    21393768.3024   21393776.9174
        -0.000          -0.000
   1335917.864 9   1026595.62447  21915470.500    21915470.1064   21915480.0494
        -0.000          -0.000
   -129844.216 9   -105562.02746  22977238.816    22977238.8294   22977248.2594
        -0.000          -0.000
  -3626700.132 9  -2811389.14046  22762577.038    22762577.0864   22762588.5804
        -0.000          -0.000
   -460629.585 9   -361294.36549  20354396.009    20354395.2554   20354403.2784
        -0.000          -0.000
  -3363442.697 9  -2600209.16146  23491178.409    23491178.1564   23491188.5314
        -0.000          -0.000
 99  4 14 17 15  0.0000000  0  6  2 27 26  4  7  9                   0.000000098
   -462300.669 9   -405822.86748  21397392.486    21397391.7644   21397400.3984
        -0.000          -0.000
   1427014.786 9   1097580.08747  21932805.777    21932805.3844   21932815.3284
        -0.000          -0.000
    -93684.695 9    -77385.84747  22984119.859    22984119.8344   22984129.2584
        -0.000          -0.000
  -3727649.172 9  -2890050.58746  22743366.998    22743366.9754   22743378.4734
        -0.000          -0.000
   -438179.035 9   -343800.45249  20358668.239    20358667.4784   20358675.5024
        -0.000          -0.000
  -3456587.379 9  -2672789.37746  23473453.541    23473453.3064   23473463.6464
        -0.000          -0.000
 99  4 14 17 15 30.0000000  0  6  2 27 26  4  7  9                   0.000000090
   -443109.889 9   -390869.05248  21401044.460    21401043.7364   21401052.3474
        -0.000          -0.000
   1518427.458 9   1168810.56847  21950201.160    21950200.7724   21950210.7054
        -0.000          -0.000
    -57139.993 9    -48909.54147  22991074.167    22991074.1314   22991083.6704
        -0.000          -0.000
  -3828483.973 9  -2968623.03646  22724178.713    22724178.7394   22724190.0924
        -0.000          -0.000
   -415415.867 9   -326062.94349  20363000.001    20362999.2194   20363007.2384
        -0.000          -0.000
  -3549578.046 9  -2745249.58146  23455757.998    23455757.6874   23455768.0504
        -0.000          -0.000
 99  4 14 17 16  0.0000000  0  6  2 27 26  4  7  9                   0.000000083
   -423720.602 9   -375760.56648  21404734.190    21404733.4514   21404742.0514
        -0.000          -0.000
   1610209.219 9   1240328.66447  21967666.781    21967666.4014   21967676.3444
        -0.000          -0.000
    -20170.387 9    -20102.13847  22998109.313    22998109.2604   22998118.8574
        -0.000          -0.000
  -3929174.642 9  -3047083.15946  22705017.813    22705017.8534   22705029.1634
        -0.000          -0.000
   -392292.021 9   -308044.39249  20367400.358    20367399.5934   20367407.5884
        -0.000          -0.000
  -3642361.677 9  -2817548.47646  23438101.808    23438101.5894   23438111.8874
        -0.000          -0.000
 99  4 14 17 16 30.0000000  0  6  2 27 26  4  7  9                   0.000000062
   -404158.417 9   -360517.34648  21408456.844    21408456.0644   21408464.6654
        -0.000          -0.000
   1702355.876 9   1312131.08347  21985201.875    21985201.4714   21985211.4284
        -0.000          -0.000
     17201.031 9      9018.36247  23005220.958    23005220.9274   23005230.5374
        -0.000          -0.000
  -4029734.396 9  -3125441.28846  22685881.842    22685881.8714   22685893.1374
        -0.000          -0.000
   -368810.307 9   -289746.97449  20371868.811    20371868.0394   20371876.0334
        -0.000          -0.000
  -3734949.032 9  -2889694.40346  23420482.945    23420482.7384   23420492.9704
        -0.000          -0.000
 99  4 14 17 17  0.0000000  0  6  2 27 26  4  7  9                   0.000000053
   -384382.984 9   -345107.96248  21412220.017    21412219.2394   21412227.8374
        -0.000          -0.000
   1794916.626 9   1384256.18247  22002815.711    22002815.3384   22002825.3214
        -0.000          -0.000
     55012.906 9     38482.08446  23012416.456    23012416.4164   23012425.9714
        -0.000          -0.000
  -4130109.972 9  -3203655.88746  22666780.987    22666780.9944   22666792.1964
        -0.000          -0.000
   -344923.657 9   -271134.02549  20376414.336    20376413.5624   20376421.5454
        -0.000          -0.000
  -3827297.786 9  -2961654.40546  23402909.554    23402909.3134   23402919.6494
        -0.000          -0.000
 99  4 14 17 17 30.0000000  0  6  2 27 26  4  7  9                   0.000000044
   -364421.182 9   -329553.35648  21416018.627    21416017.8794   21416026.4784
        -0.000          -0.000
   1887862.723 9   1456681.54247  22020502.953    22020502.5534   22020512.5754
        -0.000          -0.000
     93257.830 9     68283.23546  23019694.210    23019694.2184   23019703.8194
        -0.000          -0.000
  -4230322.361 9  -3281743.34247  22647711.202    22647711.1664   22647722.3694
        -0.000          -0.000
   -320666.344 9   -252232.25249  20381030.380    20381029.6074   20381037.5994
        -0.000          -0.000
  -3919425.422 9  -3033442.12946  23385378.344    23385377.9794   23385388.3394
        -0.000          -0.000
 99  4 14 17 18  0.0000000  0  6  2 27 26  4  7  9                   0.000000035
   -344284.469 9   -313862.46348  21419850.611    21419849.8464   21419858.4564
        -0.000          -0.000
   1981178.546 9   1529394.99147  22038260.512    22038260.0704   22038270.1604
        -0.000          -0.000
    131918.495 9     98408.35146  23027051.098    23027051.1444   23027060.8114
        -0.000          -0.000
  -4330352.792 9  -3359689.00747  22628675.947    22628675.9144   22628687.0474
        -0.000          -0.000
   -296058.944 9   -233057.69049  20385713.060    20385712.2754   20385720.2854
        -0.000          -0.000
  -4011349.143 9  -3105070.95046  23367885.906    23367885.4494   23367895.8024
        -0.000          -0.000
 99  4 14 17 18 30.0000000  0  6  2 27 26  4  7  9                   0.000000033
   -323953.675 9   -298020.32948  21423719.504    21423718.7384   21423727.3364
        -0.000          -0.000
   2074888.417 9   1602415.49847  22056093.050    22056092.6354   22056102.7254
        -0.000          -0.000
    171014.987 9    128873.06246  23034491.059    23034491.0534   23034500.6864
        -0.000          -0.000
  -4430152.253 9  -3437454.69447  22609684.780    22609684.6814   22609695.7384
        -0.000          -0.000
   -271072.282 9   -213587.58949  20390467.905    20390467.1034   20390475.1324
        -0.000          -0.000
  -4103052.407 9  -3176527.98446  23350435.330    23350434.9404   23350445.1894
        -0.000          -0.000
 99  4 14 17 19  0.0000000  0  6  2 27 26  4  7  9                   0.000000037
   -303418.329 9   -282018.81848  21427627.231    21427626.4934   21427635.1104
        -0.000          -0.000
   2168970.146 9   1675725.75547  22073996.392    22073995.9504   22074006.0684
        -0.000          -0.000
    210549.672 9    159679.21646  23042014.286    23042014.2164   23042023.9684
        -0.000          -0.000
  -4529714.185 9  -3515035.31447  22590738.649    22590738.5674   22590749.6164
        -0.000          -0.000
   -245722.207 9   -193834.31749  20395291.883    20395291.0644   20395299.1224
        -0.000          -0.000
  -4194545.655 9  -3247821.36746  23333024.705    23333024.3234   23333034.5844
        -0.000          -0.000
 99  4 14 17 19 30.0000000  0  6  2 27 26  4  7  9                   0.000000046
   -282687.805 9   -265865.22048  21431572.190    21431571.4324   21431580.0864
        -0.000          -0.000
   2263413.612 9   1749317.88747  22091968.461    22091968.0784   22091978.2504
        -0.000          -0.000
    250507.430 9    190815.03846  23049617.987    23049618.0214   23049627.7484
        -0.000          -0.000
  -4629034.727 9  -3592427.82947  22571838.487    22571838.4514   22571849.4954
        -0.000          -0.000
   -220026.270 9   -173811.54149  20400181.653    20400180.8594   20400188.9154
        -0.000          -0.000
  -4285836.160 9  -3318956.77546  23315652.650    23315652.3404   23315662.6184
        -0.000          -0.000
 99  4 14 17 20  0.0000000  0  6  2 27 26  4  7  9                   0.000000070
   -261779.067 9   -249572.74648  21435551.063    21435550.2674   21435558.9524
        -0.000          -0.000
   2358214.822 9   1823188.79047  22110008.677    22110008.3094   22110018.4714
        -0.000          -0.000
    290847.038 9    222248.41846  23057294.449    23057294.4274   23057304.1654
        -0.000          -0.000
  -4728109.843 9  -3669629.10447  22552985.036    22552985.0044   22552996.0284
        -0.000          -0.000
   -194004.501 9   -153534.86649  20405133.481    20405132.6904   20405140.7424
        -0.000          -0.000
  -4376929.362 9  -3389938.43546  23298318.100    23298317.8204   23298328.1214
        -0.000          -0.000
 99  4 14 17 20 30.0000000  0  6  2 27 26  4  7  9                   0.000000099
   -240714.674 9   -233158.98948  21439559.526    21439558.7724   21439567.4524
        -0.000          -0.000
   2453343.797 9   1897315.08247  22128111.274    22128110.8874   22128121.0554
        -0.000          -0.000
    331543.269 9    253959.66946  23065038.788    23065038.7664   23065048.4924
        -0.000          -0.000
  -4826986.276 9  -3746675.57247  22534169.356    22534169.3694   22534180.3284
        -0.000          -0.000
   -167682.837 9   -133024.50449  20410142.394    20410141.6034   20410149.6404
        -0.000          -0.000
  -4467829.595 9  -3460769.74246  23281020.306    23281020.0754   23281030.3024
        -0.000          -0.000
 99  4 14 17 21  0.0000000  0  6  2 27 26  4  7  9                   0.000000134
   -219493.586 9   -216623.13948  21443597.836    21443597.0564   21443605.7694
        -0.000          -0.000
   2548784.640 9   1971684.38147  22146273.241    22146272.8444   22146283.0674
        -0.000          -0.000
    372588.037 9    285942.51346  23072849.361    23072849.2994   23072859.1864
        -0.000          -0.000
  -4925693.062 9  -3823589.83847  22515385.962    22515385.9634   22515396.9324
        -0.000          -0.000
   -141077.767 9   -112293.31349  20415205.227    20415204.4284   20415212.4654
        -0.000          -0.000
  -4558535.211 9  -3531449.39446  23263759.659    23263759.3854   23263769.4664
        -0.000          -0.000
 99  4 14 17 21 30.0000000  0  6  2 27 26  4  7  9                   0.000000177
   -198124.511 9   -199971.96848  21447664.262    21447663.5024   21447672.2424
        -0.000          -0.000
   2644539.130 9   2046298.09847  22164494.857    22164494.4294   22164504.7104
        -0.000          -0.000
    413966.743 9    318185.55846  23080723.600    23080723.5674   23080733.4474
        -0.000          -0.000
  -5024246.361 9  -3900384.51547  22496631.725    22496631.7664   22496642.7894
        -0.000          -0.000
   -114188.327 9    -91340.53049  20420322.136    20420321.3264   20420329.3864
        -0.000          -0.000
  -4649035.193 9  -3601968.80846  23246538.068    23246537.7174   23246547.6894
        -0.000          -0.000
 99  4 14 17 22  0.0000000  0  6  2 27 26  4  7  9                   0.000000212
   -176603.491 9   -183202.40548  21451759.609    21451758.8364   21451767.5964
        -0.000          -0.000
   2740590.662 9   2121143.26047  22182772.963    22182772.5864   22182782.8964
        -0.000          -0.000
    455692.935 9    350699.38146  23088663.923    23088663.8804   23088673.8234
        -0.000          -0.000
  -5122657.196 9  -3977068.17047  22477904.683    22477904.7114   22477915.7574
        -0.000          -0.000
    -87001.976 9    -70156.38749  20425495.553    20425494.7444   20425502.8194
        -0.000          -0.000
  -4739323.782 9  -3672323.50146  23229356.702    23229356.3514   23229366.2974
        -0.000          -0.000
 99  4 14 17 22 30.0000000  0  6  2 27 26  4  7  9                   0.000000237
   -154877.383 9   -166273.03448  21455893.954    21455893.2144   21455902.0074
        -0.000          -0.000
   2836958.434 9   2196234.84347  22201111.342    22201110.9304   22201121.2494
        -0.000          -0.000
    497830.195 9    383533.51246  23096682.443    23096682.3894   23096692.3724
        -0.000          -0.000
  -5220890.849 9  -4053613.77347  22459211.398    22459211.3624   22459222.3774
        -0.000          -0.000
    -59476.487 9    -48707.98749  20430733.471    20430732.6984   20430740.7834
        -0.000          -0.000
  -4829378.780 9  -3742496.16046  23212219.870    23212219.4544   23212229.4344
        -0.000          -0.000
 99  4 14 17 23  0.0000000  0  6  2 27 26  4  7  9                   0.000000236
   -132947.344 9   -149184.75048  21460067.148    21460066.4254   21460075.2324
        -0.000          -0.000
   2933628.671 9   2271562.10947  22219507.313    22219506.8154   22219517.1304
        -0.000          -0.000
    540363.256 9    416676.04546  23104776.224    23104776.1664   23104786.2624
        -0.000          -0.000
  -5318926.358 9  -4130004.97847  22440555.745    22440555.7574   22440566.7034
        -0.000          -0.000
    -31615.087 9    -26997.83049  20436035.302    20436034.5384   20436042.6534
        -0.000          -0.000
  -4919221.380 9  -3812503.33046  23195123.298    23195122.9814   23195132.8814
        -0.000          -0.000
 99  4 14 17 23 30.0000000  0  6  2 27 26  4  7  9                   0.000000231
   -110783.943 9   -131914.63248  21464284.760    21464284.0064   21464292.8074
        -0.000          -0.000
   3030633.408 9   2347150.02447  22237966.867    22237966.4054   22237976.7104
        -0.000          -0.000
    583321.513 9    450149.91146  23112951.033    23112951.0074   23112961.0154
        -0.000          -0.000
  -5416714.503 9  -4206203.42847  22421947.218    22421947.2294   22421958.0934
        -0.000          -0.000
     -3386.974 9     -5001.92649  20441407.011    20441406.2394   20441414.3594
        -0.000          -0.000
  -5008814.692 9  -3882316.23946  23178074.137    23178073.8844   23178083.7584
        -0.000          -0.000
 99  4 14 17 24  0.0000000  0  6  2 27 26  4  7  9                   0.000000210
    -88411.227 9   -114481.39748  21468542.173    21468541.4384   21468550.2714
        -0.000          -0.000
   3127937.319 9   2422971.06847  22256483.367    22256482.9074   22256493.2454
        -0.000          -0.000
    626664.534 9    483923.59546  23121199.110    23121199.1064   23121209.0074
        -0.000          -0.000
  -5514276.508 9  -4282225.66847  22403381.706    22403381.7624   22403392.5234
        -0.000          -0.000
     25167.025 9     17247.92449  20446840.703    20446839.9274   20446848.0314
        -0.000          -0.000
  -5098192.063 9  -3951960.87446  23161066.028    23161065.8084   23161075.6884
        -0.000          -0.000
 99  4 14 17 24 30.0000000  0  6  2 27 26  4  7  9                   0.000000189
    -65811.303 9    -96871.11848  21472842.869    21472842.1114   21472850.9674
        -0.000          -0.000
   3225565.437 9   2499044.72447  22275061.504    22275061.0554   22275071.4314
        -0.000          -0.000
    670384.200 9    517990.75946  23129518.778    23129518.7974   23129528.8054
        -0.000          -0.000
  -5611584.706 9  -4358050.13947  22384864.508    22384864.5014   22384875.3044
        -0.000          -0.000
     54047.495 9     39752.15849  20452336.552    20452335.7434   20452343.8384
        -0.000          -0.000
  -5187351.367 9  -4021435.60346  23144099.517    23144099.3434   23144109.2034
        -0.000          -0.000
 99  4 14 17 25  0.0000000  0  6  2 27 26  4  7  9                   0.000000170
    -43004.577 9    -79099.69148  21477182.869    21477182.1464   21477191.0174
        -0.000          -0.000
   3323524.024 9   2575375.87747  22293702.536    22293702.1314   22293712.5484
        -0.000          -0.000
    714451.475 9    552328.77946  23137904.563    23137904.5624   23137914.5884
        -0.000          -0.000
  -5708644.163 9  -4433680.80147  22366394.678    22366394.6774   22366405.4894
        -0.000          -0.000
     83255.488 9     62511.60749  20457894.625    20457893.8154   20457901.9144
        -0.000          -0.000
  -5276286.673 9  -4090735.78246  23127175.770    23127175.4794   23127185.3234
        -0.000          -0.000
 99  4 14 17 25 30.0000000  0  6  2 27 26  4  7  9                   0.000000161
    -19992.740 9    -61168.43848  21481561.971    21481561.2344   21481570.1044
        -0.000          -0.000
   3421828.024 9   2651976.20047  22312409.341    22312408.9304   22312419.3344
        -0.000          -0.000
    758880.798 9    586948.92746  23146359.229    23146359.2884   23146369.3014
        -0.000          -0.000
  -5805457.553 9  -4509119.71347  22347971.602    22347971.6114   22347982.4214
        -0.000          -0.000
    112786.062 9     85522.42349  20463514.106    20463513.3254   20463521.4514
        -0.000          -0.000
  -5364990.344 9  -4159855.45946  23110295.990    23110295.6854   23110305.5434
        -0.000          -0.000
 99  4 14 17 26  0.0000000  0  6  2 27 26  4  7  9                   0.000000145
      3216.182 9    -43083.61948  21485978.582    21485977.8374   21485986.6634
        -0.000          -0.000
   3520474.604 9   2728843.46247  22331181.247    22331180.8554   22331191.3464
        -0.000          -0.000
    803681.108 9    621858.14546  23154884.597    23154884.6274   23154894.6434
        -0.000          -0.000
  -5902017.633 9  -4584361.23647  22329596.757    22329596.7924   22329607.6164
        -0.000          -0.000
    142636.051 9    108782.12049  20469194.399    20469193.6224   20469201.7494
        -0.000          -0.000
  -5453476.888 9  -4228805.95746  23093457.576    23093457.2324   23093467.1514
        -0.000          -0.000
 99  4 14 17 26 30.0000000  0  6  2 27 26  4  7  9                   0.000000114
     26608.244 9    -24856.08448  21490430.016    21490429.2654   21490438.0874
        -0.000          -0.000
   3619469.959 9   2805982.49347  22350019.524    22350019.1944   22350029.7694
        -0.000          -0.000
    848869.211 9    657069.55146  23163483.669    23163483.6644   23163493.6994
        -0.000          -0.000
  -5998314.363 9  -4659397.57747  22311272.018    22311272.0784   22311282.8744
        -0.000          -0.000
    172815.821 9    132298.79549  20474937.488    20474936.6964   20474944.8344
        -0.000          -0.000
  -5541734.743 9  -4297578.26946  23076662.594    23076662.2894   23076672.2424
        -0.000          -0.000
 99  4 14 17 27  0.0000000  0  6  2 27 26  4  7  9                   0.000000087
     50187.939 9     -6482.34448  21494917.088    21494916.3594   21494925.1994
        -0.000          -0.000
   3718812.183 9   2883391.80347  22368923.854    22368923.5264   22368934.2024
        -0.000          -0.000
    894459.003 9    692593.95646  23172159.246    23172159.2184   23172169.2754
        -0.000          -0.000
  -6094348.546 9  -4734229.31847  22292997.299    22292997.3394   22293008.0584
        -0.000          -0.000
    203325.079 9    156072.21649  20480743.201    20480742.4274   20480750.5604
        -0.000          -0.000
  -5629734.283 9  -4366149.29846  23059916.796    23059916.5124   23059926.4084
        -0.000          -0.000
 99  4 14 17 27 30.0000000  0  6  2 27 26  4  7  9                   0.000000085
     73960.357 9     12041.57548  21499440.876    21499440.1374   21499449.0244
        -0.000          -0.000
   3818499.453 9   2961069.98247  22387893.857    22387893.5244   22387904.2594
        -0.000          -0.000
    940462.751 9    728440.91946  23180913.501    23180913.4974   23180923.5654
        -0.000          -0.000
  -6190114.657 9  -4808852.17347  22274773.582    22274773.6254   22274784.2964
        -0.000          -0.000
    234150.257 9    180091.81049  20486609.093    20486608.3064   20486616.4184
        -0.000          -0.000
  -5717460.804 9  -4434507.56646  23043223.083    23043222.7994   23043232.5684
        -0.000          -0.000
 99  4 14 17 28  0.0000000  0  6  2 27 26  4  7  9                   0.000000096
     97891.054 9     30688.81948  21503994.806    21503994.0544   21504002.9474
        -0.000          -0.000
   3918483.741 9   3038979.59347  22406920.400    22406920.0624   22406930.8744
        -0.000          -0.000
    986825.635 9    764567.73346  23189736.169    23189736.1604   23189746.2274
        -0.000          -0.000
  -6285656.828 9  -4883300.54347  22256592.556    22256592.5324   22256603.0974
        -0.000          -0.000
    265248.221 9    204323.95349  20492526.878    20492526.1094   20492534.2224
        -0.000          -0.000
  -5804936.145 9  -4502670.12046  23026577.185    23026576.7824   23026586.4814
        -0.000          -0.000
 99  4 14 17 28 30.0000000  0  6  2 27 26  4  7  9                   0.000000139
    121978.289 9     49458.04048  21508578.552    21508577.7614   21508586.6904
        -0.000          -0.000
   4018745.755 9   3117105.62447  22425999.826    22425999.4244   22426010.3304
        -0.000          -0.000
   1033517.140 9    800950.60346  23198621.343    23198621.3884   23198631.5594
        -0.000          -0.000
  -6381001.730 9  -4957595.19047  22238449.017    22238448.9624   22238459.4714
        -0.000          -0.000
    296592.681 9    228748.18049  20498491.553    20498490.7804   20498498.9094
        -0.000          -0.000
  -5892157.126 9  -4570634.46946  23009979.586    23009979.2134   23009988.8564
        -0.000          -0.000
 99  4 14 17 29  0.0000000  0  6  2 27 26  4  7  9                   0.000000186
    146194.962 9     68328.12448  21513186.826    21513186.0614   21513195.0234
        -0.000          -0.000
   4119235.743 9   3195409.29347  22445122.589    22445122.2054   22445133.1934
        -0.000          -0.000
   1080483.161 9    837547.39046  23207558.944    23207558.9214   23207568.8944
        -0.000          -0.000
  -6476193.220 9  -5031770.30647  22220334.634    22220334.5734   22220345.0724
        -0.000          -0.000
    328133.874 9    253325.70949  20504493.669    20504492.8754   20504501.0374
        -0.000          -0.000
  -5979175.920 9  -4638441.26346  22993420.323    22993420.0764   22993429.7374
        -0.000          -0.000
 99  4 14 17 29 30.0000000  0  6  2 27 26  4  7  9                   0.000000219
    170531.155 9     87291.32648  21517817.887    21517817.1454   21517826.1204
        -0.000          -0.000
   4219956.660 9   3273892.88347  22464289.336    22464288.9564   22464299.9584
        -0.000          -0.000
   1127716.769 9    874352.67246  23216547.257    23216547.2394   23216557.2644
        -0.000          -0.000
  -6571225.686 9  -5105821.51447  22202250.470    22202250.4324   22202260.8934
        -0.000          -0.000
    359878.532 9    278061.76749  20510534.517    20510533.7334   20510541.8884
        -0.000          -0.000
  -6066007.620 9  -4706102.28346  22976896.790    22976896.5364   22976906.1434
        -0.000          -0.000
 99  4 14 17 30  0.0000000  0  6  2 27 26  4  7  9                   0.000000233
    195025.831 9    106378.02148  21522479.128    21522478.3984   21522487.3444
        -0.000          -0.000
   4320930.915 9   3352573.88747  22483504.312    22483503.9144   22483514.9584
        -0.000          -0.000
   1175242.490 9    911385.58346  23225591.174    23225591.1584   23225601.2514
        -0.000          -0.000
  -6666063.373 9  -5179720.93547  22184203.378    22184203.3664   22184213.8434
        -0.000          -0.000
    391869.447 9    302989.72149  20516622.208    20516621.4284   20516629.5914
        -0.000          -0.000
  -6152634.830 9  -4773603.94546  22960412.133    22960411.8584   22960421.4924
        -0.000          -0.000
 99  4 14 17 30 30.0000000  0  6  2 27 26  4  7  9                   0.000000219
    219711.024 9    125613.17548  21527176.565    21527175.8464   21527184.8034
        -0.000          -0.000
   4422185.172 9   3431473.07747  22502772.601    22502772.1654   22502783.2294
        -0.000          -0.000
   1223103.498 9    948679.77146  23234698.888    23234698.8624   23234708.9724
        -0.000          -0.000
  -6760648.391 9  -5253423.48647  22166204.406    22166204.3964   22166214.8464
        -0.000          -0.000
    424158.874 9    328150.28449  20522766.710    20522765.9354   20522774.1064
        -0.000          -0.000
  -6239032.393 9  -4840926.66046  22943971.207    22943970.9604   22943980.5834
        -0.000          -0.000
 99  4 14 17 31  0.0000000  0  6  2 27 26  4  7  9                   0.000000186
    244647.554 9    145044.17648  21531921.843    21531921.1214   21531930.1454
        -0.000          -0.000
   4523778.725 9   3510636.65447  22522105.389    22522104.9714   22522116.0664
        -0.000          -0.000
   1271370.951 9    986290.65446  23243884.016    23243883.9544   23243894.1014
        -0.000          -0.000
  -6854898.083 9  -5326864.73047  22148269.252    22148269.2524   22148279.6754
        -0.000          -0.000
    456830.768 9    353608.86949  20528983.989    20528983.2114   20528991.3574
        -0.000          -0.000
  -6325138.351 9  -4908022.15847  22927585.725    22927585.4934   22927595.0904
        -0.000          -0.000
 99  4 14 17 31 30.0000000  0  6  2 27 26  4  7  9                   0.000000154
    269852.390 9    164684.25448  21536718.222    21536717.5114   21536726.5684
        -0.000          -0.000
   4625710.404 9   3590063.70147  22541502.564    22541502.1224   22541513.2754
        -0.000          -0.000
   1320060.197 9   1024230.20446  23253149.341    23253149.2904   23253159.4724
        -0.000          -0.000
  -6948793.111 9  -5400029.61647  22130401.674    22130401.6024   22130411.9994
        -0.000          -0.000
    489889.550 9    379368.93049  20535274.926    20535274.1364   20535282.3224
        -0.000          -0.000
  -6410922.044 9  -4974866.53347  22911261.585    22911261.3354   22911270.9874
        -0.000          -0.000
 99  4 14 17 32  0.0000000  0  6  2 27 26  4  7  9                   0.000000116
    295321.267 9    184530.06548  21541564.810    21541564.1154   21541573.1624
        -0.000          -0.000
   4727937.378 9   3669720.84547  22560955.838    22560955.4154   22560966.7044
        -0.000          -0.000
   1369155.410 9   1062486.09646  23262491.974    23262491.8824   23262502.1084
        -0.000          -0.000
  -7042337.127 9  -5472920.99047  22112600.828    22112600.7554   22112611.1054
        -0.000          -0.000
    523310.926 9    405411.51949  20541634.837    20541634.0634   20541642.2424
        -0.000          -0.000
  -6496385.122 9  -5041461.09147  22894998.430    22894998.1824   22895007.8494
        -0.000          -0.000
 99  4 14 17 32 30.0000000  0  6  2 27 26  4  7  9                   0.000000075
    321038.546 9    204569.43848  21546458.708    21546458.0174   21546467.0424
        -0.000          -0.000
   4830441.943 9   3749594.28347  22580461.990    22580461.5814   22580472.9444
        -0.000          -0.000
   1418636.773 9   1101042.87646  23271908.130    23271907.9934   23271918.2704
        -0.000          -0.000
  -7135544.817 9  -5545550.29847  22094863.899    22094863.8544   22094874.1804
        -0.000          -0.000
    557071.484 9    431718.41149  20548059.207    20548058.4454   20548066.6634
        -0.000          -0.000
  -6581526.736 9  -5107805.15647  22878796.410    22878796.2484   22878805.9074
        -0.000          -0.000
 99  4 14 17 33  0.0000000  0  6  2 27 26  4  7  9                   0.000000040
    346980.414 9    224783.82648  21551395.373    21551394.6704   21551403.6744
        -0.000          -0.000
   4933206.582 9   3829670.37747  22600017.631    22600017.1734   22600028.6744
        -0.000          -0.000
   1468465.299 9   1139870.17446  23281390.200    23281390.1004   23281400.4394
        -0.000          -0.000
  -7228456.314 9  -5617948.78747  22077183.336    22077183.2844   22077193.6174
        -0.000          -0.000
    591122.310 9    458251.49049  20554538.872    20554538.1294   20554546.3164
        -0.000          -0.000
  -6666372.488 9  -5173918.67347  22862650.894    22862650.6364   22862660.2094
        -0.000          -0.000
 99  4 14 17 33 30.0000000  0  6  2 27 26  4  7  9                   0.000000021
    373123.722 9    245155.16848  21556370.356    21556369.6164   21556378.6444
        -0.000          -0.000
   5036223.555 9   3909943.09347  22619621.272    22619620.8324   22619632.3924
        -0.000          -0.000
   1518612.954 9   1178946.14146  23290933.035    23290932.9924   23290943.3124
        -0.000          -0.000
  -7321091.829 9  -5690132.23147  22059555.299    22059555.2684   22059565.6124
        -0.000          -0.000
    625433.323 9    484987.30649  20561068.072    20561067.3194   20561075.5014
        -0.000          -0.000
  -6750930.070 9  -5239807.64747  22846560.234    22846559.8954   22846569.3874
        -0.000          -0.000
 99  4 14 17 34  0.0000000  0  6  2 27 26  4  7  9                  -0.000000013
    399427.231 9    265651.34648  21561375.800    21561375.0714   21561384.1414
        -0.000          -0.000
   5139493.481 9   3990412.93146  22639273.118    22639272.6774   22639284.2354
        -0.000          -0.000
   1569047.566 9   1218245.70446  23300530.530    23300530.5284   23300540.8874
        -0.000          -0.000
  -7413480.285 9  -5762123.16747  22041974.270    22041974.2894   22041984.5854
        -0.000          -0.000
    659995.484 9    511918.82849  20567645.104    20567644.3464   20567652.5214
        -0.000          -0.000
  -6835234.065 9  -5305499.02547  22830517.707    22830517.2824   22830526.7964
        -0.000          -0.000
 99  4 14 17 34 30.0000000  0  6  2 27 26  4  7  9                  -0.000000026
    425913.626 9    286290.03548  21566416.045    21566415.3114   21566424.4064
        -0.000          -0.000
   5243071.838 9   4071123.08246  22658983.679    22658983.2224   22658994.7424
        -0.000          -0.000
   1619777.610 9   1257775.48546  23310184.278    23310184.2064   23310194.6324
        -0.000          -0.000
  -7505619.576 9  -5833919.93847  22024440.748    22024440.7274   22024450.9954
        -0.000          -0.000
    694832.299 9    539064.36849  20574274.369    20574273.6074   20574281.7804
        -0.000          -0.000
  -6919266.108 9  -5370978.48847  22814526.732    22814526.4424   22814535.9974
        -0.000          -0.000
 99  4 14 17 35  0.0000000  0  6  2 27 26  4  7  9                  -0.000000016
    452581.691 9    307070.28348  21571490.860    21571490.1184   21571499.2154
        -0.000          -0.000
   5346963.594 9   4152077.44246  22678753.815    22678753.3654   22678764.9464
        -0.000          -0.000
   1670798.575 9   1297531.95046  23319893.291    23319893.2844   23319903.7364
        -0.000          -0.000
  -7597508.770 9  -5905521.82947  22006954.753    22006954.7134   22006964.9934
        -0.000          -0.000
    729945.276 9    566425.09849  20580956.166    20580955.4114   20580963.6024
        -0.000          -0.000
  -7003029.081 9  -5436248.29747  22798587.042    22798586.8374   22798596.4064
        -0.000          -0.000
 99  4 14 17 35 30.0000000  0  6  2 27 26  4  7  9                   0.000000001
    479420.038 9    327983.21548  21576598.116    21576597.3824   21576606.4734
        -0.000          -0.000
   5451152.473 9   4233263.31946  22698580.441    22698579.9894   22698591.6304
        -0.000          -0.000
   1722095.317 9   1337503.29646  23329654.923    23329654.9264   23329665.3264
        -0.000          -0.000
  -7689164.043 9  -5976941.44147  21989513.298    21989513.2574   21989523.5294
        -0.000          -0.000
    765329.022 9    593996.81649  20587689.538    20587688.7794   20587696.9914
        -0.000          -0.000
  -7086537.508 9  -5501319.76447  22782695.994    22782695.7084   22782705.2444
        -0.000          -0.000
 99  4 14 17 36  0.0000000  0  6  2 27 26  4  7  9                   0.000000032
    506473.810 9    349064.01648  21581746.329    21581745.5884   21581754.7084
        -0.000          -0.000
   5555652.099 9   4314691.34446  22718466.208    22718465.7734   22718477.4504
        -0.000          -0.000
   1773691.056 9   1377707.64646  23339473.352    23339473.3884   23339483.8614
        -0.000          -0.000
  -7780560.133 9  -6048159.09447  21972121.128    21972121.0974   21972131.4004
        -0.000          -0.000
    801008.735 9    621799.16049  20594479.222    20594478.4494   20594486.6824
        -0.000          -0.000
  -7169781.918 9  -5566185.49847  22766855.024    22766854.7644   22766864.3294
        -0.000          -0.000
 99  4 14 17 36 30.0000000  0  6  2 27 26  4  7  9                   0.000000077
    533761.172 9    370326.84048  21586938.958    21586938.2534   21586947.3744
        -0.000          -0.000
   5660437.812 9   4396342.28146  22738406.484    22738406.0194   22738417.7844
        -0.000          -0.000
   1825580.231 9   1418140.63146  23349347.684    23349347.7034   23349358.2264
        -0.000          -0.000
  -7871691.653 9  -6119170.57547  21954779.308    21954779.3034   21954789.6144
        -0.000          -0.000
    836974.333 9    649824.27349  20601323.312    20601322.5314   20601330.7494
        -0.000          -0.000
  -7252764.129 9  -5630846.92347  22751064.007    22751063.6574   22751073.2554
        -0.000          -0.000
 99  4 14 17 37  0.0000000  0  6  2 27 26  4  7  9                   0.000000097
    561269.908 9    391762.15548  21592173.763    21592173.0304   21592182.1744
        -0.000          -0.000
   5765477.298 9   4478190.96546  22758395.011    22758394.5514   22758406.3884
        -0.000          -0.000
   1877771.148 9   1458808.73846  23359279.402    23359279.4074   23359289.9474
        -0.000          -0.000
  -7962531.458 9  -6189954.76047  21937492.955    21937492.9704   21937503.2884
        -0.000          -0.000
    873223.171 9    678070.08449  20608221.267    20608220.4864   20608228.7064
        -0.000          -0.000
  -7335490.512 9  -5695309.00547  22735321.696    22735321.3344   22735330.9914
        -0.000          -0.000
 99  4 14 17 37 30.0000000  0  6  2 27 26  4  7  9                   0.000000113
    589035.579 9    413397.68148  21597457.399    21597456.6824   21597465.8614
        -0.000          -0.000
   5870787.652 9   4560250.71446  22778435.110    22778434.6274   22778446.5254
        -0.000          -0.000
   1930300.669 9   1499740.69046  23369275.557    23369275.5474   23369286.1404
        -0.000          -0.000
  -8053029.974 9  -6260473.00147  21920271.571    21920271.6024   21920281.9114
        -0.000          -0.000
    909771.020 9    706548.89549  20615176.135    20615175.3314   20615183.5874
        -0.000          -0.000
  -7417926.043 9  -5759544.44247  22719634.648    22719634.3454   22719644.0544
        -0.000          -0.000
 99  4 14 17 38  0.0000000  0  6  2 27 26  4  7  9                   0.000000111
    617029.192 9    435210.82148  21602784.429    21602783.7544   21602792.9394
        -0.000          -0.000
   5976328.848 9   4642490.33446  22798519.187    22798518.6944   22798530.6974
        -0.000          -0.000
   1983153.041 9   1540924.21946  23379333.141    23379333.0744   23379343.7394
        -0.000          -0.000
  -8143194.953 9  -6330731.35047  21903113.719    21903113.7504   21903124.0024
        -0.000          -0.000
    946590.331 9    735239.23149  20622182.562    20622181.8014   20622190.0674
        -0.000          -0.000
  -7500068.787 9  -5823551.73247  22704003.460    22704003.1154   22704012.7654
        -0.000          -0.000
 99  4 14 17 38 30.0000000  0  6  2 27 26  4  7  9                   0.000000100
    645252.752 9    457203.14448  21608155.300    21608154.5864   21608163.8064
        -0.000          -0.000
   6082124.909 9   4724928.53946  22818651.670    22818651.1864   22818663.3064
        -0.000          -0.000
   2036364.750 9   1582387.75446  23389459.120    23389459.0744   23389469.7184
        -0.000          -0.000
  -8232987.224 9  -6400699.27247  21886026.755    21886026.7894   21886036.9914
        -0.000          -0.000
    983707.461 9    764161.63249  20629245.773    20629245.0014   20629253.2684
        -0.000          -0.000
  -7581869.857 9  -5887292.78647  22688437.274    22688436.9224   22688446.4334
        -0.000          -0.000
 99  4 14 17 39  0.0000000  0  6  2 27 26  4  7  9                   0.000000082
    673682.432 9    479356.08348  21613565.355    21613564.6114   21613573.8134
        -0.000          -0.000
   6188159.790 9   4807552.83846  22838829.729    22838829.2674   22838841.3784
        -0.000          -0.000
   2089931.410 9   1624127.86446  23399652.585    23399652.5574   23399663.1954
        -0.000          -0.000
  -8322412.022 9  -6470380.85647  21869009.740    21869009.7894   21869019.8914
        -0.000          -0.000
   1021097.104 9    793296.38349  20636360.806    20636360.0454   20636368.3334
        -0.000          -0.000
  -7663325.388 9  -5950764.58947  22672936.751    22672936.3524   22672945.8434
        -0.000          -0.000
 99  4 14 17 39 30.0000000  0  6  2 27 26  4  7  9                   0.000000068
    702290.697 9    501648.17348  21619009.389    21619008.6624   21619017.8634
        -0.000          -0.000
   6294419.120 9   4890352.03546  22859050.440    22859049.9794   22859062.0644
        -0.000          -0.000
   2143821.754 9   1666120.20546  23409907.653    23409907.6194   23409918.3224
        -0.000          -0.000
  -8411512.348 9  -6539809.59747  21852054.502    21852054.5184   21852064.5934
        -0.000          -0.000
   1058730.005 9    822620.68449  20643522.156    20643521.3874   20643529.6924
        -0.000          -0.000
  -7744443.191 9  -6013973.22547  22657500.556    22657500.1294   22657509.5744
        -0.000          -0.000
 99  4 14 17 40  0.0000000  0  6  2 27 26  4  7  9                   0.000000055
    731088.226 9    524087.74748  21624489.444    21624488.7084   21624497.8954
        -0.000          -0.000
   6400931.609 9   4973348.49046  22879319.338    22879318.8274   22879331.0274
        -0.000          -0.000
   2198048.505 9   1708374.66446  23420226.773    23420226.7744   23420237.4494
        -0.000          -0.000
  -8500277.325 9  -6608977.03447  21835163.079    21835163.0714   21835173.1274
        -0.000          -0.000
   1096643.341 9    852163.50349  20650736.869    20650736.1134   20650744.4084
        -0.000          -0.000
  -7825209.105 9  -6076907.66047  22642131.177    22642130.8794   22642140.3324
        -0.000          -0.000
 99  4 14 17 40 30.0000000  0  6  2 27 26  4  7  9                   0.000000033
    760069.142 9    546670.21348  21630004.370    21630003.6404   21630012.8264
        -0.000          -0.000
   6507700.201 9   5056544.50046  22899636.922    22899636.4314   22899648.6914
        -0.000          -0.000
   2252592.640 9   1750876.45446  23430606.297    23430606.2794   23430617.0364
        -0.000          -0.000
  -8588709.573 9  -6677885.20247  21818334.943    21818334.8914   21818345.0024
        -0.000          -0.000
   1134827.146 9    881917.07649  20658003.064    20658002.2924   20658010.5864
        -0.000          -0.000
  -7905651.495 9  -6139590.00747  22626823.462    22626823.2164   22626832.6624
        -0.000          -0.000
 99  4 14 17 41  0.0000000  0  6  2 27 26  4  7  9                   0.000000021
    789260.912 9    569416.98048  21635559.438    21635558.7044   21635567.9394
        -0.000          -0.000
   6614737.804 9   5139950.14346  22920005.603    22920005.1704   22920017.4914
        -0.000          -0.000
   2307454.291 9   1793625.62846  23441046.267    23441046.2414   23441057.0314
        -0.000          -0.000
  -8676802.537 9  -6746528.99347  21801571.293    21801571.2774   21801581.4354
        -0.000          -0.000
   1173286.336 9    911885.23549  20665321.646    20665320.8864   20665329.1794
        -0.000          -0.000
  -7985763.587 9  -6202014.97347  22611578.701    22611578.4004   22611587.9114
        -0.000          -0.000
 99  4 14 17 41 30.0000000  0  6  2 27 26  4  7  9                   0.000000022
    818677.160 9    592338.66448  21641157.212    21641156.5094   21641165.7174
        -0.000          -0.000
   6722055.829 9   5223574.28846  22940427.639    22940427.2824   22940439.6824
        -0.000          -0.000
   2362626.060 9   1836616.48646  23451545.198    23451545.1834   23451555.9984
        -0.000          -0.000
  -8764550.438 9  -6814903.90647  21784873.319    21784873.3364   21784883.4794
        -0.000          -0.000
   1212033.518 9    942077.80649  20672695.068    20672694.2914   20672702.6044
        -0.000          -0.000
  -8065546.065 9  -6264183.08347  22596396.635    22596396.2814   22596405.7964
        -0.000          -0.000
 99  4 14 17 42  0.0000000  0  6  2 27 26  4  7  9                   0.000000031
    848333.699 9    615447.59148  21646800.727    21646800.0324   21646809.2664
        -0.000          -0.000
   6829654.299 9   5307416.95446  22960903.199    22960902.7974   22960915.2764
        -0.000          -0.000
   2418094.161 9   1879838.22446  23462100.485    23462100.4854   23462111.3634
        -0.000          -0.000
  -8851938.998 9  -6882998.82347  21768243.797    21768243.8084   21768253.9114
        -0.000          -0.000
   1251067.066 9    972493.51149  20680122.982    20680122.1794   20680130.4894
        -0.000          -0.000
  -8145010.234 9  -6326103.17747  22581275.066    22581274.7394   22581284.2254
        -0.000          -0.000
 99  4 14 17 42 30.0000000  0  6  2 27 26  4  7  9                   0.000000050
    878215.847 9    638732.31148  21652487.163    21652486.4464   21652495.7034
        -0.000          -0.000
   6937504.082 9   5391455.45346  22981426.595    22981426.1494   22981438.7364
        -0.000          -0.000
   2473832.703 9   1923270.69946  23472707.272    23472707.2934   23472718.2274
        -0.000          -0.000
  -8938988.763 9  -6950829.73147  21751678.783    21751678.7864   21751688.8254
        -0.000          -0.000
   1290348.523 9   1003102.39249  20687598.031    20687597.2344   20687605.5614
        -0.000          -0.000
  -8224168.808 9  -6387785.14947  22566211.607    22566211.3474   22566220.7854
        -0.000          -0.000
 99  4 14 17 43  0.0000000  0  6  2 27 26  4  7  9                   0.000000074
    908297.904 9    662172.81248  21658211.626    21658210.8834   21658220.2064
        -0.000          -0.000
   7045571.084 9   5475663.21246  23001991.292    23001990.8434   23002003.5164
        -0.000          -0.000
   2529810.124 9   1966889.32346  23483359.625    23483359.5384   23483370.5194
        -0.000          -0.000
  -9025732.544 9  -7018422.21647  21735171.938    21735171.9244   21735181.9404
        -0.000          -0.000
   1329842.283 9   1033876.70349  20695113.506    20695112.7014   20695121.0364
        -0.000          -0.000
  -8303035.909 9  -6449239.99647  22551203.674    22551203.3474   22551212.7524
        -0.000          -0.000
 99  4 14 17 43 30.0000000  0  6  2 27 26  4  7  9                   0.000000102
    938598.318 9    685783.44948  21663977.645    21663976.9314   21663986.2574
        -0.000          -0.000
   7153868.521 9   5560050.51546  23022599.855    23022599.4554   23022612.1164
        -0.000          -0.000
   2586029.108 9   2010696.17346  23494057.818    23494057.7924   23494068.7704
        -0.000          -0.000
  -9112149.982 9  -7085760.41347  21718727.173    21718727.1884   21718737.2024
        -0.000          -0.000
   1369569.677 9   1064833.07049  20702673.356    20702672.5784   20702680.9424
        -0.000          -0.000
  -8381602.004 9  -6510460.30047  22536252.966    22536252.6574   22536262.0474
        -0.000          -0.000
 99  4 14 17 44  0.0000000  0  6  2 27 26  4  7  9                   0.000000136
    969117.152 9    709564.29248  21669785.266    21669784.5504   21669793.8524
        -0.000          -0.000
   7262384.029 9   5644607.74746  23043249.851    23043249.4504   23043262.1794
        -0.000          -0.000
   2642490.226 9   2054691.70946  23504802.083    23504802.0844   23504813.0924
        -0.000          -0.000
  -9198246.463 9  -7152848.50547  21702343.478    21702343.5114   21702353.5214
        -0.000          -0.000
   1409523.583 9   1095965.94049  20710276.362    20710275.5944   20710283.9424
        -0.000          -0.000
  -8459864.480 9  -6571444.01547  22521360.145    22521359.8374   22521369.1844
        -0.000          -0.000
 99  4 14 17 44 30.0000000  0  6  2 27 26  4  7  9                   0.000000154
    999831.725 9    733497.65948  21675630.208    21675629.4344   21675638.7204
        -0.000          -0.000
   7371074.221 9   5729301.09446  23063933.120    23063932.7214   23063945.5194
        -0.000          -0.000
   2699172.081 9   2098859.22546  23515588.407    23515588.3874   23515599.4154
        -0.000          -0.000
  -9284051.566 9  -7219709.55947  21686015.303    21686015.2744   21686025.2544
        -0.000          -0.000
   1449677.647 9   1127254.77449  20717917.500    20717916.7054   20717925.0624
        -0.000          -0.000
  -8537841.365 9  -6632205.19447  22506521.665    22506521.3504   22506530.6344
        -0.000          -0.000
 99  4 14 17 45  0.0000000  0  6  2 27 26  4  7  9                   0.000000171
   1030777.171 9    757610.92048  21681518.941    21681518.1874   21681527.5084
        -0.000          -0.000
   7479957.264 9   5814144.71146  23084653.101    23084652.7174   23084665.6934
        -0.000          -0.000
   2756093.912 9   2143213.74546  23526420.502    23526420.4584   23526431.5534
        -0.000          -0.000
  -9369547.807 9  -7286329.94347  21669745.920    21669745.8674   21669755.8184
        -0.000          -0.000
   1490060.092 9   1158721.56749  20725601.968    20725601.1954   20725609.5974
        -0.000          -0.000
  -8615514.096 9  -6692729.36147  22491741.039    22491740.7024   22491750.0234
        -0.000          -0.000
 99  4 14 17 45 30.0000000  0  7  2 27 26  4 24  7  9                0.000000247
   1061887.450 9    781852.61848  21687439.025    21687438.3094   21687447.6654
        -0.000          -0.000
   7588957.703 9   5899079.79846  23105395.417    23105395.0374   23105408.0714
        -0.000          -0.000
   2813183.657 9   2187699.10646  23537284.437    23537284.3674   23537295.5404
        -0.000          -0.000
  -9454805.841 9  -7352764.70147  21653521.787    21653521.7294   21653531.7054
        -0.000          -0.000
  -5528033.402 8  -4286731.34645  24397239.479    24397239.3534   24397257.7594
        -0.000          -0.000
   1530599.150 9   1190310.39748  20733316.306    20733315.5144   20733323.9644
        -0.000          -0.000
  -8692972.968 9  -6753086.88947  22477001.036    22477000.6874   22477010.0574
        -0.000          -0.000
 99  4 14 17 46  0.0000000  0  7  2 27 26  4 24  7  9                0.000000227
   1093259.868 9    806298.57848  21693409.115    21693408.3464   21693417.7254
        -0.000          -0.000
   7698170.923 9   5984180.69446  23126178.243    23126177.9104   23126191.0094
        -0.000          -0.000
   2870563.973 9   2232410.87646  23548203.671    23548203.5874   23548214.8464
        -0.000          -0.000
  -9539720.959 9  -7418932.25947  21637362.958    21637362.9254   21637372.8374
        -0.000          -0.000
  -5637889.742 8  -4372333.41945  24376334.478    24376334.2264   24376352.5934
        -0.000          -0.000
   1571390.614 9   1222095.91048  20741078.688    20741077.9104   20741086.3754
        -0.000          -0.000
  -8770100.629 9  -6813186.33347  22462324.071    22462323.7874   22462333.1924
        -0.000          -0.000
 99  4 14 17 46 30.0000000  0  7  2 27 26  4 24  7  9                0.000000194
   1124854.629 9    830917.78548  21699421.494    21699420.7144   21699430.1024
        -0.000          -0.000
   7807585.917 9   6069438.79646  23146999.483    23146999.1354   23147012.3754
        -0.000          -0.000
   2928207.743 9   2277327.93146  23559173.007    23559172.9844   23559184.1624
        -0.000          -0.000
  -9624312.776 9  -7484847.89247  21621265.616    21621265.5794   21621275.4574
        -0.000          -0.000
  -5747795.376 8  -4457973.88345  24355420.101    24355419.7354   24355438.1084
        -0.000          -0.000
   1612410.674 9   1254059.54548  20748884.611    20748883.8074   20748892.2944
        -0.000          -0.000
  -8846930.298 9  -6873053.58447  22447703.893    22447703.5684   22447712.9494
        -0.000          -0.000
 99  4 14 17 47  0.0000000  0  7  2 27 26  4 24  7  9                0.000000166
   1156680.097 9    855716.76848  21705477.727    21705476.9914   21705486.3864
        -0.000          -0.000
   7917237.001 9   6154880.87246  23167865.690    23167865.3004   23167878.5454
        -0.000          -0.000
   2986143.783 9   2322472.73946  23570198.004    23570198.0114   23570209.1884
        -0.000          -0.000
  -9708550.026 9  -7550487.24247  21605235.712    21605235.7364   21605245.5994
        -0.000          -0.000
  -5857712.238 8  -4543623.11045  24334503.704    24334503.1944   24334521.2944
        -0.000          -0.000
   1653679.577 9   1286217.08348  20756737.815    20756737.0504   20756745.5284
        -0.000          -0.000
  -8923433.803 9  -6932666.66447  22433145.732    22433145.4174   22433154.8074
        -0.000          -0.000
 99  4 14 17 47 30.0000000  0  7  2 27 26  4 24  7  9                0.000000124
   1188716.952 9    880680.46648  21711574.203    21711573.4604   21711582.8644
        -0.000          -0.000
   8027111.344 9   6240496.90146  23188774.287    23188773.8164   23188787.3164
        -0.000          -0.000
   3044376.141 9   2367848.43046  23581279.435    23581279.3404   23581290.6114
        -0.000          -0.000
  -9792410.040 9  -7615832.63948  21589277.645    21589277.6544   21589287.4914
        -0.000          -0.000
  -5967617.681 8  -4629263.44145  24313589.099    24313588.7534   24313606.7734
        -0.000          -0.000
   1695199.366 9   1318570.11248  20764638.859    20764638.0704   20764646.5274
        -0.000          -0.000
  -8999599.555 9  -6992016.57747  22418651.823    22418651.5514   22418660.8774
        -0.000          -0.000
 99  4 14 17 48  0.0000000  0  7  2 27 26  4 24  7  9                0.000000086
   1220963.095 9    905807.24548  21717710.498    21717709.7424   21717719.1604
        -0.000          -0.000
   8137214.881 9   6326291.52446  23209726.622    23209726.1504   23209739.7044
        -0.000          -0.000
   3102907.843 9   2413457.38746  23592417.717    23592417.5894   23592429.0004
        -0.000          -0.000
  -9875874.282 9  -7680869.64048  21573394.915    21573394.8904   21573404.7134
        -0.000          -0.000
  -6077489.244 8  -4714877.38445  24292680.945    24292680.6274   24292698.8404
        -0.000          -0.000
   1736982.080 9   1351128.02148  20772589.912    20772589.1264   20772597.5784
        -0.000          -0.000
  -9075386.792 9  -7051071.53847  22404229.982    22404229.7354   22404238.9574
        -0.000          -0.000
 99  4 14 17 48 30.0000000  0  7  2 27 26  4 24  7  9                0.000000059
   1253445.941 9    931118.46548  21723891.902    21723891.1334   21723900.5474
        -0.000          -0.000
   8247566.485 9   6412279.44046  23230726.135    23230725.7234   23230739.1244
        -0.000          -0.000
   3161729.262 9   2459292.08146  23603611.195    23603611.0694   23603622.4534
        -0.000          -0.000
  -9958911.616 9  -7745573.98848  21557593.353    21557593.3594   21557603.1704
        -0.000          -0.000
  -6187303.904 8  -4800447.02045  24271783.775    24271783.5154   24271801.6164
        -0.000          -0.000
   1779044.546 9   1383903.91748  20780594.171    20780593.3944   20780601.8564
        -0.000          -0.000
  -9150783.554 9  -7109822.22847  22389882.473    22389882.1974   22389891.3604
        -0.000          -0.000
 99  4 14 17 49  0.0000000  0  7  2 27 26  4 24  7  9                0.000000013
   1286154.874 9    956605.85748  21730116.303    21730115.5244   21730124.9104
        -0.000          -0.000
   8358111.214 9   6498417.84746  23251762.416    23251761.9894   23251775.4024
        -0.000          -0.000
   3220803.126 9   2505323.50546  23614852.726    23614852.6384   23614864.0094
        -0.000          -0.000
 -10041529.176 9  -7809951.23948  21541871.655    21541871.6734   21541881.5104
        -0.000          -0.000
  -6297076.590 8  -4885983.94445  24250894.582    24250894.1964   24250912.4034
        -0.000          -0.000
   1821350.346 9   1416869.42348  20788644.773    20788643.9814   20788652.4424
        -0.000          -0.000
  -9225809.263 9  -7168283.79247  22375605.566    22375605.2814   22375614.4414
        -0.000          -0.000
 99  4 14 17 49 30.0000000  0  7  2 27 26  4 24  7  9               -0.000000016
   1319158.945 9    982323.22148  21736396.861    21736396.0564   21736405.4674
        -0.000          -0.000
   8468901.854 9   6584747.85646  23272845.540    23272845.1044   23272858.4864
        -0.000          -0.000
   3280165.354 9   2551579.61246  23626148.971    23626148.8974   23626160.4214
        -0.000          -0.000
 -10123666.861 9  -7873954.57148  21526241.308    21526241.3734   21526251.1714
        -0.000          -0.000
  -6406766.366 8  -4971456.25245  24230021.025    24230020.5874   24230038.6674
        -0.000          -0.000
   1863953.808 9   1450066.87048  20796751.975    20796751.2094   20796759.6764
        -0.000          -0.000
  -9300398.746 9  -7226405.44247  22361411.652    22361411.3774   22361420.5674
        -0.000          -0.000
 99  4 14 17 50  0.0000000  0  7  2 27 26  4 24  7  9               -0.000000039
   1352429.371 9   1008248.14048  21742728.009    21742727.2534   21742736.7354
        -0.000          -0.000
   8579918.184 9   6671253.73846  23293971.481    23293971.0494   23293984.5184
        -0.000          -0.000
   3339762.822 9   2598019.02746  23637490.114    23637490.0464   23637501.6424
        -0.000          -0.000
 -10205377.636 9  -7937625.23048  21510692.257    21510692.2584   21510702.0884
        -0.000          -0.000
  -6516433.638 8  -5056911.01445  24209151.805    24209151.5044   24209169.3324
        -0.000          -0.000
   1906804.415 9   1483456.91048  20804906.223    20804905.4444   20804913.9164
        -0.000          -0.000
  -9374595.587 9  -7284221.13447  22347292.392    22347292.1424   22347301.3764
        -0.000          -0.000
 99  4 14 17 50 30.0000000  0  7  2 27 26  4 24  7  9               -0.000000058
   1385974.059 9   1034386.76448  21749111.407    21749110.6544   21749120.1824
        -0.000          -0.000
   8691164.955 9   6757939.17346  23315141.263    23315140.8644   23315154.5324
        -0.000          -0.000
   3399607.904 9   2644651.36746  23648878.418    23648878.3224   23648889.9654
        -0.000          -0.000
 -10286659.918 9  -8000962.02148  21495224.723    21495224.7264   21495234.5274
        -0.000          -0.000
  -6626078.676 8  -5142348.46145  24188286.913    24188286.5284   24188304.3484
        -0.000          -0.000
   1949904.485 9   1517041.32248  20813107.901    20813107.1264   20813115.6354
        -0.000          -0.000
  -9448414.067 9  -7341742.00747  22333245.221    22333244.8964   22333254.2064
        -0.000          -0.000
 99  4 14 17 51  0.0000000  0  7  2 27 26  4 24  7  9               -0.000000078
   1419741.357 9   1060698.85548  21755537.153    21755536.4154   21755545.9634
        -0.000          -0.000
   8802612.683 8   6844781.18546  23336349.127    23336348.7914   23336362.6664
        -0.000          -0.000
   3459675.883 9   2691457.42546  23660309.045    23660308.9594   23660320.6984
        -0.000          -0.000
 -10367570.817 9  -8064009.41248  21479827.862    21479827.8554   21479837.6224
        -0.000          -0.000
  -6735731.635 8  -5227792.08845  24167420.389    24167420.1734   24167437.8304
        -0.000          -0.000
   1993222.809 9   1550795.80648  20821351.112    20821350.3594   20821358.8934
        -0.000          -0.000
  -9521878.235 9  -7398986.78347  22319265.421    22319265.1444   22319274.4344
        -0.000          -0.000
 99  4 14 17 51 30.0000000  0  7  2 27 26  4 24  7  9               -0.000000075
   1453710.259 9   1087168.03848  21762001.279    21762000.5414   21762010.1054
        -0.000          -0.000
   8914282.265 9   6931796.07746  23357599.330    23357598.9114   23357613.0334
        -0.000          -0.000
   3519981.729 9   2738448.82646  23671785.076    23671784.9544   23671796.7114
        -0.000          -0.000
 -10448130.994 9  -8126783.51448  21464497.728    21464497.7174   21464507.4944
        -0.000          -0.000
  -6845396.337 9  -5313244.87145  24146551.875    24146551.5604   24146569.1334
        -0.000          -0.000
   2036772.471 9   1584730.55648  20829638.427    20829637.6424   20829646.1844
        -0.000          -0.000
  -9594975.461 9  -7455945.63347  22305355.468    22305355.1844   22305364.4524
        -0.000          -0.000
 99  4 14 17 52  0.0000000  0  7  2 27 26  4 24  7  9               -0.000000065
   1487856.451 9   1113775.36648  21768499.107    21768498.4124   21768508.0194
        -0.000          -0.000
   9026155.241 9   7018969.46446  23378888.240    23378887.9334   23378902.1204
        -0.000          -0.000
   3580518.831 9   2785620.43046  23683305.051    23683304.9794   23683316.8374
        -0.000          -0.000
 -10528355.459 9  -8189296.03248  21449231.469    21449231.4674   21449241.2694
        -0.000          -0.000
  -6955075.691 9  -5398709.06745  24125680.460    24125680.1794   24125697.5504
        -0.000          -0.000
   2080540.306 9   1618835.30848  20837967.221    20837966.4564   20837975.0064
        -0.000          -0.000
  -9667736.203 9  -7512642.28947  22291509.556    22291509.2594   22291518.4904
        -0.000          -0.000
 99  4 14 17 52 30.0000000  0  7  2 27 26  4 24  7  9               -0.000000040
   1522193.340 9   1140531.28548  21775033.304    21775032.5984   21775042.2434
        -0.000          -0.000
   9138226.841 9   7106297.61646  23400215.093    23400214.6884   23400229.0034
        -0.000          -0.000
   3641285.578 9   2832970.95646  23694868.751    23694868.6334   23694880.4744
        -0.000          -0.000
 -10608227.902 9  -8251534.24048  21434032.219    21434032.2284   21434042.0094
        -0.000          -0.000
  -7064744.382 9  -5484164.96245  24104811.077    24104810.7774   24104828.1614
        -0.000          -0.000
   2124547.801 9   1653126.80248  20846341.657    20846340.8684   20846349.4354
        -0.000          -0.000
  -9740138.352 9  -7569059.52247  22277731.862    22277731.5574   22277740.7804
        -0.000          -0.000
 99  4 14 17 53  0.0000000  0  7  2 27 26  4 24  7  9                0.000000005
   1556742.085 9   1167452.29548  21781607.837    21781607.0974   21781616.7294
        -0.000          -0.000
   9250491.626 9   7193776.30046  23421578.610    23421578.2584   23421592.6174
        -0.000          -0.000
   3702276.628 9   2880496.26546  23706475.026    23706474.9894   23706486.8784
        -0.000          -0.000
 -10687728.948 9  -8313483.05448  21418903.592    21418903.6224   21418913.3644
        -0.000          -0.000
  -7174386.181 9  -5569599.89945  24083946.790    24083946.5314   24083963.7474
        -0.000          -0.000
   2168803.120 9   1687611.41048  20854763.205    20854762.4384   20854770.9884
        -0.000          -0.000
  -9812158.510 9  -7625179.09547  22264026.854    22264026.5654   22264035.7874
        -0.000          -0.000
 99  4 14 17 53 30.0000000  0  7  2 27 26  4 24  7  9                0.000000028
   1591505.292 9   1194540.41348  21788223.104    21788222.3874   21788232.0724
        -0.000          -0.000
   9362902.499 9   7281368.81846  23442969.938    23442969.6894   23442984.1094
        -0.000          -0.000
   3763467.596 9   2928177.37146  23718119.495    23718119.4074   23718131.3824
        -0.000          -0.000
 -10766853.545 9  -8375138.52548  21403846.646    21403846.6854   21403856.3734
        -0.000          -0.000
  -7284025.694 9  -5655033.07045  24063083.026    24063082.6154   24063099.8594
        -0.000          -0.000
   2213276.478 9   1722265.91748  20863226.233    20863225.4704   20863234.0394
        -0.000          -0.000
  -9883831.455 9  -7681028.12347  22250387.992    22250387.6474   22250396.8784
        -0.000          -0.000
 99  4 14 17 54  0.0000000  0  7  2 27 26  4 24  7  9                0.000000046
   1626553.717 9   1221850.77748  21794892.611    21794891.9004   21794901.6234
        -0.000          -0.000
   9475474.665 9   7369087.02046  23464391.858    23464391.8094   23464406.1844
        -0.000          -0.000
   3824874.809 9   2976026.96246  23729805.015    23729804.9384   23729817.0204
        -0.000          -0.000
 -10845550.216 9  -8436460.54648  21388871.117    21388871.1634   21388880.8604
        -0.000          -0.000
  -7393607.901 9  -5740421.56945  24042230.198    24042229.6224   24042246.7734
        -0.000          -0.000
   2257996.546 9   1757112.66848  20871736.219    20871735.4484   20871744.0314
        -0.000          -0.000
  -9955126.842 9  -7736582.94647  22236820.858    22236820.5104   22236829.7454
        -0.000          -0.000
 99  4 14 17 54 30.0000000  0  7  2 27 26  4 24  7  9                0.000000046
   1661867.856 9   1249368.18948  21801612.739    21801611.9984   21801621.7514
        -0.000          -0.000
   9588172.554 9   7456903.17546  23485837.883    23485837.7124   23485852.2384
        -0.000          -0.000
   3886483.825 9   3024033.82046  23741528.813    23741528.8124   23741540.8994
        -0.000          -0.000
 -10923838.961 9  -8497464.71248  21373973.265    21373973.2964   21373983.0074
        -0.000          -0.000
  -7503143.590 9  -5825773.81845  24021386.051    24021385.5414   24021402.6064
        -0.000          -0.000
   2302938.069 9   1792131.98148  20880288.381    20880287.6084   20880296.2064
        -0.000          -0.000
 -10026058.695 9  -7791854.49747  22223322.940    22223322.6044   22223331.8774
        -0.000          -0.000
 99  4 14 17 55  0.0000000  0  7  2 27 26  4 24  7  9                0.000000044
   1697506.522 9   1277138.48448  21808394.660    21808393.9134   21808403.6684
        -0.000          -0.000
   9701051.855 9   7544860.70246  23507318.502    23507318.2414   23507332.8544
        -0.000          -0.000
   3948376.737 9   3072261.86246  23753306.866    23753306.8574   23753318.9634
        -0.000          -0.000
 -11001640.572 9  -8558089.29148  21359168.077    21359168.0964   21359177.8004
        -0.000          -0.000
  -7612570.654 9  -5911041.45545  24000562.556    24000562.0374   24000578.9154
        -0.000          -0.000
   2348146.655 9   1827359.38848  20888891.340    20888890.5624   20888899.1744
        -0.000          -0.000
 -10096580.676 9  -7846806.67447  22209903.106    22209902.7254   22209911.9834
        -0.000          -0.000
 99  4 14 17 55 30.0000000  0  7  2 27 26  4 24  7  9                0.000000027
   1733420.421 9   1305123.23948  21815228.923    21815228.1914   21815237.9654
        -0.000          -0.000
   9814090.005 9   7632941.99146  23528829.312    23528828.8894   23528843.6394
        -0.000          -0.000
   4010510.995 9   3120677.97646  23765130.819    23765130.7524   23765142.8864
        -0.000          -0.000
 -11078999.124 9  -8618368.63348  21344447.140    21344447.1964   21344456.8274
        -0.000          -0.000
  -7721929.798 9  -5996256.13645  23979751.836    23979751.4444   23979768.3324
        -0.000          -0.000
   2393570.671 9   1862754.66348  20897535.292    20897534.5184   20897543.1544
        -0.000          -0.000
 -10166730.145 9  -7901468.57547  22196554.056    22196553.6864   22196562.9524
        -0.000          -0.000
 99  4 14 17 56  0.0000000  0  7  2 27 26  4 24  7  9                0.000000009
   1769580.477 9   1333299.80448  21822110.056    21822109.3184   21822119.1284
        -0.000          -0.000
   9927298.723 9   7721156.18846  23550372.500    23550372.1464   23550386.9894
        -0.000          -0.000
   4072869.363 9   3169268.73146  23776997.367    23776997.3674   23777009.3714
        -0.000          -0.000
 -11155932.463 9  -8678316.63348  21329807.197    21329807.2524   21329816.8714
        -0.000          -0.000
  -7831234.499 9  -6081428.40945  23958951.456    23958951.0354   23958968.0364
        -0.000          -0.000
   2439197.280 9   1898307.80548  20906217.796    20906217.0474   20906225.6864
        -0.000          -0.000
 -10236493.700 9  -7955829.76647  22183278.491    22183278.1164   22183287.3704
        -0.000          -0.000
 99  4 14 17 56 30.0000000  0  7  2 27 26  4 24  7  9               -0.000000015
   1805964.717 9   1361651.06248  21829033.835    21829033.0954   21829042.9484
        -0.000          -0.000
  10040683.425 9   7809507.53646  23571949.279    23571948.8294   23571963.8604
        -0.000          -0.000
   4135441.486 9   3218026.02446  23788904.640    23788904.5734   23788916.5224
        -0.000          -0.000
 -11232447.611 9  -8737938.76548  21315246.894    21315246.8724   21315256.5154
        -0.000          -0.000
  -7940517.604 9  -6166583.83545  23938155.409    23938154.9504   23938171.9944
        -0.000          -0.000
   2485002.282 9   1933999.96148  20914934.258    20914933.4934   20914942.1464
        -0.000          -0.000
 -10305876.897 9  -8009894.57247  22170075.301    22170074.9274   22170084.2034
        -0.000          -0.000
 99  4 14 17 57  0.0000000  0  7  2 27 26  4 24  7  9               -0.000000030
   1842567.542 9   1390172.63348  21835999.190    21835998.4534   21836008.3524
        -0.000          -0.000
  10154258.196 9   7898006.96746  23593562.124    23593561.6474   23593576.7654
        -0.000          -0.000
   4198215.298 9   3266940.48546  23800850.201    23800850.1344   23800862.2124
        -0.000          -0.000
 -11308552.924 9  -8797241.55448  21300764.514    21300764.4874   21300774.1004
        -0.000          -0.000
  -8049789.868 9  -6251730.79745  23917361.478    23917360.8964   23917377.9614
        -0.000          -0.000
   2530972.942 9   1969821.19148  20923682.269    20923681.4874   20923690.1364
        -0.000          -0.000
 -10374875.934 9  -8063660.03747  22156945.178    22156944.7964   22156954.1184
        -0.000          -0.000
 99  4 14 17 57 30.0000000  0  7  2 27 26  4 24  7  9               -0.000000022
   1879373.204 9   1418852.26148  21843003.163    21843002.4144   21843012.3174
        -0.000          -0.000
  10268015.999 9   7986649.01646  23615209.908    23615209.3904   23615224.5214
        -0.000          -0.000
   4261174.298 9   3315999.24946  23812831.054    23812831.0304   23812843.1404
        -0.000          -0.000
 -11384271.558 9  -8856243.04148  21286355.721    21286355.6824   21286365.2854
        -0.000          -0.000
  -8159058.772 9  -6336875.15545  23896568.071    23896567.5314   23896584.5964
        -0.000          -0.000
   2577106.455 9   2005769.32248  20932461.242    20932460.4594   20932469.1194
        -0.000          -0.000
 -10443481.083 9  -8117118.57847  22143889.934    22143889.6444   22143898.9894
        -0.000          -0.000
 99  4 14 17 58  0.0000000  0  7  2 27 26  4 24  7  9               -0.000000017
   1916358.022 9   1447671.49248  21850041.168    21850040.4324   21850050.3554
        -0.000          -0.000
  10381923.694 9   8075407.86746  23636886.232    23636885.6434   23636900.8544
        -0.000          -0.000
   4324298.666 9   3365186.87446  23824843.380    23824843.4144   23824855.4724
        -0.000          -0.000
 -11459623.018 9  -8914958.40848  21272016.751    21272016.7594   21272026.3864
        -0.000          -0.000
  -8268339.535 8  -6422028.75345  23875772.428    23875771.9374   23875788.8164
        -0.000          -0.000
   2623390.785 9   2041834.97748  20941268.912    20941268.1224   20941276.7854
        -0.000          -0.000
 -10511729.582 9  -8170299.20447  22130902.668    22130902.3454   22130911.7184
        -0.000          -0.000
 99  4 14 17 58 30.0000000  0  7  2 27 26  4 24  7  9               -0.000000003
   1953547.526 9   1476650.22548  21857118.220    21857117.4924   21857127.4234
        -0.000          -0.000
  10495995.369 9   8164294.48146  23658593.678    23658593.0964   23658608.2154
        -0.000          -0.000
   4387622.697 9   3414530.09246  23836893.715    23836893.6624   23836905.8224
        -0.000          -0.000
 -11534577.491 9  -8973364.44548  21257753.360    21257753.3544   21257762.9864
        -0.000          -0.000
  -8377583.048 9  -6507153.32445  23854983.889    23854983.3694   23855000.2484
        -0.000          -0.000
   2669862.983 9   2078047.01948  20950112.290    20950111.4804   20950120.1844
        -0.000          -0.000
 -10579606.069 9  -8223189.95347  22117986.228    22117985.9174   22117995.2894
        -0.000          -0.000
 99  4 14 17 59  0.0000000  0  7  2 27 26  4 24  7  9                0.000000014
   1990945.826 9   1505791.64248  21864235.021    21864234.2554   21864244.1974
        -0.000          -0.000
  10610225.637 9   8253304.68146  23680331.170    23680330.7174   23680345.9134
        -0.000          -0.000
   4451150.453 9   3464032.04146  23848982.700    23848982.6924   23848994.9724
        -0.000          -0.000
 -11609118.464 9  -9031448.27548  21243568.667    21243568.6734   21243578.2794
        -0.000          -0.000
  -8486759.401 8  -6592225.55645  23834208.028    23834207.4734   23834224.4744
        -0.000          -0.000
   2716544.077 9   2114421.83748  20958995.447    20958994.6604   20959003.3744
        -0.000          -0.000
 -10647093.465 9  -8275777.52747  22105143.758    22105143.5174   22105152.8524
        -0.000          -0.000
 99  4 14 17 59 30.0000000  0  7  2 27 26  4 24  7  9                0.000000029
   2028574.123 9   1535112.28948  21871395.472    21871394.7284   21871404.7314
        -0.000          -0.000
  10724619.182 9   8342442.11445  23702099.760    23702099.3184   23702114.5874
        -0.000          -0.000
   4514880.230 9   3513691.41046  23861110.350    23861110.2774   23861122.6154
        -0.000          -0.000
 -11683214.068 9  -9089185.06048  21229468.725    21229468.7354   21229478.2844
        -0.000          -0.000
  -8595850.565 9  -6677231.41145  23813448.341    23813447.9434   23813464.8684
        -0.000          -0.000
   2763451.132 9   2150972.73648  20967921.646    20967920.8504   20967929.5674
        -0.000          -0.000
 -10714174.857 9  -8328048.73247  22092378.634    22092378.3554   22092387.6764
        -0.000          -0.000
 99  4 14 18  0  0.0000000  0  7  2 27 26  4 24  7  9                0.000000039
   2066442.044 9   1564619.65448  21878601.634    21878600.8804   21878610.9014
        -0.000          -0.000
  10839179.621 9   8431709.57845  23723900.153    23723899.6754   23723915.0914
        -0.000          -0.000
   4578798.760 9   3563497.84546  23873273.831    23873273.7864   23873286.1004
        -0.000          -0.000
 -11756853.755 9  -9146566.59148  21215455.513    21215455.5164   21215465.0544
        -0.000          -0.000
  -8704850.633 8  -6762166.27545  23792706.167    23792705.7734   23792722.6204
        -0.000          -0.000
   2810582.235 9   2187698.20948  20976890.448    20976889.6414   20976898.3734
        -0.000          -0.000
 -10780853.332 9  -8380005.97647  22079690.123    22079689.8594   22079699.1844
        -0.000          -0.000
 99  4 14 18  0 30.0000000  0  7  2 27 26  4 24  7  9                0.000000050
   2104581.394 9   1594338.51547  21885859.376    21885858.6254   21885868.6804
        -0.000          -0.000
  10953903.942 9   8521104.73645  23745731.843    23745731.2314   23745746.8334
        -0.000          -0.000
   4642906.546 9   3613451.75446  23885473.297    23885473.2614   23885485.6324
        -0.000          -0.000
 -11830015.682 9  -9203575.84448  21201533.179    21201533.2044   21201542.7314
        -0.000          -0.000
  -8813744.159 8  -6847018.10245  23771984.276    23771983.8184   23772000.7244
        -0.000          -0.000
   2857939.808 9   2224600.15448  20985902.297    20985901.5034   20985910.2714
        -0.000          -0.000
 -10847092.309 9  -8431620.75947  22067085.253    22067085.0154   22067094.2914
        -0.000          -0.000
 99  4 14 18  1  0.0000000  0  7  2 27 26  4 24  7  9                0.000000058
   2143009.368 9   1624282.28247  21893172.054    21893171.3334   21893181.3964
        -0.000          -0.000
  11068781.569 9   8610619.37345  23767592.663    23767592.1174   23767607.7714
        -0.000          -0.000
   4707193.135 9   3663544.99746  23897706.733    23897706.7824   23897719.2104
        -0.000          -0.000
 -11902696.882 9  -9260210.50748  21187702.387    21187702.4094   21187711.9464
        -0.000          -0.000
  -8922546.429 8  -6931798.83245  23751279.812    23751279.3914   23751296.0504
        -0.000          -0.000
   2905510.737 9   2261668.35048  20994954.717    20994953.9364   20994962.7334
        -0.000          -0.000
 -10912895.403 9  -8482895.88247  22054563.366    22054563.1244   22054572.3844
        -0.000          -0.000
 99  4 14 18  1 30.0000000  0  7  2 27 26  4 24  7  9                0.000000064
   2181720.596 9   1654446.76547  21900538.647    21900537.9134   21900548.0104
        -0.000          -0.000
  11183791.729 8   8700237.24245  23789478.684    23789478.1064   23789493.8724
        -0.000          -0.000
   4771644.193 9   3713766.40946  23909971.555    23909971.5914   23909983.9994
        -0.000          -0.000
 -11974928.763 9  -9316495.04748  21173957.077    21173957.1054   21173966.6114
        -0.000          -0.000
  -9031281.891 8  -7016527.49445  23730587.836    23730587.4964   23730604.1104
        -0.000          -0.000
   2953278.617 9   2298890.01348  21004044.697    21004043.9034   21004052.7434
        -0.000          -0.000
 -10978288.598 9  -8533851.60647  22042119.518    22042119.2284   22042128.4504
        -0.000          -0.000
 99  4 14 18  2  0.0000000  0  7  2 27 26  4 24  7  9                0.000000065
   2220707.689 9   1684826.20447  21907957.690    21907956.9774   21907967.1434
        -0.000          -0.000
  11298898.384 8   8789930.31645  23811382.980    23811382.5224   23811398.2814
        -0.000          -0.000
   4836252.459 9   3764110.29646  23922266.251    23922266.3094   23922278.6994
        -0.000          -0.000
 -12046738.980 9  -9372451.01948  21160292.018    21160292.0554   21160301.5114
        -0.000          -0.000
  -9139968.756 8  -7101218.30045  23709905.241    23709904.9844   23709921.5094
        -0.000          -0.000
   3001226.144 9   2336251.65948  21013168.868    21013168.0764   21013176.9004
        -0.000          -0.000
 -11043292.515 9  -8584503.98947  22029749.647    22029749.3324   22029758.5534
        -0.000          -0.000
 99  4 14 18  2 30.0000000  0  7  2 27 26  4 24  7  9                0.000000062
   2259976.553 9   1715425.20847  21915430.410    21915429.6644   21915439.8554
        -0.000          -0.000
  11414086.681 8   8879687.00345  23833302.921    23833302.4974   23833318.1894
        -0.000          -0.000
   4901033.535 9   3814588.85246  23934593.895    23934593.9654   23934606.3504
        -0.000          -0.000
 -12118128.334 9  -9428079.04848  21146707.086    21146707.1194   21146716.5334
        -0.000          -0.000
  -9248603.105 8  -7185868.17745  23689232.797    23689232.4074   23689248.8534
        -0.000          -0.000
   3049352.555 9   2373752.70048  21022327.031    21022326.2464   21022335.0954
        -0.000          -0.000
 -11107906.415 9  -8634852.46647  22017453.922    22017453.6444   22017462.9004
        -0.000          -0.000
 99  4 14 18  3  0.0000000  0  7  2 27 26  4 24  7  9                0.000000059
   2299491.053 9   1746215.62147  21922949.847    21922949.1084   21922959.3374
        -0.000          -0.000
  11529359.292 9   8969509.39645  23855238.888    23855238.4424   23855254.2964
        -0.000          -0.000
   4965981.948 9   3865197.80046  23946953.307    23946953.2694   23946965.8044
        -0.000          -0.000
 -12189123.964 9  -9483400.27348  21133197.047    21133197.0424   21133206.4544
        -0.000          -0.000
  -9357199.406 9  -7270488.41145  23668567.484    23668566.9424   23668583.5304
        -0.000          -0.000
   3097645.711 9   2411383.66948  21031516.995    21031516.2144   21031525.0704
        -0.000          -0.000
 -11172157.788 9  -8684918.46147  22005227.268    22005227.0084   22005236.2614
        -0.000          -0.000
 99  4 14 18  3 30.0000000  0  7  2 27 26  4 24  7  9                0.000000045
   2339212.066 9   1777166.94947  21930508.625    21930507.8954   21930518.0924
        -0.000          -0.000
  11644706.798 9   9059390.15945  23877189.230    23877188.7354   23877204.5874
        -0.000          -0.000
   5031066.559 9   3915912.86846  23959338.590    23959338.5354   23959351.1394
        -0.000          -0.000
 -12259739.599 9  -9538425.40248  21119759.287    21119759.2854   21119768.6904
        -0.000          -0.000
  -9465770.004 9  -7355088.62946  23647906.980    23647906.4254   23647923.0224
        -0.000          -0.000
   3146079.479 9   2449124.20448  21040733.732    21040732.9244   21040741.7914
        -0.000          -0.000
 -11236050.118 9  -8734704.67747  21993069.049    21993068.7554   21993077.9214
        -0.000          -0.000
 99  4 14 18  4  0.0000000  0  7  2 27 26  4 24  7  9                0.000000032
   2379161.637 9   1808296.37147  21938110.848    21938110.1224   21938120.3404
        -0.000          -0.000
  11760182.367 9   9149370.69445  23899163.914    23899163.3934   23899179.3204
        -0.000          -0.000
   5096337.376 9   3966773.03146  23971759.402    23971759.3264   23971771.9234
        -0.000          -0.000
 -12329905.945 9  -9593100.43448  21106407.015    21106407.0284   21106416.4564
        -0.000          -0.000
  -9574256.087 9  -7439622.98246  23627262.593    23627262.0574   23627278.6654
        -0.000          -0.000
   3194695.615 9   2487006.85148  21049985.157    21049984.3494   21049993.2474
        -0.000          -0.000
 -11299528.644 9  -8784168.44547  21980989.474    21980989.2084   21980998.3734
        -0.000          -0.000
 99  4 14 18  4 30.0000000  0  7  2 27 26  4 24  7  9                0.000000018
   2419321.287 9   1839589.49147  21945753.004    21945752.3314   21945762.6034
        -0.000          -0.000
  11875797.447 8   9239459.92545  23921164.976    23921164.5324   23921180.6214
        -0.000          -0.000
   5161781.454 9   4017768.19246  23984213.085    23984213.0644   23984225.7154
        -0.000          -0.000
 -12399622.173 9  -9647424.72748  21093140.451    21093140.4534   21093149.8914
        -0.000          -0.000
  -9682649.341 9  -7524085.00446  23606635.958    23606635.3774   23606651.8824
        -0.000          -0.000
   3243491.513 9   2525029.56548  21059270.709    21059269.9514   21059278.8604
        -0.000          -0.000
 -11362592.936 9  -8833309.43947  21968988.688    21968988.4464   21968997.6414
        -0.000          -0.000
 99  4 14 18  5  0.0000000  0  7  2 27 26  4 24  7  9                0.000000003
   2459685.158 9   1871041.73947  21953434.076    21953433.4044   21953443.7114
        -0.000          -0.000
  11991575.749 8   9329676.34145  23943197.117    23943196.7194   23943212.9524
        -0.000          -0.000
   5227382.319 9   4068885.53146  23996696.707    23996696.7324   23996709.4584
        -0.000          -0.000
 -12468868.333 9  -9701382.73448  21079963.314    21079963.3254   21079972.7594
        -0.000          -0.000
  -9790949.915 9  -7608474.82446  23586026.827    23586026.3644   23586042.7234
        -0.000          -0.000
   3292467.334 9   2563192.47648  21068590.533    21068589.7794   21068598.7244
        -0.000          -0.000
 -11425233.425 9  -8882120.19847  21957068.542    21957068.3084   21957077.5454
        -0.000          -0.000
 99  4 14 18  5 30.0000000  0  7  2 27 26  4 24  7  9               -0.000000010
   2500301.061 9   1902690.37947  21961163.177    21961162.4544   21961172.8444
        -0.000          -0.000
  12107535.500 8   9420034.14845  23965263.719    23965263.3534   23965279.7814
        -0.000          -0.000
   5293167.494 9   4120146.50146  24009215.411    24009215.4054   24009228.2474
        -0.000          -0.000
 -12537586.652 9  -9754929.43448  21066886.622    21066886.6184   21066896.0504
        -0.000          -0.000
  -9899118.406 9  -7692761.72846  23565442.810    23565442.3844   23565458.6344
        -0.000          -0.000
   3341660.740 9   2601524.93848  21077951.843    21077951.0584   21077960.0054
        -0.000          -0.000
 -11487400.210 9  -8930561.83048  21945238.616    21945238.3684   21945247.5604
        -0.000          -0.000
 99  4 14 18  6  0.0000000  0  7  2 27 26  4 24  7  9               -0.000000012
   2541185.435 9   1934548.22147  21968943.259    21968942.5474   21968952.9694
        -0.000          -0.000
  12223664.637 8   9510523.94245  23987362.608    23987362.3444   23987378.8284
        -0.000          -0.000
   5359146.134 9   4171558.19446  24021770.877    24021770.8644   24021783.8324
        -0.000          -0.000
 -12605785.467 9  -9808071.32648  21053908.768    21053908.7924   21053918.2044
        -0.000          -0.000
 -10007146.738 9  -7776939.41246  23544885.613    23544885.0264   23544901.2374
        -0.000          -0.000
   3391080.092 9   2640033.46948  21087355.989    21087355.2384   21087364.2024
        -0.000          -0.000
 -11549104.448 9  -8978643.03848  21933496.726    21933496.4464   21933505.6294
        -0.000          -0.000
 99  4 14 18  6 30.0000000  0  7  2 27 26  4 24  7  9               -0.000000005
   2582342.107 9   1966618.24547  21976775.237    21976774.4854   21976784.9174
        -0.000          -0.000
  12339932.829 8   9601122.10045  24009487.943    24009487.7274   24009504.3844
        -0.000          -0.000
   5425273.198 9   4223085.55846  24034354.717    24034354.6334   24034367.6544
        -0.000          -0.000
 -12673494.701 9  -9860831.72348  21041024.130    21041024.1524   21041033.5364
        -0.000          -0.000
 -10115062.750 9  -7861029.58846  23524349.642    23524349.0434   23524365.2734
        -0.000          -0.000
   3440700.413 9   2678698.59848  21096798.484    21096797.7214   21096806.6954
        -0.000          -0.000
 -11610360.618 9  -9026375.10448  21921839.994    21921839.7364   21921848.9064
        -0.000          -0.000
 99  4 14 18  7  0.0000000  0  7  2 27 26  4 24  7  9                0.000000008
   2623793.991 9   1998918.28747  21984663.304    21984662.5754   21984673.0604
        -0.000          -0.000
  12456338.182 8   9691827.11645  24031639.529    24031639.2514   24031656.0654
        -0.000          -0.000
   5491548.671 9   4274728.55446  24046966.651    24046966.6114   24046979.5804
        -0.000          -0.000
 -12740692.697 9  -9913193.75948  21028236.741    21028236.7554   21028246.1204
        -0.000          -0.000
 -10222854.465 9  -7945022.91246  23503837.228    23503836.7234   23503852.8774
        -0.000          -0.000
   3490536.294 9   2717531.68848  21106281.935    21106281.1664   21106290.1584
        -0.000          -0.000
 -11671146.778 9  -9073740.93448  21910272.759    21910272.4744   21910281.6414
        -0.000          -0.000
 99  4 14 18  7 30.0000000  0  7  2 27 26  4 24  7  9                0.000000023
   2665515.198 9   2031428.19647  21992602.656    21992601.9484   21992612.4444
        -0.000          -0.000
  12572839.030 9   9782606.54245  24053809.342    24053809.1634   24053825.9224
        -0.000          -0.000
   5557953.666 9   4326472.47546  24059603.203    24059603.1734   24059616.2454
        -0.000          -0.000
 -12807423.924 9  -9965192.07648  21015538.184    21015538.1864   21015547.5364
        -0.000          -0.000
 -10330535.703 9  -8028930.15546  23483346.006    23483345.4684   23483361.5764
        -0.000          -0.000
   3540569.115 9   2756518.24348  21115802.886    21115802.1444   21115811.1534
        -0.000          -0.000
 -11731485.283 9  -9120757.94248  21898790.728    21898790.4434   21898799.6134
        -0.000          -0.000
 99  4 14 18  8  0.0000000  0  7  2 27 26  4 24  7  9                0.000000038
   2707482.325 9   2064129.72847  22000588.858    22000588.1494   22000598.6494
        -0.000          -0.000
  12689420.856 8   9873449.06645  24075994.613    24075994.1354   24076011.2244
        -0.000          -0.000
   5624466.200 9   4378300.19446  24072260.311    24072260.3004   24072273.4124
        -0.000          -0.000
 -12873717.533 9 -10016849.40148  21002922.863    21002922.8594   21002932.2554
        -0.000          -0.000
 -10438132.088 9  -8112771.29246  23462870.931    23462870.4434   23462886.4884
        -0.000          -0.000
   3590770.777 9   2795636.35048  21125356.042    21125355.2714   21125364.3084
        -0.000          -0.000
 -11791408.187 9  -9167451.11448  21887387.806    21887387.5274   21887396.6684
        -0.000          -0.000
 99  4 14 18  8 30.0000000  0  7  2 27 26  4 24  7  9                0.000000051
   2749706.072 9   2097031.22747  22008623.879    22008623.1474   22008633.6594
        -0.000          -0.000
  12806102.691 8   9964369.52245  24098198.941    24098198.3544   24098215.5844
        -0.000          -0.000
   5691098.218 9   4430220.99746  24084940.226    24084940.2024   24084953.3454
        -0.000          -0.000
 -12939538.042 9 -10068138.07148  20990397.579    20990397.5904   20990406.9904
        -0.000          -0.000
 -10545626.170 9  -8196532.69846  23442415.212    23442414.8944   23442430.8314
        -0.000          -0.000
   3641157.024 9   2834898.29748  21134944.288    21134943.5234   21134952.5544
        -0.000          -0.000
 -11850883.762 9  -9213795.70648  21876070.040    21876069.7524   21876078.8444
        -0.000          -0.000
 99  4 14 18  9  0.0000000  0  7  2 27 26  4 24  7  9                0.000000063
   2792174.105 9   2130123.07847  22016705.274    22016704.5734   22016715.1304
        -0.000          -0.000
  12922882.374 9  10055366.21045  24120421.688    24120421.1094   24120438.5264
        -0.000          -0.000
   5757871.717 9   4482252.07246  24097646.953    24097646.8864   24097660.1354
        -0.000          -0.000
 -13004883.443 9 -10119056.52948  20977962.758    20977962.7694   20977972.1744
        -0.000          -0.000
 -10653013.867 9  -8280211.19646  23421979.806    23421979.4914   23421995.4694
        -0.000          -0.000
   3691723.207 9   2874300.45148  21144566.796    21144566.0314   21144575.0624
        -0.000          -0.000
 -11909921.264 9  -9259798.95048  21864835.616    21864835.3194   21864844.3884
        -0.000          -0.000
 99  4 14 18  9 30.0000000  0  7  2 27 26  4 24  7  9                0.000000075
   2834883.612 9   2163403.09547  22024832.694    22024832.0264   22024842.6264
        -0.000          -0.000
  13039754.607 9  10146435.04545  24142662.081    24142661.6424   24142678.9954
        -0.000          -0.000
   5824797.099 9   4534401.48246  24110382.554    24110382.5994   24110395.8864
        -0.000          -0.000
 -13069756.504 9 -10169606.92948  20965617.859    20965617.8354   20965627.2144
        -0.000          -0.000
 -10760297.833 9  -8363808.87946  23401564.268    23401563.8944   23401579.8694
        -0.000          -0.000
   3742449.143 9   2913827.08848  21154219.676    21154218.8894   21154227.9364
        -0.000          -0.000
 -11968529.029 9  -9305467.32448  21853682.944    21853682.6304   21853691.7404
        -0.000          -0.000
 99  4 14 18 10  0.0000000  0  7  2 27 26  4 24  7  9                0.000000085
   2877862.938 9   2196893.35247  22033011.509    22033010.8544   22033021.4534
        -0.000          -0.000
  13156728.203 8  10237582.85345  24164921.723    24164921.2834   24164938.7094
        -0.000          -0.000
   5891880.520 9   4586674.03646  24123148.235    24123148.2714   24123161.6274
        -0.000          -0.000
 -13134122.590 9 -10219762.28548  20953369.379    20953369.3744   20953378.7144
        -0.000          -0.000
 -10867453.433 9  -8447306.55346  23381173.091    23381172.7214   23381188.6354
        -0.000          -0.000
   3793337.871 9   2953480.57448  21163903.521    21163902.7554   21163911.8094
        -0.000          -0.000
 -12026684.228 9  -9350783.05348  21842616.338    21842616.0624   21842625.1834
        -0.000          -0.000
 99  4 14 18 10 30.0000000  0  8  2 27 26  4 24  7  5  9             0.000000052
   2921119.632 9   2230599.74047  22041243.114    22041242.4554   22041253.0534
        -0.000          -0.000
  13273800.322 8  10328807.42745  24187200.106    24187199.7594   24187217.2244
        -0.000          -0.000
   5959114.888 9   4639064.20245  24135942.519    24135942.5644   24135956.1594
        -0.000          -0.000
 -13197982.484 9 -10269523.20848  20941217.197    20941217.1974   20941226.5394
        -0.000          -0.000
 -10974462.008 9  -8530689.66046  23360809.917    23360809.5584   23360825.3624
        -0.000          -0.000
   3844393.965 9   2993264.47848  21173619.258    21173618.4894   21173627.5524
        -0.000          -0.000
  -4808821.162 8  -3037974.99245  24608682.038    24608681.4044   24608695.5974
        -0.000          -0.000
 -12084376.047 9  -9395737.70848  21831637.950    21831637.6624   21831646.7654
        -0.000          -0.000
 99  4 14 18 11  0.0000000  0  8  2 27 26  4 24  7  5  9             0.000000050
   2964637.803 9   2264509.87447  22049524.473    22049523.7924   22049534.4304
        -0.000          -0.000
  13390954.181 8  10420095.66845  24209494.066    24209493.6564   24209511.2524
        -0.000          -0.000
   6026475.745 9   4691552.94145  24148761.192    24148761.2504   24148774.7714
        -0.000          -0.000
 -13261363.745 9 -10318911.17248  20929156.098    20929156.1274   20929165.4664
        -0.000          -0.000
 -11081336.573 9  -8613968.35146  23340472.105    23340471.8284   23340487.5664
        -0.000          -0.000
   3895592.900 9   3033159.68048  21183362.191    21183361.4044   21183370.5004
        -0.000          -0.000
  -4891701.936 8  -3102557.33145  24592910.597    24592909.7924   24592923.8674
        -0.000          -0.000
 -12141628.143 9  -9440349.71748  21820743.220    21820742.9344   21820752.0594
        -0.000          -0.000
 99  4 14 18 11 30.0000000  0  8  2 27 26  4 24  7  5  9             0.000000029
   3008417.189 9   2298623.55347  22057855.485    22057854.8154   22057865.4934
        -0.000          -0.000
  13508179.761 8  10511439.81445  24231801.755    24231801.2434   24231818.9894
        -0.000          -0.000
   6093946.416 9   4744127.25445  24161600.587    24161600.5914   24161614.2534
        -0.000          -0.000
 -13324268.432 9 -10367927.77848  20917185.744    20917185.7644   20917195.0584
        -0.000          -0.000
 -11188075.697 9  -8697141.49646  23320160.062    23320159.8304   23320175.5174
        -0.000          -0.000
   3946930.612 9   3073163.02548  21193131.481    21193130.7114   21193139.8034
        -0.000          -0.000
  -4974662.739 8  -3167202.03145  24577123.639    24577122.9034   24577136.9564
        -0.000          -0.000
 -12198435.452 9  -9484615.13848  21809933.112    21809932.8384   21809941.9844
        -0.000          -0.000
 99  4 14 18 12  0.0000000  0  8  2 27 26  4 24  7  5  9             0.000000009
   3052464.853 9   2332946.26847  22066237.577    22066236.9124   22066247.5944
        -0.000          -0.000
  13625497.750 8  10602855.95145  24254126.993    24254126.5574   24254144.2694
        -0.000          -0.000
   6161547.988 9   4796803.54946  24174464.950    24174464.9254   24174478.6674
        -0.000          -0.000
 -13386678.281 9 -10416558.80048  20905309.535    20905309.5554   20905318.8174
        -0.000          -0.000
 -11294653.538 9  -8780188.95846  23299878.923    23299878.6104   23299894.2474
        -0.000          -0.000
   3998439.385 9   3113299.65848  21202933.318    21202932.5454   21202941.6754
        -0.000          -0.000
  -5057669.238 8  -3231882.33445  24561328.008    24561327.0274   24561341.3284
        -0.000          -0.000
 -12254781.833 9  -9528521.40148  21799210.782    21799210.4914   21799219.6274
        -0.000          -0.000
 99  4 14 18 12 30.0000000  0  8  2 27 26  4 24  7  5  9            -0.000000019
   3096742.807 9   2367448.43647  22074663.534    22074662.8484   22074673.5434
        -0.000          -0.000
  13742877.536 8  10694320.25845  24276463.910    24276463.5734   24276481.4994
        -0.000          -0.000
   6229260.203 9   4849566.06446  24187350.373    24187350.4154   24187364.2324
        -0.000          -0.000
 -13448624.207 9 -10464828.32148  20893521.626    20893521.6264   20893530.8934
        -0.000          -0.000
 -11401111.221 9  -8863142.79946  23279620.578    23279620.2354   23279635.8684
        -0.000          -0.000
   4050098.683 9   3153553.59048  21212763.822    21212763.0504   21212772.1894
        -0.000          -0.000
  -5140728.618 8  -3296603.83045  24545522.251    24545521.2594   24545535.4874
        -0.000          -0.000
 -12310703.308 9  -9572096.56848  21788569.235    21788568.9974   21788578.1144
        -0.000          -0.000
 99  4 14 18 13  0.0000000  0  8  2 27 26  4 24  7  5  9            -0.000000039
   3141260.982 9   2402137.78547  22083135.229    22083134.5444   22083145.2204
        -0.000          -0.000
  13860329.657 8  10785840.92645  24298814.684    24298814.3404   24298832.2944
        -0.000          -0.000
   6297105.044 8   4902431.92345  24200260.879    24200260.9084   24200274.8164
        -0.000          -0.000
 -13510080.500 9 -10512716.31248  20881826.827    20881826.8524   20881836.1014
        -0.000          -0.000
 -11507443.396 9  -8945998.84246  23259386.075    23259385.6834   23259401.2654
        -0.000          -0.000
   4101914.922 9   3193929.80948  21222624.153    21222623.3934   21222632.5634
        -0.000          -0.000
  -5223800.347 8  -3361334.93445  24529714.230    24529713.0834   24529727.3194
        -0.000          -0.000
 -12366182.968 9  -9615327.45948  21778011.770    21778011.4864   21778020.6194
        -0.000          -0.000
 99  4 14 18 13 30.0000000  0  8  2 27 26  4 24  7  5  9            -0.000000053
   3186014.688 9   2437010.66947  22091651.637    22091650.9784   22091661.6964
        -0.000          -0.000
  13977851.132 8  10877415.60345  24321178.793    24321178.3784   24321196.4454
        -0.000          -0.000
   6365081.150 8   4955400.04145  24213196.331    24213196.3134   24213210.4084
        -0.000          -0.000
 -13571042.779 9 -10560219.35448  20870226.071    20870226.0834   20870235.3304
        -0.000          -0.000
 -11613647.917 9  -9028755.40946  23239175.997    23239175.6244   23239190.9734
        -0.000          -0.000
   4153890.524 9   3234430.21248  21232514.815    21232514.0564   21232523.2544
        -0.000          -0.000
  -5306882.184 8  -3426073.91645  24513904.167    24513903.1384   24513917.0884
        -0.000          -0.000
 -12421220.792 9  -9658214.06848  21767538.334    21767538.1074   21767547.2564
        -0.000          -0.000
 99  4 14 18 14  0.0000000  0  8  2 27 26  4 24  7  5  9            -0.000000054
   3231007.902 9   2472070.18047  22100213.623    22100212.9614   22100223.7464
        -0.000          -0.000
  14095453.875 8  10969053.64845  24343558.263    24343557.6964   24343575.9064
        -0.000          -0.000
   6433174.560 8   5008459.59645  24226154.350    24226154.2924   24226168.4194
        -0.000          -0.000
 -13631504.974 9 -10607332.72348  20858720.462    20858720.4684   20858729.7134
        -0.000          -0.000
 -11719721.086 9  -9111409.61846  23218990.904    23218990.3884   23219005.7234
        -0.000          -0.000
   4206019.544 9   3275050.16148  21242434.659    21242433.9294   21242443.1454
        -0.000          -0.000
  -5389971.333 8  -3490818.58745  24498092.608    24498091.5464   24498105.9784
        -0.000          -0.000
 -12475818.348 9  -9700757.61348  21757148.794    21757148.5604   21757157.6914
        -0.000          -0.000
 99  4 14 18 14 30.0000000  0  7  2 26  4 24  7  5  9               -0.000000116
   3276244.996 9   2507319.72647  22108822.042    22108821.3614   22108832.2454
        -0.000          -0.000
   6501356.125 8   5061587.82545  24239128.981    24239128.8804   24239143.1854
        -0.000          -0.000
 -13691464.939 9 -10654054.74748  20847310.438    20847310.4674   20847319.6944
        -0.000          -0.000
 -11825683.694 9  -9193977.67346  23198826.632    23198826.2474   23198841.4434
        -0.000          -0.000
   4258276.537 9   3315769.82848  21252378.894    21252378.1454   21252387.3914
        -0.000          -0.000
  -5473104.190 8  -3555597.31745  24482272.615    24482271.7264   24482286.4414
        -0.000          -0.000
 -12529979.495 9  -9742961.09948  21746842.308    21746842.0644   21746851.2014
        -0.000          -0.000
 99  4 14 18 15  0.0000000  0  7  2 26  4 24  7  5  9               -0.000000101
   3321765.511 9   2542790.12147  22117484.484    22117483.7844   22117494.6544
        -0.000          -0.000
   6569651.411 8   5114804.67045  24252125.268    24252125.4324   24252139.6324
        -0.000          -0.000
 -13750882.213 9 -10700353.88948  20836003.704    20836003.7354   20836012.9324
        -0.000          -0.000
 -11931486.589 9  -9276421.28746  23178692.760    23178692.4954   23178707.5734
        -0.000          -0.000
   4310690.481 9   3356611.79848  21262352.902    21262352.1904   21262361.4594
        -0.000          -0.000
  -5556264.457 8  -3620397.43645  24466447.561    24466446.7124   24466461.3314
        -0.000          -0.000
 -12583658.708 9  -9784789.05448  21736627.478    21736627.2264   21736636.3424
        -0.000          -0.000
 99  4 14 18 15 30.0000000  0  7  2 26  4 24  7  5  9               -0.000000095
   3367561.374 9   2578475.06947  22126199.310    22126198.5814   22126209.4334
        -0.000          -0.000
   6638032.454 8   5168088.34745  24265138.013    24265138.2144   24265152.4184
        -0.000          -0.000
 -13809765.612 9 -10746237.03348  20824798.567    20824798.5924   20824807.7574
        -0.000          -0.000
 -12037133.997 9  -9358743.72346  23158588.539    23158588.2944   23158603.3694
        -0.000          -0.000
   4363263.660 9   3397577.84448  21272357.322    21272356.6244   21272365.9054
        -0.000          -0.000
  -5639473.918 8  -3685235.87145  24450613.176    24450612.5434   24450626.8064
        -0.000          -0.000
 -12636865.875 9  -9826249.17648  21726502.535    21726502.2164   21726511.3764
        -0.000          -0.000
 99  4 14 18 16  0.0000000  0  7  2 26  4 24  7  5  9               -0.000000087
   3413657.055 9   2614393.63847  22134971.090    22134970.4084   22134981.3134
        -0.000          -0.000
   6706506.810 8   5221444.73145  24278168.387    24278168.4644   24278182.9724
        -0.000          -0.000
 -13868094.869 9 -10791688.37448  20813698.853    20813698.8864   20813708.0314
        -0.000          -0.000
 -12142618.610 9  -9440939.31346  23138515.242    23138515.0304   23138530.0704
        -0.000          -0.000
   4416004.182 9   3438674.29248  21282393.620    21282392.8764   21282402.1594
        -0.000          -0.000
  -5722718.385 8  -3750101.57945  24434772.475    24434771.8304   24434785.7454
        -0.000          -0.000
 -12689591.464 9  -9867334.05148  21716469.107    21716468.8314   21716478.0394
        -0.000          -0.000
 99  4 14 18 16 30.0000000  0  7  2 26  4 24  7  5  9               -0.000000075
   3460052.008 9   2650545.42247  22143799.868    22143799.1874   22143810.1294
        -0.000          -0.000
   6775078.645 9   5274877.06245  24291217.361    24291217.4094   24291231.9404
        -0.000          -0.000
 -13925878.134 9 -10836714.26148  20802703.050    20802703.0884   20802712.1934
        -0.000          -0.000
 -12247940.905 9  -9523008.42546  23118472.948    23118472.8054   23118487.7424
        -0.000          -0.000
   4468923.127 9   3479909.77948  21292463.815    21292463.0454   21292472.3514
        -0.000          -0.000
  -5806001.720 8  -3814997.60645  24418924.108    24418923.3414   24418937.4424
        -0.000          -0.000
 -12741837.808 9  -9908045.48448  21706527.026    21706526.7344   21706535.9044
        -0.000          -0.000
 99  4 14 18 17  0.0000000  0  7  2 26  4 24  7  5  9               -0.000000053
   3506735.149 9   2686921.75447  22152683.457    22152682.7964   22152693.8024
        -0.000          -0.000
   6843735.062 8   5328375.31045  24304282.615    24304282.5964   24304296.9714
        -0.000          -0.000
 -13983142.704 9 -10881335.98548  20791805.948    20791805.9824   20791815.0774
        -0.000          -0.000
 -12353091.587 9  -9604943.79546  23098463.326    23098463.1084   23098478.0354
        -0.000          -0.000
   4522023.659 9   3521286.74048  21302568.520    21302567.7794   21302577.1054
        -0.000          -0.000
  -5889324.263 8  -3879924.16445  24403068.169    24403067.4984   24403081.6744
        -0.000          -0.000
 -12793605.348 9  -9948383.84148  21696675.997    21696675.7244   21696684.8424
        -0.000          -0.000
 99  4 14 18 17 30.0000000  0  7  2 26  4 24  7  5  9               -0.000000025
   3553690.123 9   2723509.90547  22161618.832    22161618.1614   22161629.1654
        -0.000          -0.000
   6912462.091 8   5381928.57145  24317360.950    24317360.9914   24317375.5744
        -0.000          -0.000
 -14039907.461 9 -10925568.23748  20781003.961    20781004.0004   20781013.1084
        -0.000          -0.000
 -12458082.095 9  -9686754.36246  23078484.212    23078483.9584   23078498.7924
        -0.000          -0.000
   4575281.571 9   3562786.34648  21312703.248    21312702.4834   21312711.8364
        -0.000          -0.000
  -5972697.816 8  -3944890.46745  24387202.575    24387202.0314   24387215.9724
        -0.000          -0.000
 -12844920.353 9  -9988369.56248  21686911.057    21686910.8044   21686919.9394
        -0.000          -0.000
 99  4 14 18 18  0.0000000  0  7  2 26  4 24  7  5  9               -0.000000006
   3600884.084 9   2760284.29147  22170599.638    22170598.9644   22170610.0264
        -0.000          -0.000
   6981250.892 8   5435529.95545  24330451.266    24330451.3884   24330465.8344
        -0.000          -0.000
 -14096203.120 9 -10969434.96448  20770291.195    20770291.2274   20770300.3404
        -0.000          -0.000
 -12562939.680 9  -9768461.34646  23058530.362    23058530.0424   23058544.9174
        -0.000          -0.000
   4628648.820 9   3604371.14448  21322858.718    21322857.9624   21322867.3094
        -0.000          -0.000
  -6056145.081 8  -4009914.23145  24371323.209    24371322.5344   24371336.3964
        -0.000          -0.000
 -12895798.447 9 -10028014.84148  21677229.251    21677229.0074   21677238.1494
        -0.000          -0.000
 99  4 14 18 18 30.0000000  0  7  2 26  4 24  7  5  9               -0.000000001
   3648313.861 9   2797242.42547  22179625.260    22179624.6154   22179635.7154
        -0.000          -0.000
   7050114.476 8   5489189.63145  24343555.909    24343555.9264   24343570.3714
        -0.000          -0.000
 -14152028.890 9 -11012935.53748  20759667.917    20759667.9514   20759677.0494
        -0.000          -0.000
 -12667645.420 9  -9850050.02946  23038605.369    23038605.0464   23038619.8474
        -0.000          -0.000
   4682135.817 9   3646049.25748  21333036.962    21333036.2264   21333045.5784
        -0.000          -0.000
  -6139653.663 8  -4074985.77845  24355432.098    24355431.3864   24355445.3554
        -0.000          -0.000
 -12946208.176 9 -10067295.15048  21667636.596    21667636.3484   21667645.5054
        -0.000          -0.000
 99  4 14 18 19  0.0000000  0  7  2 26  4 24  7  5  9               -0.000000007
   3695978.130 9   2834383.27847  22188695.566    22188694.9264   22188706.0534
        -0.000          -0.000
   7119062.914 8   5542915.42845  24356676.530    24356676.5534   24356690.9044
        -0.000          -0.000
 -14207369.073 9 -11056057.73248  20749137.016    20749137.0414   20749146.1174
        -0.000          -0.000
 -12772187.074 9  -9931510.85146  23018711.598    23018711.2384   23018725.9654
        -0.000          -0.000
   4735729.937 9   3687810.83648  21343235.585    21343234.8964   21343244.2644
        -0.000          -0.000
  -6223210.202 8  -4140094.69145  24339531.598    24339530.9244   24339544.9434
        -0.000          -0.000
 -12996139.852 9 -10106202.95448  21658134.920    21658134.6554   21658143.8084
        -0.000          -0.000
 99  4 14 18 19 30.0000000  0  7  2 26  4 24  7  5  9               -0.000000016
   3743880.334 9   2871709.53147  22197811.130    22197810.5154   22197821.6764
        -0.000          -0.000
   7188114.554 9   5596721.64345  24369816.725    24369816.8964   24369831.4994
        -0.000          -0.000
 -14262193.781 9 -11098778.26048  20738704.177    20738704.2244   20738713.3134
        -0.000          -0.000
 -12876563.121 9 -10012842.62046  22998849.265    22998848.9584   22998863.6494
        -0.000          -0.000
   4789439.100 9   3729662.06048  21353456.134    21353455.4404   21353464.8654
        -0.000          -0.000
  -6306784.973 9  -4205217.80845  24323627.888    24323627.1824   24323641.0824
        -0.000          -0.000
 -13045586.832 9 -10144733.06948  21648725.384    21648725.1594   21648734.3194
        -0.000          -0.000
 99  4 14 18 20  0.0000000  0  7  2 26  4 24  7  5  9               -0.000000033
   3792028.489 9   2909227.43847  22206973.605    22206972.9524   22206984.1114
        -0.000          -0.000
   7257254.241 9   5650596.46445  24382973.914    24382973.9784   24382988.5664
        -0.000          -0.000
 -14316496.561 9 -11141092.09048  20728370.655    20728370.6984   20728379.8144
        -0.000          -0.000
 -12980781.424 9 -10094051.48546  22979016.915    22979016.7084   22979031.3214
        -0.000          -0.000
   4843271.200 9   3771609.08148  21363700.139    21363699.4194   21363708.8324
        -0.000          -0.000
  -6390374.661 8  -4270352.54845  24307721.402    24307720.7854   24307734.3494
        -0.000          -0.000
 -13094535.378 9 -10182874.78648  21639410.873    21639410.6184   21639419.7644
        -0.000          -0.000
 99  4 14 18 20 30.0000000  0  8  8  2 26  4 24  7  5  9             0.000000036
  -4655523.242 8  -3607144.55145  24216371.768    24216370.9854   24216384.3824
        -0.000          -0.000
   3840435.357 9   2946946.94847  22216185.282    22216184.5954   22216195.8044
        -0.000          -0.000
   7326462.411 9   5704524.65645  24396143.888    24396144.0104   24396158.6964
        -0.000          -0.000
 -14370263.646 9 -11182988.49848  20718139.109    20718139.1614   20718148.2864
        -0.000          -0.000
 -13084837.333 9 -10175133.82046  22959215.620    22959215.4364   22959229.9244
        -0.000          -0.000
   4897245.118 9   3813666.60448  21373971.123    21373970.3784   21373979.7944
        -0.000          -0.000
  -6473983.206 9  -4335501.98545  24291810.906    24291810.3704   24291824.1824
        -0.000          -0.000
 -13142990.614 9 -10220632.10248  21630190.201    21630189.9114   21630199.0564
        -0.000          -0.000
 99  4 14 18 21  0.0000000  0  8  8  2 26  4 24  7  5  9            -0.000000013
  -4760732.486 8  -3689125.77545  24196351.028    24196350.3854   24196363.5944
        -0.000          -0.000
   3889123.212 9   2984885.39347  22225450.305    22225449.6514   22225460.9614
        -0.000          -0.000
   7395739.638 9   5758506.64345  24409327.225    24409327.1154   24409342.1244
        -0.000          -0.000
 -14423464.900 9 -11224444.00348  20708015.232    20708015.2994   20708024.4084
        -0.000          -0.000
 -13188716.212 9 -10256078.21346  22939448.092    22939447.8614   22939462.2504
        -0.000          -0.000
   4951378.971 9   3855848.75148  21384272.463    21384271.7674   21384281.1924
        -0.000          -0.000
  -6557598.738 9  -4400656.86845  24275899.295    24275898.7254   24275912.5064
        -0.000          -0.000
 -13190941.893 9 -10257996.73548  21621065.398    21621065.1184   21621074.2734
        -0.000          -0.000
 99  4 14 18 21 30.0000000  0  8  8  2 26  4 24  7  5  9            -0.000000042
  -4865700.367 8  -3770918.88545  24176376.090    24176375.7634   24176388.9164
        -0.000          -0.000
   3938123.439 9   3023067.24847  22234774.864    22234774.2064   22234785.5524
        -0.000          -0.000
   7465092.678 9   5812547.71745  24422524.912    24422524.8174   24422539.7434
        -0.000          -0.000
 -14476078.562 9 -11265441.63648  20698003.154    20698003.2014   20698012.3064
        -0.000          -0.000
 -13292392.366 9 -10336864.63846  22919719.059    22919718.7994   22919733.1254
        -0.000          -0.000
   5005704.016 9   3898179.88248  21394610.231    21394609.5504   21394619.0274
        -0.000          -0.000
  -6641203.846 9  -4465803.61845  24259989.816    24259989.1394   24260002.9144
        -0.000          -0.000
 -13238368.046 9 -10294952.17348  21612040.526    21612040.2264   21612049.3984
        -0.000          -0.000
 99  4 14 18 22  0.0000000  0  8  8  2 26  4 24  7  5  9            -0.000000051
  -4970427.167 8  -3852524.15445  24156447.279    24156446.7904   24156460.1294
        -0.000          -0.000
   3987435.113 9   3061491.78647  22244158.663    22244158.0194   22244169.4064
        -0.000          -0.000
   7534507.656 9   5866637.02645  24435734.375    24435734.3334   24435749.2734
        -0.000          -0.000
 -14528113.778 9 -11305988.53548  20688101.171    20688101.2354   20688110.3044
        -0.000          -0.000
 -13395868.447 9 -10417495.16946  22900028.198    22900027.7714   22900042.1134
        -0.000          -0.000
   5060209.280 9   3940651.43148  21404982.355    21404981.6294   21404991.1464
        -0.000          -0.000
  -6724819.442 9  -4530958.54845  24244078.223    24244077.6844   24244091.2674
        -0.000          -0.000
 -13285281.229 9 -10331507.89948  21603113.219    21603112.9164   21603122.0734
        -0.000          -0.000
 99  4 14 18 22 30.0000000  0  8  8  2 26  4 24  7  5  9            -0.000000048
  -5074931.083 8  -3933955.74945  24136561.024    24136560.3674   24136573.6984
        -0.000          -0.000
   4037026.152 9   3100134.00747  22253595.605    22253594.9264   22253606.3634
        -0.000          -0.000
   7603982.948 9   5920773.34945  24448955.303    24448955.2804   24448970.2054
        -0.000          -0.000
 -14579591.552 9 -11346101.06548  20678305.278    20678305.3174   20678314.4084
        -0.000          -0.000
 -13499141.977 9 -10497967.87346  22880375.771    22880375.3564   22880389.6284
        -0.000          -0.000
   5114884.565 9   3983255.47448  21415386.806    21415386.0574   21415395.5634
        -0.000          -0.000
  -6808463.146 9  -4596135.37745  24228161.394    24228160.8934   24228174.4624
        -0.000          -0.000
 -13331707.616 9 -10367684.30248  21594278.591    21594278.2924   21594287.4354
        -0.000          -0.000
 99  4 14 18 23  0.0000000  0  8  8  2 26  4 24  7  5  9            -0.000000044
  -5179246.167 8  -4015240.21245  24116710.615    24116709.9094   24116722.9714
        -0.000          -0.000
   4086872.286 9   3138975.01847  22263081.168    22263080.4804   22263091.9504
        -0.000          -0.000
   7673510.652 9   5974950.52345  24462186.219    24462186.3314   24462200.9874
        -0.000          -0.000
 -14630536.059 9 -11385798.05948  20668610.811    20668610.8784   20668619.9704
        -0.000          -0.000
 -13602211.884 9 -10578281.91346  22860762.086    22860761.6844   22860775.9124
        -0.000          -0.000
   5169696.786 9   4025966.22548  21425817.252    21425816.5264   21425826.0384
        -0.000          -0.000
  -6892142.103 9  -4661339.67845  24212237.800    24212237.3164   24212250.6724
        -0.000          -0.000
 -13377663.968 9 -10403494.43948  21585533.345    21585533.0474   21585542.2224
        -0.000          -0.000
 99  4 14 18 23 30.0000000  0  8  8  2 26  4 24  7  5  9            -0.000000043
  -5283375.133 8  -4096379.61645  24096895.398    24096894.6974   24096907.8584
        -0.000          -0.000
   4136965.416 9   3178008.47847  22272613.647    22272612.9814   22272624.5174
        -0.000          -0.000
   7743096.868 9   6029173.28145  24475428.344    24475428.3934   24475442.9334
        -0.000          -0.000
 -14680952.004 9 -11425083.19048  20659016.930    20659017.0004   20659026.0894
        -0.000          -0.000
 -13705081.455 9 -10658439.87346  22841186.400    22841186.0774   22841200.2714
        -0.000          -0.000
   5224635.481 9   4068775.51948  21436271.797    21436271.0884   21436280.6264
        -0.000          -0.000
  -6975862.686 9  -4726576.41345  24196306.361    24196305.8164   24196318.9914
        -0.000          -0.000
 -13423157.671 9 -10438944.07848  21576876.172    21576875.8804   21576885.0194
        -0.000          -0.000
 99  4 14 18 24  0.0000000  0  8  8  2 26  4 24  7  5  9            -0.000000040
  -5387294.340 8  -4177355.57045  24077120.041    24077119.4874   24077132.7784
        -0.000          -0.000
   4187312.308 9   3217239.68047  22282194.425    22282193.7384   22282205.3454
        -0.000          -0.000
   7812762.565 9   6083457.97045  24488685.439    24488685.4554   24488700.1644
        -0.000          -0.000
 -14730822.841 9 -11463943.56248  20649526.852    20649526.9304   20649535.9674
        -0.000          -0.000
 -13807750.434 9 -10738441.50946  22821648.983    22821648.6324   22821662.8694
        -0.000          -0.000
   5279708.593 9   4111689.55248  21446751.948    21446751.2234   21446760.7614
        -0.000          -0.000
  -7059614.167 9  -4791837.22245  24180368.883    24180368.3304   24180381.5714
        -0.000          -0.000
 -13468163.751 9 -10474013.75548  21568311.829    21568311.5294   21568320.6644
        -0.000          -0.000
 99  4 14 18 24 30.0000000  0  8  8  2 26  4 24  7  5  9            -0.000000042
  -5491009.865 8  -4258172.80945  24057383.712    24057383.2404   24057396.4124
        -0.000          -0.000
   4237912.885 9   3256668.55347  22291823.525    22291822.8324   22291834.4574
        -0.000          -0.000
   7882495.254 9   6137794.86245  24501955.210    24501955.2594   24501970.0674
        -0.000          -0.000
 -14780155.552 9 -11502384.61548  20640139.142    20640139.2094   20640148.2564
        -0.000          -0.000
 -13910213.636 9 -10818282.79846  22802150.645    22802150.3204   22802164.5614
        -0.000          -0.000
   5334896.179 9   4154692.79248  21457253.905    21457253.1534   21457262.7034
        -0.000          -0.000
  -7143401.516 8  -4857125.96945  24164424.491    24164423.8584   24164437.3564
        -0.000          -0.000
 -13512670.222 9 -10508694.12048  21559842.534    21559842.2624   21559851.3854
        -0.000          -0.000
 99  4 14 18 25  0.0000000  0  8  8  2 26  4 24  7  5  9            -0.000000043
  -5594501.985 8  -4338815.98045  24037690.018    24037689.5334   24037702.3474
        -0.000          -0.000
   4288792.271 9   3296314.68247  22301505.663    22301504.9604   22301516.5754
        -0.000          -0.000
   7952285.434 9   6192176.57745  24515236.055    24515236.0854   24515250.9424
        -0.000          -0.000
 -14828943.552 9 -11540401.21748  20630855.051    20630855.1164   20630864.1494
        -0.000          -0.000
 -14012480.414 9 -10897971.03846  22782689.762    22782689.4324   22782703.6714
        -0.000          -0.000
   5390189.872 9   4197778.71148  21467775.971    21467775.2394   21467784.8554
        -0.000          -0.000
  -7227214.417 9  -4922434.64145  24148475.284    24148474.5594   24148488.3744
        -0.000          -0.000
 -13556659.258 9 -10542971.29448  21551471.704    21551471.4574   21551480.5614
        -0.000          -0.000
 99  4 14 18 25 30.0000000  0  8  8  2 26  4 24  7  5  9            -0.000000038
  -5697752.012 8  -4419270.50945  24018042.319    24018041.9064   24018054.6664
        -0.000          -0.000
   4339959.693 9   3336185.23547  22311242.599    22311241.9184   22311253.5244
        -0.000          -0.000
   8022121.276 9   6246593.84945  24528525.624    24528525.5864   24528540.5044
        -0.000          -0.000
 -14877190.220 9 -11577996.00748  20621673.991    20621674.0624   20621683.1104
        -0.000          -0.000
 -14114568.446 9 -10977519.99346  22763262.970    22763262.6114   22763276.8014
        -0.000          -0.000
   5445596.688 9   4240952.77048  21478319.560    21478318.8494   21478328.5024
        -0.000          -0.000
  -7311060.899 8  -4987769.45945  24132519.938    24132519.0244   24132532.7874
        -0.000          -0.000
 -13600133.399 9 -10576847.25848  21543198.868    21543198.6144   21543207.7084
        -0.000          -0.000
 99  4 14 18 26  0.0000000  0  8  8  2 26  4 24  7  5  9            -0.000000033
  -5800773.399 8  -4499546.86245  23998438.031    23998437.4684   23998450.2284
        -0.000          -0.000
   4391414.674 9   3376279.87747  22321034.234    22321033.5604   22321045.2464
        -0.000          -0.000
   8091983.759 9   6301031.90245  24541820.123    24541820.0914   24541835.0914
        -0.000          -0.000
 -14924914.939 9 -11615184.07748  20612592.303    20612592.3594   20612601.3744
        -0.000          -0.000
 -14216475.182 9 -11056927.69446  22743870.628    22743870.2474   22743884.3674
        -0.000          -0.000
   5501104.861 9   4284205.81748  21488882.447    21488881.7564   21488891.4024
        -0.000          -0.000
  -7394949.677 9  -5053137.23045  24116556.306    24116555.5864   24116569.2164
        -0.000          -0.000
 -13643094.432 9 -10610323.39048  21535023.702    21535023.4534   21535032.5054
        -0.000          -0.000
 99  4 14 18 26 30.0000000  0  8  8  2 26  4 24  7  5  9            -0.000000020
  -5903567.979 8  -4579646.47145  23978877.014    23978876.2594   23978889.0694
        -0.000          -0.000
   4443163.496 9   3416603.47047  22330881.834    22330881.1734   22330892.8724
        -0.000          -0.000
   8161870.310 9   6355488.67045  24555119.369    24555119.3344   24555134.4304
        -0.000          -0.000
 -14972115.538 9 -11651963.74748  20603610.340    20603610.3974   20603619.3734
        -0.000          -0.000
 -14318180.511 9 -11136178.43946  22724516.594    22724516.2654   22724530.3324
        -0.000          -0.000
   5556718.491 9   4327541.03048  21499465.479    21499464.7404   21499474.4074
        -0.000          -0.000
  -7478867.669 8  -5118527.75645  24100587.145    24100586.3014   24100599.8664
        -0.000          -0.000
 -13685539.606 9 -10643397.55448  21526946.666    21526946.4054   21526955.5054
        -0.000          -0.000
 99  4 14 18 27  0.0000000  0  8  8  2 26  4 24  7  5  9            -0.000000014
  -6006152.107 8  -4659582.12145  23959355.728    23959355.0444   23959367.9594
        -0.000          -0.000
   4495176.861 9   3457133.20647  22340779.712    22340779.0604   22340790.8064
        -0.000          -0.000
   8231775.494 8   6409959.97645  24568421.978    24568421.8654   24568437.2614
        -0.000          -0.000
 -15018806.186 9 -11688346.04848  20594725.387    20594725.4184   20594734.4054
        -0.000          -0.000
 -14419710.316 9 -11215292.41746  22705196.013    22705195.7004   22705209.7174
        -0.000          -0.000
   5612432.116 9   4370954.17048  21510067.530    21510066.7904   21510076.4454
        -0.000          -0.000
  -7562823.509 9  -5183947.79345  24084610.828    24084610.0914   24084623.5274
        -0.000          -0.000
 -13727489.633 9 -10676085.89148  21518963.798    21518963.5614   21518972.6654
        -0.000          -0.000
 99  4 14 18 27 30.0000000  0  8  8  2 26  4 24  7  5  9            -0.000000017
  -6108520.491 9  -4739349.64745  23939875.342    23939874.8004   23939887.9224
        -0.000          -0.000
   4547457.262 9   3497871.02147  22350728.481    22350727.8234   22350739.6244
        -0.000          -0.000
   8301708.678 8   6464453.08445  24581730.016    24581730.0724   24581745.3584
        -0.000          -0.000
 -15064951.790 9 -11724303.64348  20585944.136    20585944.1874   20585953.1744
        -0.000          -0.000
 -14521040.385 9 -11294250.76346  22685913.387    22685913.1104   22685927.1244
        -0.000          -0.000
   5668259.617 9   4414456.04248  21520691.196    21520690.4664   21520700.1704
        -0.000          -0.000
  -7646797.724 8  -5249382.13445  24068631.100    24068630.2354   24068643.6694
        -0.000          -0.000
 -13768921.420 9 -10708370.41048  21511079.590    21511079.3404   21511088.4304
        -0.000          -0.000
 99  4 14 18 28  0.0000000  0  8  8  2 26  4 24  7  5  9            -0.000000025
  -6210670.934 9  -4818947.36645  23920436.560    23920436.2064   23920449.3584
        -0.000          -0.000
   4600017.259 9   3538826.69147  22360730.452    22360729.7684   22360741.6064
        -0.000          -0.000
   8371696.574 9   6518988.81045  24595048.503    24595048.4624   24595063.9274
        -0.000          -0.000
 -15110519.883 9 -11759811.22948  20577272.795    20577272.8514   20577281.8554
        -0.000          -0.000
 -14622140.205 9 -11373029.69346  22666674.657    22666674.3684   22666688.3124
        -0.000          -0.000
   5724213.046 9   4458056.03248  21531338.758    21531338.0554   21531347.7704
        -0.000          -0.000
  -7730758.350 8  -5314805.91445  24052653.698    24052652.9064   24052666.4344
        -0.000          -0.000
 -13809810.970 9 -10740232.40448  21503298.529    21503298.3264   21503307.4134
        -0.000          -0.000
 99  4 14 18 28 30.0000000  0  8  8  2 26  4 24  7  5  9            -0.000000034
  -6312598.803 9  -4898371.65145  23901040.583    23901040.1354   23901053.0864
        -0.000          -0.000
   4652851.544 9   3579996.10447  22370784.605    22370783.9384   22370795.7454
        -0.000          -0.000
   8441733.412 8   6573562.68745  24608376.333    24608376.3264   24608391.7724
        -0.000          -0.000
 -15155505.122 9 -11794864.64448  20568712.396    20568712.4674   20568721.4694
        -0.000          -0.000
 -14723008.875 9 -11451628.50746  22647479.939    22647479.6264   22647493.5424
        -0.000          -0.000
   5780289.403 9   4501751.82548  21542009.859    21542009.1274   21542018.8574
        -0.000          -0.000
  -7814700.088 8  -5380214.95345  24036679.926    24036679.1534   24036692.7054
        -0.000          -0.000
 -13850171.228 9 -10771681.96148  21495618.282    21495618.0434   21495627.1434
        -0.000          -0.000
 99  4 14 18 29  0.0000000  0  8  8  2 26  4 24  7  5  9            -0.000000045
  -6414306.395 9  -4977624.27245  23881686.418    23881685.7934   23881698.6674
        -0.000          -0.000
   4705961.553 9   3621380.35947  22380891.222    22380890.5624   22380902.3854
        -0.000          -0.000
   8511800.743 8   6628160.32045  24621709.931    24621709.9054   24621725.5654
        -0.000          -0.000
 -15199917.313 9 -11829471.52548  20560261.033    20560261.0974   20560270.0834
        -0.000          -0.000
 -14823647.165 9 -11530047.80946  22628328.986    22628328.6044   22628342.5724
        -0.000          -0.000
   5836479.236 9   4545536.02748  21552702.507    21552701.7354   21552711.4984
        -0.000          -0.000
  -7898659.241 8  -5445637.57145  24020702.977    24020702.2844   24020715.6944
        -0.000          -0.000
 -13890022.120 9 -10802734.61748  21488034.841    21488034.6534   21488043.7664
        -0.000          -0.000
 99  4 14 18 29 30.0000000  0  8  8  2 26  4 24  7  5  9            -0.000000047
  -6515781.853 9  -5056696.03145  23862376.210    23862375.5114   23862388.3704
        -0.000          -0.000
   4759368.093 9   3662995.67847  22391054.247    22391053.6264   22391065.4994
        -0.000          -0.000
   8581897.369 9   6682780.77945  24635049.137    24635049.1304   24635064.8904
        -0.000          -0.000
 -15243743.777 9 -11863621.99848  20551921.120    20551921.1814   20551930.1734
        -0.000          -0.000
 -14924028.422 9 -11608266.82846  22609226.856    22609226.5394   22609240.4654
        -0.000          -0.000
   5892795.983 9   4589419.13048  21563419.257    21563418.4964   21563428.2974
        -0.000          -0.000
  -7982639.318 8  -5511076.48845  24004722.015    24004721.3274   24004734.8664
        -0.000          -0.000
 -13929364.719 9 -10833391.19548  21480548.254    21480548.0264   21480557.1354
        -0.000          -0.000
 99  4 14 18 30  0.0000000  0  8  8  2 26  4 24  7  5  9            -0.000000042
  -6617041.537 9  -5135599.65945  23843107.083    23843106.4514   23843119.1494
        -0.000          -0.000
   4813049.595 9   3704825.25447  22401269.675    22401269.0144   22401280.9774
        -0.000          -0.000
   8652012.293 8   6737415.48745  24648391.821    24648391.6534   24648407.6904
        -0.000          -0.000
 -15287022.210 9 -11897345.43048  20543685.480    20543685.5524   20543694.5564
        -0.000          -0.000
 -15024168.298 9 -11686297.76246  22590170.742    22590170.4514   22590184.3484
        -0.000          -0.000
   5949228.260 9   4633392.25548  21574157.971    21574157.2624   21574167.0974
        -0.000          -0.000
  -8066669.454 8  -5576554.42945  23988731.505    23988730.9274   23988744.4694
        -0.000          -0.000
 -13968229.708 9 -10863675.61548  21473152.510    21473152.2564   21473161.3464
        -0.000          -0.000
 99  4 14 18 30 30.0000000  0  8  8  2 26  4 24  7  5  9            -0.000000048
  -6718089.057 9  -5214337.97045  23823878.281    23823877.6634   23823890.3134
        -0.000          -0.000
   4866976.593 9   3746846.11547  22411531.721    22411531.0904   22411543.1054
        -0.000          -0.000
   8722111.312 8   6792037.81145  24661731.352    24661731.3574   24661747.3344
        -0.000          -0.000
 -15329773.740 9 -11930658.29148  20535550.109    20535550.1754   20535559.1684
        -0.000          -0.000
 -15124079.237 9 -11764150.30946  22571158.181    22571157.9434   22571171.7604
        -0.000          -0.000
   6005765.632 9   4677447.26848  21584916.716    21584916.0334   21584925.9404
        -0.000          -0.000
  -8150777.649 8  -5642093.20245  23972726.076    23972725.6184   23972738.9874
        -0.000          -0.000
 -14006631.349 9 -10893598.98148  21465844.889    21465844.6354   21465853.7124
        -0.000          -0.000
 99  4 14 18 31  0.0000000  0  8  8  2 26  4 24  7  5  9            -0.000000049
  -6818882.256 9  -5292878.09145  23804697.908    23804697.3214   23804710.0454
        -0.000          -0.000
   4921174.300 9   3789077.92847  22421845.369    22421844.7104   22421856.7744
        -0.000          -0.000
   8792228.792 8   6846674.51445  24675074.589    24675074.6114   24675090.5064
        -0.000          -0.000
 -15371947.711 9 -11963521.09948  20527524.640    20527524.7204   20527533.7264
        -0.000          -0.000
 -15223735.549 9 -11841804.44347  22552194.127    22552193.8714   22552207.6204
        -0.000          -0.000
   6062442.326 9   4721610.84448  21595702.035    21595701.2974   21595711.2544
        -0.000          -0.000
  -8234922.109 8  -5707660.23245  23956714.002    23956713.2824   23956726.7504
        -0.000          -0.000
 -14044524.854 9 -10923126.39248  21458633.934    21458633.6974   21458642.8164
        -0.000          -0.000
 99  4 14 18 31 30.0000000  0  8  8  2 26  4 24  7  5  9            -0.000000058
  -6919414.306 9  -5371214.73445  23785567.303    23785566.6754   23785579.2924
        -0.000          -0.000
   4975618.604 9   3831501.87947  22432205.867    22432205.1974   22432217.3184
        -0.000          -0.000
   8862356.547 8   6901319.21745  24688419.746    24688419.7124   24688435.7194
        -0.000          -0.000
 -15413537.799 9 -11995928.94148  20519610.292    20519610.3794   20519619.3954
        -0.000          -0.000
 -15323154.116 9 -11919273.33047  22533275.367    22533275.1194   22533288.8204
        -0.000          -0.000
   6119257.317 9   4765882.18148  21606513.611    21606512.8824   21606522.8414
        -0.000          -0.000
  -8319064.161 8  -5773225.37245  23940702.281    23940701.5784   23940714.9004
        -0.000          -0.000
 -14081903.011 9 -10952252.24648  21451521.179    21451520.9414   21451530.0324
        -0.000          -0.000
 99  4 14 18 32  0.0000000  0  8  8  2 26  4 24  7  5  9            -0.000000071
  -7019672.949 9  -5449338.31645  23766488.775    23766487.9834   23766500.5804
        -0.000          -0.000
   5030308.090 9   3874116.88147  22442613.070    22442612.3924   22442624.4984
        -0.000          -0.000
   8932490.095 8   6955968.43445  24701765.925    24701766.0134   24701781.8984
        -0.000          -0.000
 -15454538.863 9 -12027877.80148  20511808.079    20511808.1614   20511817.1564
        -0.000          -0.000
 -15422329.705 9 -11996552.87747  22514402.816    22514402.4944   22514416.2074
        -0.000          -0.000
   6176209.387 9   4810260.33348  21617351.332    21617350.6094   21617360.5614
        -0.000          -0.000
  -8403185.502 8  -5838774.39545  23924694.287    23924693.6304   23924707.2544
        -0.000          -0.000
 -14118757.707 9 -10980970.20548  21444508.049    21444507.7864   21444516.8484
        -0.000          -0.000
 99  4 14 18 32 30.0000000  0  8  8  2 26  4 24  7  5  9            -0.000000077
  -7119639.957 9  -5527234.65645  23747465.567    23747464.8334   23747477.5484
        -0.000          -0.000
   5085264.257 9   3916939.69647  22453071.009    22453070.3634   22453082.4674
        -0.000          -0.000
   9002631.087 8   7010623.41645  24715113.498    24715113.5134   24715129.4684
        -0.000          -0.000
 -15494936.707 9 -12059356.61448  20504120.593    20504120.6734   20504129.6874
        -0.000          -0.000
 -15521252.055 9 -12073635.10447  22495578.438    22495578.1454   22495591.7684
        -0.000          -0.000
   6233295.212 9   4854742.71548  21628214.443    21628213.7494   21628223.7014
        -0.000          -0.000
  -8487271.560 8  -5904295.90245  23908693.101    23908692.4664   23908706.1504
        -0.000          -0.000
 -14155084.254 9 -11009276.61548  21437595.296    21437595.0524   21437604.1264
        -0.000          -0.000
 99  4 14 18 33  0.0000000  0  8  8  2 26  4 24  7  5  9            -0.000000071
  -7219320.611 9  -5604907.86545  23728496.755    23728496.2744   23728508.7394
        -0.000          -0.000
   5140499.833 9   3959980.22747  22463582.118    22463581.4564   22463593.6054
        -0.000          -0.000
   9072780.591 8   7065285.05945  24728462.733    24728462.9214   24728478.6994
        -0.000          -0.000
 -15534734.236 9 -12090367.65748  20496547.359    20496547.4364   20496556.4484
        -0.000          -0.000
 -15619928.525 9 -12150525.74247  22476800.848    22476800.5854   22476814.0994
        -0.000          -0.000
   6290496.443 9   4899315.01848  21639099.481    21639098.8034   21639108.7814
        -0.000          -0.000
  -8571329.352 9  -5969795.40545  23892697.374    23892696.7304   23892710.4024
        -0.000          -0.000
 -14190889.524 9 -11037176.83948  21430781.818    21430781.5784   21430790.6544
        -0.000          -0.000
 99  4 14 18 33 30.0000000  0  8  8  2 26  4 24  7  5  9            -0.000000054
  -7318734.813 9  -5682373.43045  23709578.904    23709578.3504   23709591.0744
        -0.000          -0.000
   5196016.106 9   4003239.47947  22474146.707    22474146.0224   22474158.2504
        -0.000          -0.000
   9142926.139 8   7119943.64545  24741811.141    24741811.2104   24741827.1764
        -0.000          -0.000
 -15573965.040 9 -12120937.09348  20489081.987    20489082.0844   20489091.0714
        -0.000          -0.000
 -15718356.691 9 -12227222.88747  22458070.514    22458070.2124   22458083.6894
        -0.000          -0.000
   6347795.049 9   4943963.20248  21650003.073    21650002.4454   21650012.4564
        -0.000          -0.000
  -8655386.420 9  -6035294.34345  23876701.883    23876701.2844   23876714.7014
        -0.000          -0.000
 -14226192.388 9 -11064685.57748  21424063.883    21424063.6494   21424072.7404
        -0.000          -0.000
 99  4 14 18 34  0.0000000  0  8  8  2 26  4 24  7  5  9            -0.000000041
  -7417919.605 8  -5759660.22645  23690704.707    23690704.0664   23690716.7724
        -0.000          -0.000
   5251800.475 9   4046707.62847  22484762.219    22484761.5634   22484773.8484
        -0.000          -0.000
   9213045.890 8   7174582.11745  24755154.529    24755154.6734   24755170.9684
        -0.000          -0.000
 -15612663.104 9 -12151091.41248  20481717.946    20481718.0224   20481727.0014
        -0.000          -0.000
 -15816550.261 9 -12303737.24047  22439384.761    22439384.5074   22439397.9634
        -0.000          -0.000
   6405147.596 9   4988653.40848  21660916.972    21660916.3294   21660926.3534
        -0.000          -0.000
  -8739502.023 9  -6100838.87145  23860695.092    23860694.6154   23860707.8764
        -0.000          -0.000
 -14261018.070 9 -11091822.48548  21417436.785    21417436.5574   21417445.6874
        -0.000          -0.000
 99  4 14 18 34 30.0000000  0  8  8  2 26  4 24  7  5  9            -0.000000028
  -7516852.037 8  -5836750.39345  23671878.571    23671877.7094   23671890.4164
        -0.000          -0.000
   5307870.700 9   4090398.52747  22495432.188    22495431.5374   22495443.7904
        -0.000          -0.000
   9283149.680 8   7229208.12645  24768495.008    24768495.1474   24768511.9204
        -0.000          -0.000
 -15650812.819 9 -12180818.44748  20474458.301    20474458.3684   20474467.3654
        -0.000          -0.000
 -15914501.587 9 -12380062.82947  22420745.124    22420744.8714   22420758.3074
        -0.000          -0.000
   6462561.930 9   5033391.75448  21671842.719    21671842.0164   21671852.0344
        -0.000          -0.000
  -8823663.425 9  -6166419.09845  23844679.660    23844679.2024   23844692.5324
        -0.000          -0.000
 -14295334.089 9 -11118562.25948  21410906.647    21410906.4184   21410915.5544
        -0.000          -0.000
 99  4 14 18 35  0.0000000  0  8  8  2 26  4 24  7  5  9            -0.000000025
  -7615527.781 8  -5913640.53645  23653101.162    23653100.3204   23653112.9654
        -0.000          -0.000
   5364219.164 9   4134306.23447  22506155.077    22506154.4234   22506166.6894
        -0.000          -0.000
   9353228.676 8   7283814.83845  24781830.916    24781831.0754   24781847.7574
        -0.000          -0.000
 -15688417.206 9 -12210120.54548  20467302.365    20467302.4514   20467311.4494
        -0.000          -0.000
 -16012212.026 9 -12456200.71747  22402151.321    22402151.0944   22402164.5164
        -0.000          -0.000
   6520034.997 9   5078175.87748  21682779.554    21682778.8544   21682788.8784
        -0.000          -0.000
  -8907867.281 9  -6232032.42245  23828656.150    23828655.5954   23828669.0744
        -0.000          -0.000
 -14329124.622 9 -11144892.55348  21404476.550    21404476.3194   21404485.4684
        -0.000          -0.000
 99  4 14 18 35 30.0000000  0  8  8  2 26  4 24  7  5  9            -0.000000033
  -7713925.832 8  -5990314.29245  23634376.322    23634375.7724   23634388.5294
        -0.000          -0.000
   5420841.366 9   4178427.23747  22516930.058    22516929.4244   22516941.7474
        -0.000          -0.000
   9423285.656 8   7338404.37045  24795162.663    24795162.6854   24795179.4034
        -0.000          -0.000
 -15725468.550 9 -12238991.70548  20460251.730    20460251.8124   20460260.7914
        -0.000          -0.000
 -16109675.603 9 -12532146.25247  22383604.481    22383604.3034   22383617.6844
        -0.000          -0.000
   6577584.223 9   5123019.34448  21693730.884    21693730.1834   21693740.2354
        -0.000          -0.000
  -8992103.243 8  -6297670.76645  23812626.576    23812626.0424   23812639.3164
        -0.000          -0.000
 -14362368.362 9 -11170796.77748  21398150.478    21398150.2494   21398159.4094
        -0.000          -0.000
 99  4 14 18 36  0.0000000  0  8  8  2 26  4 24  7  5  9            -0.000000043
  -7812009.212 8  -6066742.84245  23615711.616    23615711.1834   23615723.8344
        -0.000          -0.000
   5477748.976 9   4222770.64847  22527759.351    22527758.6974   22527771.1014
        -0.000          -0.000
   9493342.831 8   7392994.06745  24808494.468    24808494.5164   24808511.2464
        -0.000          -0.000
 -15761933.561 9 -12267405.97348  20453312.697    20453312.7664   20453321.7464
        -0.000          -0.000
 -16206875.997 9 -12607886.70147  22365107.796    22365107.5594   22365120.8854
        -0.000          -0.000
   6635242.177 9   5167947.53348  21704702.883    21704702.1774   21704712.2464
        -0.000          -0.000
  -9076333.292 9  -6363304.47245  23796598.012    23796597.5484   23796610.7564
        -0.000          -0.000
 -14395021.898 9 -11196241.09348  21391936.722    21391936.4714   21391945.6484
        -0.000          -0.000
 99  4 14 18 36 30.0000000  0  8  8  2 26  4 24  7  5  9            -0.000000061
  -7909782.934 8  -6142930.09445  23597105.925    23597105.4444   23597117.9694
        -0.000          -0.000
   5534921.224 9   4267320.25547  22538638.964    22538638.3854   22538650.8384
        -0.000          -0.000
   9563387.859 8   7447574.31545  24821823.711    24821823.6094   24821840.7864
        -0.000          -0.000
 -15797818.364 9 -12295368.13748  20446484.026    20446484.0944   20446493.0814
        -0.000          -0.000
 -16303826.289 9 -12683432.27447  22346658.750    22346658.4514   22346671.7704
        -0.000          -0.000
   6693015.883 9   5212965.92348  21715696.940    21715696.2264   21715706.3094
        -0.000          -0.000
  -9160556.430 9  -6428932.80845  23780570.879    23780570.2644   23780583.4714
        -0.000          -0.000
 -14427099.220 9 -11221236.42648  21385832.622    21385832.3964   21385841.5524
        -0.000          -0.000
 99  4 14 18 37  0.0000000  0  8  8  2 26  4 24  7  5  9            -0.000000072
  -8007240.895 8  -6218871.29945  23578560.274    23578559.7834   23578572.3804
        -0.000          -0.000
   5592375.634 9   4312089.74047  22549572.385    22549571.7864   22549584.2394
        -0.000          -0.000
   9633451.970 8   7502169.41945  24835156.626    24835156.4294   24835173.7904
        -0.000          -0.000
 -15833103.049 9 -12322862.67848  20439769.536    20439769.6024   20439778.5954
        -0.000          -0.000
 -16400499.828 9 -12758762.18647  22328262.310    22328261.9874   22328275.2494
        -0.000          -0.000
   6750931.834 9   5258095.14948  21726718.049    21726717.3264   21726727.3924
        -0.000          -0.000
  -9244766.570 9  -6494551.01745  23764546.235    23764545.6274   23764558.8224
        -0.000          -0.000
 -14458596.200 9 -11245779.54448  21379838.928    21379838.6964   21379847.8864
        -0.000          -0.000
 99  4 14 18 37 30.0000000  0  7  8  2  4 24  7  5  9               -0.000000011
  -8104412.101 9  -6294589.06645  23560069.261    23560068.8144   23560081.4044
        -0.000          -0.000
   5650090.431 9   4357062.11647  22560555.285    22560554.6734   22560567.1774
        -0.000          -0.000
 -15867797.557 9 -12349897.34148  20433167.364    20433167.4434   20433176.4324
        -0.000          -0.000
 -16496897.184 9 -12833876.88747  22309918.400    22309918.1554   22309931.3784
        -0.000          -0.000
   6808984.765 9   5303331.10548  21737765.184    21737764.4994   21737774.5584
        -0.000          -0.000
  -9328982.757 9  -6560173.93145  23748520.431    23748519.7224   23748532.9284
        -0.000          -0.000
 -14489540.357 9 -11269891.88648  21373950.457    21373950.2624   21373959.4114
        -0.000          -0.000
 99  4 14 18 38  0.0000000  0  7  8  2  4 24  7  5  9               -0.000000044
  -8201321.665 8  -6370102.94245  23541627.759    23541627.2714   23541640.0544
        -0.000          -0.000
   5708067.464 9   4402238.83347  22571588.116    22571587.5054   22571600.0104
        -0.000          -0.000
 -15901902.601 9 -12376472.67848  20426677.376    20426677.4564   20426686.4494
        -0.000          -0.000
 -16593019.949 9 -12908777.62447  22291626.775    22291626.5184   22291639.7184
        -0.000          -0.000
   6867152.431 9   5348656.47148  21748834.179    21748833.5064   21748843.6244
        -0.000          -0.000
  -9413208.930 9  -6625804.64245  23732492.595    23732491.9784   23732505.1574
        -0.000          -0.000
 -14519962.650 9 -11293597.58648  21368161.338    21368161.1004   21368170.2634
        -0.000          -0.000
 99  4 14 18 38 30.0000000  0  7  8  2  4 24  7  5  9               -0.000000065
  -8297942.332 9  -6445391.73245  23523241.193    23523240.8994   23523253.8054
        -0.000          -0.000
   5766343.430 9   4447648.47647  22582677.817    22582677.2084   22582689.7454
        -0.000          -0.000
 -15935389.724 9 -12402566.51948  20420305.002    20420305.0574   20420314.0454
        -0.000          -0.000
 -16688836.469 9 -12983439.71847  22273393.406    22273393.1114   22273406.3384
        -0.000          -0.000
   6925443.293 9   5394077.83348  21759926.596    21759925.9474   21759936.1114
        -0.000          -0.000
  -9497428.296 9  -6691430.04845  23716466.073    23716465.3934   23716478.5714
        -0.000          -0.000
 -14549853.393 9 -11316889.09048  21362473.285    21362473.0684   21362482.2504
        -0.000          -0.000
 99  4 14 18 39  0.0000000  0  7  8  2  4 24  7  5  9               -0.000000071
  -8394276.141 9  -6520456.98746  23504909.512    23504909.2014   23504921.9694
        -0.000          -0.000
   5824921.039 9   4493293.16347  22593824.859    22593824.2314   22593836.9054
        -0.000          -0.000
 -15968265.818 9 -12428184.24348  20414048.832    20414048.9184   20414057.9074
        -0.000          -0.000
 -16784358.399 9 -13057872.28247  22255216.093    22255215.8154   22255229.0234
        -0.000          -0.000
   6983831.637 9   5439575.15448  21771037.578    21771036.9544   21771047.1244
        -0.000          -0.000
  -9581640.918 9  -6757050.20446  23700440.920    23700440.2474   23700453.3974
        -0.000          -0.000
 -14579222.681 9 -11339774.26348  21356884.556    21356884.3274   21356893.4944
        -0.000          -0.000
 99  4 14 18 39 30.0000000  0  7  8  2  4 24  7  5  9               -0.000000070
  -8490323.133 9  -6595298.74846  23486632.326    23486631.9634   23486644.8814
        -0.000          -0.000
   5883794.204 9   4539168.15547  22605028.131    22605027.5154   22605040.2734
        -0.000          -0.000
 -16000534.963 9 -12453329.01849  20407908.204    20407908.2994   20407917.2894
        -0.000          -0.000
 -16879604.306 9 -13132089.74847  22237091.316    22237091.0624   22237104.2264
        -0.000          -0.000
   7042295.539 9   5485131.34947  21782162.977    21782162.3234   21782172.5124
        -0.000          -0.000
  -9665853.466 9  -6822670.30446  23684415.911    23684415.1614   23684428.2154
        -0.000          -0.000
 -14608071.383 9 -11362253.78148  21351394.858    21351394.6274   21351403.8074
        -0.000          -0.000
 99  4 14 18 40  0.0000000  0  7  8  2  4 24  7  5  9               -0.000000065
  -8586064.068 9  -6669902.03046  23468413.521    23468412.9964   23468425.8534
        -0.000          -0.000
   5942970.631 9   4585279.45147  22616289.134    22616288.5394   22616301.4084
        -0.000          -0.000
 -16032191.460 9 -12477996.40949  20401884.223    20401884.2894   20401893.2234
        -0.000          -0.000
 -16974577.916 9 -13206095.03647  22219018.331    22219018.1044   22219031.2104
        -0.000          -0.000
   7100832.155 9   5530744.19847  21793302.180    21793301.5414   21793311.7424
        -0.000          -0.000
  -9750063.333 9  -6888288.31646  23668391.393    23668390.5244   23668403.6444
        -0.000          -0.000
 -14636377.977 9 -11384310.87948  21346008.258    21346008.0364   21346017.2114
        -0.000          -0.000
 99  4 14 18 40 30.0000000  0  7  8  2  4 24  7  5  9               -0.000000057
  -8681484.321 9  -6744255.42445  23450255.532    23450255.1164   23450267.9374
        -0.000          -0.000
   6002446.020 9   4631623.70747  22627607.127    22627606.4944   22627619.3524
        -0.000          -0.000
 -16063246.085 9 -12502194.80649  20395974.695    20395974.7614   20395983.6804
        -0.000          -0.000
 -17069281.381 9 -13279889.82747  22200996.828    22200996.5604   22201009.6374
        -0.000          -0.000
   7159456.769 9   5576425.62947  21804458.147    21804457.4684   21804467.7194
        -0.000          -0.000
  -9834267.130 9  -6953901.58846  23652367.864    23652366.9874   23652380.0934
        -0.000          -0.000
 -14664126.895 9 -11405933.42048  21340727.780    21340727.5724   21340736.7404
        -0.000          -0.000
 99  4 14 18 41  0.0000000  0  7  8  2  4 24  7  5  9               -0.000000054
  -8776589.149 9  -6818363.02746  23432157.585    23432157.1554   23432170.0734
        -0.000          -0.000
   6062217.921 9   4678198.99847  22638981.563    22638980.8894   22638993.7364
        -0.000          -0.000
 -16093695.343 9 -12525921.49849  20390180.375    20390180.4324   20390189.3684
        -0.000          -0.000
 -17163709.398 9 -13353469.98047  22183027.737    22183027.4404   22183040.4584
        -0.000          -0.000
   7218184.867 9   5622187.68547  21815633.818    21815633.1314   21815643.4524
        -0.000          -0.000
  -9918465.387 9  -7019510.55846  23636345.421    23636344.6794   23636357.5424
        -0.000          -0.000
 -14691308.605 9 -11427113.98948  21335555.305    21335555.0934   21335564.2774
        -0.000          -0.000
 99  4 14 18 41 30.0000000  0  7  8  2  4 24  7  5  9               -0.000000054
  -8871368.455 9  -6892216.98646  23414121.739    23414121.2814   23414134.1064
        -0.000          -0.000
   6122284.758 9   4725004.12347  22650412.038    22650411.3964   22650424.2614
        -0.000          -0.000
 -16123535.070 9 -12549173.22349  20384502.014    20384502.1234   20384511.0614
        -0.000          -0.000
 -17257836.212 9 -13426815.41547  22165115.894    22165115.6104   22165128.6124
        -0.000          -0.000
   7277036.874 9   5668046.30647  21826833.038    21826832.3684   21826842.7304
        -0.000          -0.000
 -10002641.588 9  -7085102.33346  23620327.121    23620326.5084   23620339.2044
        -0.000          -0.000
 -14717899.605 9 -11447834.25448  21330495.169    21330494.9464   21330504.1444
        -0.000          -0.000
 99  4 14 18 42  0.0000000  0  7  8  2  4 24  7  5  9               -0.000000055
  -8965837.589 9  -6965829.24746  23396144.872    23396144.3064   23396157.2254
        -0.000          -0.000
   6182625.577 9   4772022.72447  22661894.681    22661894.0274   22661906.9624
        -0.000          -0.000
 -16152796.130 9 -12571974.04349  20378933.830    20378933.9384   20378942.8754
        -0.000          -0.000
 -17351668.045 9 -13499931.01147  22147260.135    22147259.9214   22147272.8024
        -0.000          -0.000
   7336002.780 9   5713993.67547  21838053.930    21838053.2504   21838063.6534
        -0.000          -0.000
 -10086792.333 9  -7150674.26646  23604313.773    23604313.1644   23604325.7764
        -0.000          -0.000
 -14743922.474 9 -11468111.82648  21325543.246    21325543.0144   21325552.2034
        -0.000          -0.000
 99  4 14 18 42 30.0000000  0  7  8  2  4 24  7  5  9               -0.000000049
  -9060009.793 9  -7039210.14446  23378224.429    23378223.9724   23378236.8834
        -0.000          -0.000
   6243237.417 9   4819252.50447  22673428.842    22673428.2024   22673441.2934
        -0.000          -0.000
 -16181505.409 9 -12594344.90249  20373470.669    20373470.7704   20373479.6534
        -0.000          -0.000
 -17445209.073 9 -13572820.01247  22129459.827    22129459.5844   22129472.4214
        -0.000          -0.000
   7395066.231 9   5760017.05347  21849293.428    21849292.7304   21849303.1384
        -0.000          -0.000
 -10170924.163 9  -7216231.47246  23588303.999    23588303.3574   23588315.9244
        -0.000          -0.000
 -14769404.574 9 -11487968.01648  21320694.182    21320693.9514   21320703.1154
        -0.000          -0.000
 99  4 14 18 43  0.0000000  0  7  8  2  4 24  7  5  9               -0.000000043
  -9153903.879 9  -7112374.32246  23360356.989    23360356.4424   23360369.2874
        -0.000          -0.000
   6304100.930 9   4866678.40747  22685010.973    22685010.3244   22685023.4044
        -0.000          -0.000
 -16209679.593 9 -12616298.80549  20368109.291    20368109.3714   20368118.2724
        -0.000          -0.000
 -17538464.759 9 -13645486.65747  22111713.761    22111713.4804   22111726.3154
        -0.000          -0.000
   7454190.736 9   5806088.00247  21860544.557    21860543.8104   21860554.2244
        -0.000          -0.000
 -10255057.848 9  -7281790.11646  23572293.750    23572293.1624   23572305.8344
        -0.000          -0.000
 -14794363.935 9 -11507416.88448  21315944.573    21315944.3494   21315953.5304
        -0.000          -0.000
 99  4 14 18 43 30.0000000  0  7  8  2  4 24  7  5  9               -0.000000033
  -9247517.696 9  -7185320.09346  23342542.872    23342542.2444   23342555.1614
        -0.000          -0.000
   6365206.037 9   4914292.57847  22696639.098    22696638.3944   22696651.5654
        -0.000          -0.000
 -16237330.697 9 -12637845.11249  20362847.457    20362847.5444   20362856.4504
        -0.000          -0.000
 -17631433.511 9 -13717929.71747  22094022.260    22094021.9874   22094034.8244
        -0.000          -0.000
   7513357.597 9   5852191.95747  21871803.729    21871802.9464   21871813.3654
        -0.000          -0.000
 -10339189.574 9  -7347347.24046  23556283.912    23556283.3944   23556296.0494
        -0.000          -0.000
 -14818812.989 9 -11526468.10448  21311292.087    21311291.8804   21311301.0734
        -0.000          -0.000
 99  4 14 18 44  0.0000000  0  7  8  2  4 24  7  5  9               -0.000000022
  -9340853.568 9  -7258049.28246  23324781.621    23324780.9804   23324793.8544
        -0.000          -0.000
   6426551.588 9   4962094.08746  22708312.855    22708312.2124   22708325.4584
        -0.000          -0.000
 -16264465.129 9 -12658988.81849  20357683.948    20357684.0594   20357692.9504
        -0.000          -0.000
 -17724133.312 9 -13790163.19547  22076382.050    22076381.7594   22076394.5494
        -0.000          -0.000
   7572536.753 9   5898305.49847  21883065.253    21883064.5094   21883074.8734
        -0.000          -0.000
 -10423354.372 9  -7412930.12646  23540267.897    23540267.3224   23540279.9494
        -0.000          -0.000
 -14842783.748 9 -11545146.62848  21306730.586    21306730.3784   21306739.5894
        -0.000          -0.000
 99  4 14 18 44 30.0000000  0  7  8  2  4 24  7  5  9               -0.000000014
  -9433892.291 9  -7330546.94146  23307076.707    23307076.1774   23307089.0934
        -0.000          -0.000
   6488155.473 9   5010096.90046  22720035.847    22720035.1864   22720048.4604
        -0.000          -0.000
 -16291039.668 9 -12679696.23949  20352627.006    20352627.0894   20352635.9704
        -0.000          -0.000
 -17816549.523 9 -13862175.70447  22058795.709    22058795.4444   22058808.1584
        -0.000          -0.000
   7631739.229 9   5944437.21147  21894331.216    21894330.4604   21894340.8474
        -0.000          -0.000
 -10507553.021 9  -7478539.39346  23524245.483    23524244.8444   23524257.3564
        -0.000          -0.000
 -14866255.001 9 -11563435.93148  21302264.174    21302263.9794   21302273.1854
        -0.000          -0.000
 99  4 14 18 45  0.0000000  0  7  8  2  4 24  7  5  9               -0.000000012
  -9526611.530 9  -7402795.61646  23289432.710    23289432.1224   23289445.0844
        -0.000          -0.000
   6550027.669 9   5058308.78246  22731809.894    22731809.2264   22731822.5964
        -0.000          -0.000
 -16317016.747 9 -12699938.11349  20347683.710    20347683.8024   20347692.6714
        -0.000          -0.000
 -17908677.124 9 -13933963.32347  22041264.300    22041264.0414   22041276.7584
        -0.000          -0.000
   7690984.344 9   5990602.14047  21905605.250    21905604.5054   21905614.8884
        -0.000          -0.000
 -10591773.271 9  -7544165.47846  23508218.845    23508218.1594   23508230.6214
        -0.000          -0.000
 -14889211.602 9 -11581324.20648  21297895.699    21297895.4744   21297904.6794
        -0.000          -0.000
 99  4 14 18 45 30.0000000  0  7  8  2  4 24  7  5  9               -0.000000013
  -9618989.508 9  -7474778.38746  23271853.740    23271853.0524   23271866.1594
        -0.000          -0.000
   6612186.724 9   5106744.17946  22743638.511    22743637.8474   22743651.2664
        -0.000          -0.000
 -16342368.775 9 -12719692.94049  20342859.341    20342859.4514   20342868.3384
        -0.000          -0.000
 -18000499.453 9 -14005513.07747  22023791.006    22023790.7274   22023803.4004
        -0.000          -0.000
   7750301.249 9   6036823.01447  21916892.959    21916892.2114   21916902.6084
        -0.000          -0.000
 -10676000.308 9  -7609796.85446  23492190.882    23492190.2954   23492202.7174
        -0.000          -0.000
 -14911633.795 9 -11598796.06548  21293628.919    21293628.6884   21293637.9164
        -0.000          -0.000
 99  4 14 18 46  0.0000000  0  7  8  2  4 24  7  5  9               -0.000000016
  -9711012.004 9  -7546484.16746  23254342.391    23254341.8144   23254354.7334
        -0.000          -0.000
   6674650.532 9   5155417.06046  22755525.108    22755524.4984   22755537.9514
        -0.000          -0.000
 -16367069.577 9 -12738940.31249  20338158.941    20338159.0354   20338167.9074
        -0.000          -0.000
 -18092010.739 9 -14076820.45947  22006376.899    22006376.6424   22006389.2854
        -0.000          -0.000
   7809715.805 9   6083119.98347  21928199.247    21928198.5144   21928208.9494
        -0.000          -0.000
 -10760218.925 9  -7675421.66746  23476164.505    23476163.9604   23476176.3854
        -0.000          -0.000
 -14933496.343 9 -11615831.82848  21289468.586    21289468.3884   21289477.6184
        -0.000          -0.000
 99  4 14 18 46 30.0000000  0  7  8  2  4 24  7  5  9               -0.000000019
  -9802677.398 9  -7617911.69046  23236899.014    23236898.5004   23236911.3474
        -0.000          -0.000
   6737414.990 9   5204324.20946  22767469.011    22767468.3794   22767481.8834
        -0.000          -0.000
 -16391116.321 9 -12757678.03049  20333583.051    20333583.1534   20333592.0104
        -0.000          -0.000
 -18183194.341 9 -14147872.50247  21989025.149    21989024.8654   21989037.5014
        -0.000          -0.000
   7869241.937 9   6129503.89047  21939526.743    21939526.0024   21939536.4994
        -0.000          -0.000
 -10844395.405 9  -7741013.64646  23460146.098    23460145.5194   23460158.0814
        -0.000          -0.000
 -14954778.114 9 -11632415.04148  21285418.825    21285418.6314   21285427.8534
        -0.000          -0.000
 99  4 14 18 47  0.0000000  0  7  8  2  4 24  7  5  9               -0.000000017
  -9893987.455 9  -7689062.29946  23219523.367    23219522.8284   23219535.5924
        -0.000          -0.000
   6800466.700 9   5253455.18646  22779467.566    22779466.9034   22779480.4104
        -0.000          -0.000
 -16414529.355 9 -12775921.94449  20329127.686    20329127.7684   20329136.6474
        -0.000          -0.000
 -18274033.845 9 -14218656.42047  21971738.912    21971738.6224   21971751.2434
        -0.000          -0.000
   7928873.235 9   6175969.74847  21950874.238    21950873.4964   21950884.0144
        -0.000          -0.000
 -10928527.624 9  -7806571.12846  23444136.193    23444135.5534   23444148.1054
        -0.000          -0.000
 -14975485.868 9 -11648550.96948  21281478.282    21281478.0694   21281487.3074
        -0.000          -0.000
 99  4 14 18 47 30.0000000  0  7  8  2  4 24  7  5  9               -0.000000005
  -9984940.486 9  -7759934.71546  23202215.586    23202214.9704   23202227.8344
        -0.000          -0.000
   6863802.559 9   5302807.59046  22791520.113    22791519.4594   22791533.0374
        -0.000          -0.000
 -16437312.238 9 -12793674.84149  20324792.235    20324792.3194   20324801.2024
        -0.000          -0.000
 -18364509.573 9 -14289156.88647  21954521.877    21954521.6114   21954534.1674
        -0.000          -0.000
   7988606.783 9   6222515.28347  21962241.187    21962240.4474   21962251.0304
        -0.000          -0.000
 -11012604.690 9  -7872085.64046  23428136.648    23428136.1884   23428148.5744
        -0.000          -0.000
 -14995609.133 9 -11664231.46048  21277648.928    21277648.7504   21277658.0014
        -0.000          -0.000
 99  4 14 18 48  0.0000000  0  7  8  2  4 24  7  5  9               -0.000000003
 -10075569.920 9  -7830554.97546  23184969.276    23184968.6604   23184981.5634
        -0.000          -0.000
   6927389.859 9   5352355.90746  22803620.507    22803619.8924   22803633.4894
        -0.000          -0.000
 -16459500.920 9 -12810964.71549  20320569.845    20320569.9424   20320578.8224
        -0.000          -0.000
 -18454661.318 9 -14359404.88847  21937366.525    21937366.2474   21937378.7514
        -0.000          -0.000
   8048402.476 9   6269109.23947  21973619.878    21973619.2404   21973629.8834
        -0.000          -0.000
 -11096650.346 9  -7937575.67546  23412143.301    23412142.6814   23412155.1254
        -0.000          -0.000
 -15015185.274 9 -11679485.61648  21273923.808    21273923.6094   21273932.8384
        -0.000          -0.000
 99  4 14 18 48 30.0000000  0  7  8  2  4 24  7  5  9               -0.000000005
 -10165861.936 9  -7900912.32146  23167787.173    23167786.6854   23167799.4294
        -0.000          -0.000
   6991235.079 9   5402105.21846  22815769.898    22815769.2724   22815782.9754
        -0.000          -0.000
 -16481091.143 9 -12827788.25349  20316461.341    20316461.4474   20316470.3324
        -0.000          -0.000
 -18544471.830 9 -14429387.00647  21920276.084    21920275.8094   21920288.3024
        -0.000          -0.000
   8108261.049 9   6315752.19647  21985010.580    21985009.9644   21985020.7064
        -0.000          -0.000
 -11180667.386 9  -8003043.42146  23396155.275    23396154.6804   23396167.1524
        -0.000          -0.000
 -15034204.102 9 -11694305.50048  21270304.659    21270304.4654   21270313.6764
        -0.000          -0.000
 99  4 14 18 49  0.0000000  0  7  8  2  4 24  7  5  9               -0.000000002
 -10255793.158 9  -7970988.51846  23150673.885    23150673.3134   23150686.0564
        -0.000          -0.000
   7055366.279 9   5452077.34446  22827973.804    22827973.2424   22827987.0014
        -0.000          -0.000
 -16502062.125 9 -12844129.27549  20312470.670    20312470.7794   20312479.6934
        -0.000          -0.000
 -18633929.255 9 -14499093.98047  21903252.843    21903252.5144   21903265.0384
        -0.000          -0.000
   8168214.593 9   6362469.15247  21996419.496    21996418.8564   21996429.6354
        -0.000          -0.000
 -11264653.871 9  -8068487.36646  23380173.066    23380172.5434   23380184.9664
        -0.000          -0.000
 -15052648.899 9 -11708678.09548  21266794.758    21266794.5544   21266803.7624
        -0.000          -0.000
 99  4 14 18 49 30.0000000  0  7  8  2  4 24  7  5  9               -0.000000005
 -10345365.555 9  -8040785.10546  23133628.872    23133628.2234   23133640.9574
        -0.000          -0.000
   7119781.081 9   5502270.46446  22840231.837    22840231.2374   22840245.0064
        -0.000          -0.000
 -16522425.430 9 -12859996.78049  20308595.634    20308595.7324   20308604.6844
        -0.000          -0.000
 -18723058.374 9 -14568545.13647  21886291.993    21886291.6964   21886304.2504
        -0.000          -0.000
   8228260.527 9   6409258.10647  22007845.915    22007845.2364   22007856.0014
        -0.000          -0.000
 -11348620.232 9  -8133915.62346  23364194.797    23364194.2664   23364206.6914
        -0.000          -0.000
 -15070517.303 9 -11722601.55348  21263394.509    21263394.2994   21263403.5414
        -0.000          -0.000
 99  4 14 18 50  0.0000000  0  7  8  2  4 24  7  5  9               -0.000000015
 -10434571.275 9  -8110295.97446  23116653.452    23116652.8044   23116665.6084
        -0.000          -0.000
   7184474.298 9   5552680.53846  22852542.684    22852542.1044   22852555.9254
        -0.000          -0.000
 -16542192.386 9 -12875399.59949  20304834.109    20304834.2364   20304843.1744
        -0.000          -0.000
 -18811865.333 9 -14637745.25947  21869392.505    21869392.1954   21869404.7134
        -0.000          -0.000
   8288398.320 9   6456118.63447  22019289.813    22019289.1134   22019299.8844
        -0.000          -0.000
 -11432571.855 9  -8199332.38446  23348219.221    23348218.6054   23348231.1964
        -0.000          -0.000
 -15087807.925 9 -11736074.78948  21260104.232    21260103.9964   21260113.2414
        -0.000          -0.000
 99  4 14 18 50 30.0000000  0  7  8  2  4 24  7  5  9               -0.000000020
 -10523395.662 9  -8179509.71246  23099750.611    23099750.0164   23099762.8194
        -0.000          -0.000
   7249452.741 9   5603312.85646  22864907.767    22864907.1744   22864921.1324
        -0.000          -0.000
 -16561357.613 9 -12890333.53949  20301187.130    20301187.2404   20301196.1504
        -0.000          -0.000
 -18900324.023 9 -14706674.00447  21852559.298    21852558.9784   21852571.5034
        -0.000          -0.000
   8348639.678 9   6503059.86147  22030753.397    22030752.7074   22030763.4704
        -0.000          -0.000
 -11516499.908 9  -8264730.78346  23332248.151    23332247.5414   23332260.1274
        -0.000          -0.000
 -15104516.362 9 -11749094.38148  21256924.690    21256924.4474   21256933.6974
        -0.000          -0.000
 99  4 14 18 51  0.0000000  0  7  8  2  4 24  7  5  9               -0.000000014
 -10611836.004 9  -8248424.19746  23082920.955    23082920.3974   23082933.1544
        -0.000          -0.000
   7314713.652 9   5654165.28146  22877326.668    22877326.0864   22877340.0874
        -0.000          -0.000
 -16579915.444 9 -12904794.18149  20297655.729    20297655.8354   20297664.7034
        -0.000          -0.000
 -18988427.957 9 -14775326.31747  21835793.582    21835793.2754   21835805.7634
        -0.000          -0.000
   8408990.387 9   6550086.28847  22042237.860    22042237.1864   22042247.9414
        -0.000          -0.000
 -11600385.237 9  -8330095.88246  23316285.242    23316284.6624   23316297.1384
        -0.000          -0.000
 -15120647.321 9 -11761663.99448  21253855.095    21253854.8724   21253864.1134
        -0.000          -0.000
 99  4 14 18 51 30.0000000  0  7  8  2  4 24  7  5  9               -0.000000024
 -10699936.151 9  -8317073.58446  23066156.062    23066155.4834   23066168.1524
        -0.000          -0.000
   7380212.678 9   5705203.24046  22889790.986    22889790.3284   22889804.4184
        -0.000          -0.000
 -16597906.830 9 -12918813.43649  20294232.057    20294232.1654   20294241.0034
        -0.000          -0.000
 -19076214.370 9 -14843731.20747  21819088.268    21819088.0004   21819100.4274
        -0.000          -0.000
   8469384.859 9   6597146.83247  22053730.674    22053729.9904   22053740.7514
        -0.000          -0.000
 -11684258.351 9  -8395451.47946  23300324.577    23300324.1014   23300336.5214
        -0.000          -0.000
 -15136239.807 9 -11773814.01148  21250887.941    21250887.7074   21250896.9464
        -0.000          -0.000
 99  4 14 18 52  0.0000000  0  7  8  2  4 24  7  5  9               -0.000000035
 -10787691.678 9  -8385454.44046  23049456.711    23049456.1144   23049468.7594
        -0.000          -0.000
   7445974.763 9   5756446.18646  22902305.255    22902304.5954   22902318.7624
        -0.000          -0.000
 -16615302.105 9 -12932368.19349  20290921.849    20290921.9674   20290930.8104
        -0.000          -0.000
 -19163664.400 9 -14911873.98447  21802446.963    21802446.7004   21802459.1064
        -0.000          -0.000
   8529829.151 9   6644246.17747  22065232.920    22065232.2374   22065243.0484
        -0.000          -0.000
 -11768088.715 9  -8460773.75046  23284372.243    23284371.6954   23284384.0384
        -0.000          -0.000
 -15151287.668 9 -11785539.64548  21248024.412    21248024.1894   21248033.4544
        -0.000          -0.000
 99  4 14 18 52 30.0000000  0  7  8  2  4 24  7  5  9               -0.000000051
 -10875100.384 9  -8453565.06846  23032823.315    23032822.7794   23032835.2614
        -0.000          -0.000
   7512023.879 9   5807912.78246  22914874.158    22914873.4934   22914887.6854
        -0.000          -0.000
 -16632076.839 9 -12945439.41049  20287729.715    20287729.8174   20287738.6634
        -0.000          -0.000
 -19250778.155 9 -14979754.72647  21785869.747    21785869.4774   21785881.8264
        -0.000          -0.000
   8590326.938 9   6691387.21747  22076745.395    22076744.7274   22076755.5294
        -0.000          -0.000
 -11851873.261 9  -8526060.32546  23268428.461    23268427.9924   23268440.3614
        -0.000          -0.000
 -15165777.004 9 -11796830.06648  21245267.187    21245266.9774   21245276.2414
        -0.000          -0.000
 99  4 14 18 53  0.0000000  0  7  8  2  4 24  7  5  9               -0.000000061
 -10962128.829 9  -8521379.37146  23016262.384    23016261.7644   23016274.2634
        -0.000          -0.000
   7578387.948 9   5859624.79946  22927503.107    22927502.3814   22927516.5914
        -0.000          -0.000
 -16648208.850 9 -12958009.80649  20284659.875    20284659.9924   20284668.8244
        -0.000          -0.000
 -19337545.560 9 -15047365.59147  21769358.416    21769358.0974   21769370.4394
        -0.000          -0.000
   8650890.676 9   6738579.63947  22088270.399    22088269.6994   22088280.4994
        -0.000          -0.000
 -11935598.456 9  -8591300.65146  23252496.053    23252495.6134   23252508.0184
        -0.000          -0.000
 -15179670.711 9 -11807656.35348  21242623.367    21242623.1684   21242632.4334
        -0.000          -0.000
 99  4 14 18 53 30.0000000  0  7  8  2  4 24  7  5  9               -0.000000066
 -11048779.146 9  -8588899.04546  22999773.285    22999772.6394   22999785.1504
        -0.000          -0.000
   7645065.002 9   5911580.68946  22940191.586    22940190.8464   22940205.0934
        -0.000          -0.000
 -16663709.906 9 -12970088.55049  20281710.139    20281710.2344   20281719.0774
        -0.000          -0.000
 -19423975.404 9 -15114713.42447  21752911.257    21752910.9434   21752923.2834
        -0.000          -0.000
   8711505.356 9   6785811.76647  22099805.065    22099804.3744   22099815.1424
        -0.000          -0.000
 -12019280.800 9  -8656507.58146  23236571.842    23236571.3274   23236583.7354
        -0.000          -0.000
 -15192976.750 9 -11818024.71848  21240091.371    21240091.1614   21240100.4364
        -0.000          -0.000
 99  4 14 18 54  0.0000000  0  7  8  2  4 24  7  5  9               -0.000000066
 -11135033.696 9  -8656110.32846  22983359.276    22983358.8024   22983371.3514
        -0.000          -0.000
   7712056.675 9   5963781.74346  22952939.910    22952939.1904   22952953.4804
        -0.000          -0.000
 -16678583.459 9 -12981678.33549  20278879.781    20278879.8744   20278888.7114
        -0.000          -0.000
 -19510057.554 9 -15181790.33747  21736530.272    21736529.9844   21736542.3014
        -0.000          -0.000
   8772193.171 9   6833100.86747  22111353.694    22111353.0094   22111363.8024
        -0.000          -0.000
 -12102935.599 9  -8721693.06146  23220652.808    23220652.2674   23220664.7464
        -0.000          -0.000
 -15205692.930 9 -11827933.46148  21237671.619    21237671.3864   21237680.6664
        -0.000          -0.000
 99  4 14 18 54 30.0000000  0  7  8  2  4 24  7  5  9               -0.000000057
 -11220880.587 9  -8723003.96546  22967023.257    22967022.7214   22967035.2194
        -0.000          -0.000
   7779341.173 9   6016210.95746  22965743.887    22965743.1974   22965757.5774
        -0.000          -0.000
 -16692859.033 9 -12992802.16049  20276163.247    20276163.3344   20276172.1844
        -0.000          -0.000
 -19595782.691 9 -15248589.05447  21720217.245    21720216.9774   21720229.2594
        -0.000          -0.000
   8832960.827 9   6880452.18447  22122917.505    22122916.8034   22122927.6204
        -0.000          -0.000
 -12186592.184 9  -8786879.92046  23204733.431    23204732.8784   23204745.3084
        -0.000          -0.000
 -15217837.784 9 -11837397.00948  21235360.551    21235360.3464   21235369.6344
        -0.000          -0.000
 99  4 14 18 55  0.0000000  0  7  8  2  4 24  7  5  9               -0.000000033
 -11306320.291 9  -8789580.30646  22950764.648    22950764.0174   22950776.5554
        -0.000          -0.000
   7846898.328 9   6068852.65146  22978599.660    22978599.0074   22978613.5324
        -0.000          -0.000
 -16706547.870 9 -13003468.78249  20273558.381    20273558.4484   20273567.2734
        -0.000          -0.000
 -19681125.324 9 -15315089.71347  21703977.012    21703976.7504   21703988.9774
        -0.000          -0.000
   8893814.273 9   6927870.34947  22134497.578    22134496.8564   22134507.7624
        -0.000          -0.000
 -12270235.484 9  -8852056.43246  23188816.519    23188815.9774   23188828.4084
        -0.000          -0.000
 -15229426.647 9 -11846427.31648  21233155.300    21233155.1024   21233164.3954
        -0.000          -0.000
 99  4 14 18 55 30.0000000  0  7  8  2  4 24  7  5  9               -0.000000023
 -11391406.919 9  -8855881.53346  22934573.145    22934572.5364   22934585.0314
        -0.000          -0.000
   7914678.300 9   6121667.96346  22991497.980    22991497.3674   22991511.8354
        -0.000          -0.000
 -16719699.965 9 -13013717.16949  20271055.599    20271055.6804   20271064.5304
        -0.000          -0.000
 -19766122.609 9 -15381321.27247  21687802.487    21687802.2074   21687814.4474
        -0.000          -0.000
   8954718.959 9   6975328.44747  22146087.405    22146086.6634   22146097.6084
        -0.000          -0.000
 -12353906.893 9  -8917254.86146  23172894.254    23172893.8294   23172906.2294
        -0.000          -0.000
 -15240513.701 9 -11855066.60248  21231045.539    21231045.3234   21231054.6384
        -0.000          -0.000
 99  4 14 18 56  0.0000000  0  7  8  2  4 24  7  5  9               -0.000000021
 -11476125.671 9  -8921896.10246  22918451.686    22918451.1164   22918463.4714
        -0.000          -0.000
   7982686.416 9   6174661.03646  23004439.746    23004439.0874   23004453.5324
        -0.000          -0.000
 -16732309.037 9 -13023542.41749  20268656.179    20268656.2814   20268665.1164
        -0.000          -0.000
 -19850770.223 9 -15447280.36347  21671694.514    21671694.2384   21671706.4494
        -0.000          -0.000
   9015682.848 9   7022832.67947  22157688.459    22157687.7324   22157698.7114
        -0.000          -0.000
 -12437594.507 9  -8982465.91346  23156968.893    23156968.5354   23156980.9824
        -0.000          -0.000
 -15251091.993 9 -11863309.45948  21229032.605    21229032.3874   21229041.7084
        -0.000          -0.000
 99  4 14 18 56 30.0000000  0  7  8  2  4 24  7  5  9               -0.000000032
 -11560493.860 9  -8987637.49746  22902397.001    22902396.3914   22902408.7234
        -0.000          -0.000
   8050914.254 9   6227825.32346  23017423.278    23017422.6104   23017437.1334
        -0.000          -0.000
 -16744370.031 9 -13032940.58949  20266361.036    20266361.1404   20266369.9734
        -0.000          -0.000
 -19935075.161 9 -15512972.43247  21655651.735    21655651.4854   21655663.6294
        -0.000          -0.000
   9076674.026 9   7070358.17647  22169294.744    22169294.0074   22169305.0634
        -0.000          -0.000
 -12521278.510 9  -9047674.15646  23141044.306    23141043.9294   23141056.3394
        -0.000          -0.000
 -15261175.667 9 -11871166.89348  21227113.770    21227113.5454   21227122.8714
        -0.000          -0.000
 99  4 14 18 57  0.0000000  0  7  8  2  4 24  7  5  9               -0.000000043
 -11644494.600 9  -9053092.56146  22886411.997    22886411.4374   22886423.8904
        -0.000          -0.000
   8119403.858 9   6281193.58846  23030456.548    23030455.9074   23030470.5184
        -0.000          -0.000
 -16755846.147 9 -13041883.01149  20264177.209    20264177.3024   20264186.1444
        -0.000          -0.000
 -20019025.883 9 -15578388.49248  21639676.322    21639676.1044   21639688.2664
        -0.000          -0.000
   9137689.787 9   7117902.81947  22180905.689    22180904.9594   22180916.0594
        -0.000          -0.000
 -12604921.846 9  -9112850.71346  23125127.400    23125127.0784   23125139.3984
        -0.000          -0.000
 -15270728.034 9 -11878610.32348  21225296.051    21225295.8334   21225305.1334
        -0.000          -0.000
 99  4 14 18 57 30.0000000  0  7  8  2  4 24  7  5  9               -0.000000056
 -11728128.932 9  -9118262.12846  22870496.971    22870496.3254   22870508.7834
        -0.000          -0.000
   8188162.424 9   6334771.41746  23043541.096    23043540.4584   23043555.1104
        -0.000          -0.000
 -16766739.248 9 -13050371.13849  20262104.318    20262104.4074   20262113.2584
        -0.000          -0.000
 -20102637.545 9 -15643540.35348  21623765.487    21623765.2594   21623777.3884
        -0.000          -0.000
   9198707.252 9   7165448.80047  22192517.016    22192516.2314   22192527.3674
        -0.000          -0.000
 -12688542.923 9  -9178009.92146  23109214.807    23109214.4544   23109226.6984
        -0.000          -0.000
 -15279744.799 9 -11885636.40548  21223580.266    21223580.0314   21223589.3414
        -0.000          -0.000
 99  4 14 18 58  0.0000000  0  7  8  2  4 24  7  5  9               -0.000000063
 -11811373.674 9  -9183128.09246  22854656.091    22854655.4114   22854667.8524
        -0.000          -0.000
   8257216.894 9   6388579.85246  23056681.902    23056681.2814   23056696.0374
        -0.000          -0.000
 -16777012.466 9 -13058376.24049  20260149.405    20260149.5004   20260158.3364
        -0.000          -0.000
 -20185886.626 9 -15708409.67248  21607923.657    21607923.4264   21607935.5224
        -0.000          -0.000
   9259748.636 9   7213013.40647  22204132.872    22204132.1294   22204143.2364
        -0.000          -0.000
 -12772112.307 9  -9243128.84246  23093312.061    23093311.6734   23093323.8954
        -0.000          -0.000
 -15288199.057 9 -11892224.17048  21221971.466    21221971.2554   21221980.5504
        -0.000          -0.000
 99  4 14 18 58 30.0000000  0  7  8  2  4 24  7  5  9               -0.000000070
 -11894234.053 9  -9247694.57946  22838888.136    22838887.5474   22838900.0204
        -0.000          -0.000
   8326573.803 9   6442623.91746  23069880.288    23069879.6744   23069894.5514
        -0.000          -0.000
 -16786653.036 9 -13065888.37549  20258314.870    20258314.9504   20258323.7834
        -0.000          -0.000
 -20268764.608 9 -15772989.83848  21592152.499    21592152.2544   21592164.2954
        -0.000          -0.000
   9320823.966 9   7260604.47347  22215755.275    22215754.5334   22215765.6104
        -0.000          -0.000
 -12855624.440 9  -9308203.15846  23077420.294    23077419.8154   23077432.0084
        -0.000          -0.000
 -15296075.279 9 -11898361.52548  21220472.730    21220472.5224   21220481.8014
        -0.000          -0.000
 99  4 14 18 59  0.0000000  0  8  8  2  4 24  7  5  9 16            -0.000000031
 -11976678.251 9  -9311936.75546  22823199.476    22823198.9384   22823211.3374
        -0.000          -0.000
   8396253.317 9   6496919.37446  23083140.086    23083139.4254   23083154.3224
        -0.000          -0.000
 -16795634.964 9 -13072887.28049  20256605.650    20256605.7644   20256614.5744
        -0.000          -0.000
 -20351252.555 9 -15837266.06548  21576455.548    21576455.2814   21576467.2944
        -0.000          -0.000
   9381973.393 9   7308253.28547  22227391.735    22227390.9974   22227402.1144
        -0.000          -0.000
 -12939068.448 9  -9373224.38946  23061541.358    23061540.8684   23061553.0334
        -0.000          -0.000
 -15303328.211 9 -11904013.19748  21219092.536    21219092.3584   21219101.6404
        -0.000          -0.000
  -5069210.468 8  -3945055.05845  24564239.733    24564239.1414   24564256.3014
        -0.000          -0.000
 99  4 14 18 59 30.0000000  0  8  8  2  4 24  7  5  9 16            -0.000000049
 -12058695.090 9  -9375845.92846  22807592.262    22807591.6134   22807603.9464
        -0.000          -0.000
   8466233.783 9   6551449.32446  23096457.011    23096456.3964   23096471.3354
        -0.000          -0.000
 -16803950.663 9 -13079367.04049  20255023.234    20255023.3394   20255032.1474
        -0.000          -0.000
 -20433350.601 9 -15901238.47948  21560832.741    21560832.5164   21560844.4764
        -0.000          -0.000
   9443222.477 9   7355979.74047  22239047.068    22239046.3694   22239057.5084
        -0.000          -0.000
 -13022446.281 9  -9438194.06246  23045675.058    23045674.5314   23045686.6874
        -0.000          -0.000
 -15309954.788 9 -11909176.79948  21217831.578    21217831.3814   21217840.6694
        -0.000          -0.000
  -5093880.486 8  -3964278.38045  24559545.237    24559544.5604   24559561.6454
        -0.000          -0.000
 99  4 14 19  0  0.0000000  0  8  8  2  4 24  7  5  9 16            -0.000000066
 -12140259.084 9  -9439402.22946  22792071.012    22792070.4584   22792082.7434
        -0.000          -0.000
   8536532.027 9   6606226.90746  23109834.445    23109833.9154   23109848.9104
        -0.000          -0.000
 -16811584.562 9 -13085315.53849  20253570.551    20253570.6654   20253579.4714
        -0.000          -0.000
 -20515046.676 9 -15964897.67348  21545286.452    21545286.1994   21545298.1554
        -0.000          -0.000
   9504601.580 9   7403807.49847  22250727.198    22250726.5124   22250737.7084
        -0.000          -0.000
 -13105728.995 9  -9503089.62046  23029826.899    23029826.4034   23029838.4304
        -0.000          -0.000
 -15315949.113 9 -11913847.75048  21216690.914    21216690.7104   21216700.0214
        -0.000          -0.000
  -5118079.194 8  -3983134.44745  24554940.262    24554939.6194   24554956.7844
        -0.000          -0.000
 99  4 14 19  0 30.0000000  0  8  8  2  4 24  7  5  9 16            -0.000000076
 -12221364.119 9  -9502600.88646  22776637.175    22776636.6334   22776648.8984
        -0.000          -0.000
   8607132.141 9   6661239.71746  23123269.376    23123268.7944   23123283.8954
        -0.000          -0.000
 -16818554.949 9 -13090747.00149  20252244.101    20252244.2034   20252253.0414
        -0.000          -0.000
 -20596340.664 9 -16028243.53848  21529816.592    21529816.3584   21529828.2874
        -0.000          -0.000
   9566086.573 9   7451717.79247  22262427.399    22262426.7624   22262437.9954
        -0.000          -0.000
 -13188915.290 9  -9567910.03846  23013997.102    23013996.5724   23014008.5464
        -0.000          -0.000
 -15321321.841 9 -11918034.32648  21215668.555    21215668.3484   21215677.6764
        -0.000          -0.000
  -5141815.173 8  -4001629.96145  24550423.451    24550422.8664   24550439.9774
        -0.000          -0.000
 99  4 14 19  1  0.0000000  0  8  8  2  4 24  7  5  9 16            -0.000000064
 -12301991.802 9  -9565427.59046  22761294.265    22761293.6544   22761305.9444
        -0.000          -0.000
   8678025.383 9   6716480.92946  23136760.133    23136759.4744   23136774.7964
        -0.000          -0.000
 -16824882.016 9 -13095677.18849  20251040.084    20251040.1874   20251049.0184
        -0.000          -0.000
 -20677220.117 9 -16091266.39948  21514425.721    21514425.4534   21514437.3284
        -0.000          -0.000
   9627659.995 9   7499696.96747  22274144.490    22274143.8514   22274155.1554
        -0.000          -0.000
 -13272008.346 9  -9632657.79946  22998184.934    22998184.4184   22998196.4224
        -0.000          -0.000
 -15326089.603 9 -11921749.50448  21214761.306    21214761.1064   21214770.4514
        -0.000          -0.000
  -5165082.558 8  -4019760.33445  24545995.429    24545994.9924   24546012.2254
        -0.000          -0.000
 99  4 14 19  1 30.0000000  0  8  8  2  4 24  7  5  9 16            -0.000000046
 -12382192.739 9  -9627921.75646  22746032.477    22746031.8004   22746044.1524
        -0.000          -0.000
   8749161.173 9   6771911.14346  23150297.067    23150296.3934   23150311.7614
        -0.000          -0.000
 -16830632.753 9 -13100158.28649  20249945.766    20249945.8744   20249954.7034
        -0.000          -0.000
 -20757723.176 9 -16153995.96448  21499106.426    21499106.1594   21499118.0284
        -0.000          -0.000
   9689269.807 9   7547704.50347  22285868.546    22285867.8944   22285879.1914
        -0.000          -0.000
 -13355055.589 9  -9697369.87246  22982381.471    22982380.9894   22982393.0244
        -0.000          -0.000
 -15330332.414 9 -11925055.63548  21213953.966    21213953.7454   21213963.1194
        -0.000          -0.000
  -5187921.401 8  -4037556.75545  24541649.433    24541648.8304   24541666.0024
        -0.000          -0.000
 99  4 14 19  2  0.0000000  0  8  8  2  4 24  7  5  9 16            -0.000000013
 -12461981.061 9  -9690094.40946  22730849.258    22730848.6114   22730860.8964
        -0.000          -0.000
   8820542.507 9   6827532.67146  23163880.700    23163880.0194   23163895.4144
        -0.000          -0.000
 -16835829.789 9 -13104207.92949  20248956.797    20248956.8994   20248965.7504
        -0.000          -0.000
 -20837844.929 9 -16216428.41148  21483859.743    21483859.4644   21483871.3124
        -0.000          -0.000
   9750890.686 9   7595720.67247  22297594.658    22297594.0174   22297605.3614
        -0.000          -0.000
 -13438056.961 9  -9762046.18046  22966586.773    22966586.2744   22966598.3574
        -0.000          -0.000
 -15334055.366 9 -11927956.67348  21213245.455    21213245.2564   21213254.6444
        -0.000          -0.000
  -5210333.129 8  -4055020.37845  24537384.948    24537384.1724   24537401.1514
        -0.000          -0.000
 99  4 14 19  2 30.0000000  0  8  8  2  4 24  7  5  9 16             0.000000018
 -12541375.787 9  -9751960.37146  22715740.869    22715740.2304   22715752.4674
        -0.000          -0.000
   8892132.932 9   6883317.14546  23177504.125    23177503.4584   23177518.9674
        -0.000          -0.000
 -16840484.042 9 -13107834.62449  20248071.118    20248071.1924   20248080.0554
        -0.000          -0.000
 -20917591.371 9 -16278568.40748  21468684.429    21468684.1394   21468696.0024
        -0.000          -0.000
   9812498.038 9   7643726.29447  22309318.290    22309317.6514   22309329.0014
        -0.000          -0.000
 -13521037.641 9  -9826706.37746  22950795.982    22950795.5054   22950807.5524
        -0.000          -0.000
 -15337260.679 9 -11930454.35948  21212635.566    21212635.3684   21212644.7514
        -0.000          -0.000
  -5232322.440 8  -4072154.84745  24533200.145    24533199.5314   24533216.6014
        -0.000          -0.000
 99  4 14 19  3  0.0000000  0  8  8  2  4 24  7  5  9 16             0.000000041
 -12620374.337 9  -9813517.61346  22700707.920    22700707.2584   22700719.5284
        -0.000          -0.000
   8963952.627 9   6939280.24946  23191171.188    23191170.5164   23191186.0714
        -0.000          -0.000
 -16844581.597 9 -13111027.53449  20247291.388    20247291.4924   20247300.3324
        -0.000          -0.000
 -20996959.302 9 -16340413.46648  21453581.082    21453580.8054   21453592.6644
        -0.000          -0.000
   9874126.672 9   7691748.49547  22321045.968    22321045.3124   22321056.6524
        -0.000          -0.000
 -13603995.991 9  -9891349.18246  22935009.421    22935008.9834   22935020.9794
        -0.000          -0.000
 -15339937.395 9 -11932540.15048  21212126.230    21212126.0214   21212135.4554
        -0.000          -0.000
  -5253880.234 8  -4088953.03945  24529097.679    24529097.1294   24529114.1214
        -0.000          -0.000
 99  4 14 19  3 30.0000000  0  8  8  2  4 24  7  5  9 16             0.000000050
 -12698979.640 9  -9874768.43946  22685749.854    22685749.1734   22685761.3814
        -0.000          -0.000
   9036018.923 9   6995435.51646  23204885.046    23204884.4824   23204900.0644
        -0.000          -0.000
 -16848099.029 9 -13113768.39849  20246622.045    20246622.1254   20246630.9564
        -0.000          -0.000
 -21075957.898 9 -16401970.73148  21438548.097    21438547.8124   21438559.6594
        -0.000          -0.000
   9935802.734 9   7739807.65547  22332782.550    22332781.8874   22332793.2624
        -0.000          -0.000
 -13686921.754 9  -9955966.58146  22919229.101    22919228.6394   22919240.6534
        -0.000          -0.000
 -15342062.370 9 -11934196.00748  21211721.908    21211721.6914   21211731.1374
        -0.000          -0.000
  -5274986.384 8  -4105399.34045  24525081.385    24525080.8604   24525097.9454
        -0.000          -0.000
 99  4 14 19  4  0.0000000  0  8  8  2  4 24  7  5  9 16             0.000000045
 -12777165.699 9  -9935692.57146  22670871.479    22670870.7534   22670882.9414
        -0.000          -0.000
   9108346.397 9   7051794.29846  23218648.887    23218648.2134   23218663.8034
        -0.000          -0.000
 -16851010.795 9 -13116037.31849  20246067.924    20246068.0094   20246076.8254
        -0.000          -0.000
 -21154585.372 9 -16463238.81648  21423585.734    21423585.4514   21423597.2704
        -0.000          -0.000
   9997532.227 9   7787908.44747  22344529.373    22344528.6854   22344540.0664
        -0.000          -0.000
 -13769792.040 9 -10020540.75846  22903459.370    22903458.9364   22903470.8604
        -0.000          -0.000
 -15343605.065 9 -11935398.13748  21211428.336    21211428.1244   21211437.6014
        -0.000          -0.000
  -5295641.045 8  -4121493.78645  24521150.752    24521150.0214   24521167.4104
        -0.000          -0.000
 99  4 14 19  4 30.0000000  0  8  8  2  4 24  7  5  9 16             0.000000042
 -12854887.069 9  -9996254.61446  22656081.471    22656080.8624   22656093.0484
        -0.000          -0.000
   9180975.067 9   7108387.78346  23232469.918    23232469.2864   23232484.8814
        -0.000          -0.000
 -16853276.045 9 -13117802.46149  20245636.843    20245636.9474   20245645.7764
        -0.000          -0.000
 -21232807.856 9 -16524191.33048  21408700.451    21408700.1654   21408711.9514
        -0.000          -0.000
  10059350.266 9   7836078.23147  22356293.006    22356292.3804   22356303.7644
        -0.000          -0.000
 -13852570.237 9 -10085043.16246  22887707.263    22887706.7104   22887718.6364
        -0.000          -0.000
 -15344548.482 9 -11936133.30848  21211248.855    21211248.6684   21211258.1434
        -0.000          -0.000
  -5315832.308 8  -4137227.17345  24517308.519    24517307.8014   24517324.9374
        -0.000          -0.000
 99  4 14 19  5  0.0000000  0  8  8  2  4 24  7  5  9 16             0.000000037
 -12932157.506 9 -10056465.27146  22641377.301    22641376.7214   22641388.9014
        -0.000          -0.000
   9253913.361 9   7165222.52046  23246349.859    23246349.2674   23246364.8934
        -0.000          -0.000
 -16854920.602 9 -13119083.94749  20245323.912    20245324.0044   20245332.8494
        -0.000          -0.000
 -21310641.036 9 -16584840.48048  21393889.209    21393888.9194   21393900.6964
        -0.000          -0.000
  10121252.143 9   7884313.36347  22368072.643    22368072.0164   22368083.3894
        -0.000          -0.000
 -13935269.363 9 -10149483.96146  22871970.114    22871969.5754   22871981.3374
        -0.000          -0.000
 -15344914.644 9 -11936418.66248  21211179.247    21211179.0264   21211188.5104
        -0.000          -0.000
  -5335588.583 8  -4152621.61845  24513548.557    24513548.1734   24513565.4864
        -0.000          -0.000
 99  4 14 19  5 30.0000000  0  8  8  2  4 24  7  5  9 16             0.000000040
 -13008957.997 9 -10116309.73946  22626762.645    22626762.0194   22626774.1864
        -0.000          -0.000
   9327156.395 9   7222294.71546  23260287.816    23260287.2284   23260302.9574
        -0.000          -0.000
 -16855929.229 9 -13119869.90249  20245131.997    20245132.1174   20245140.9594
        -0.000          -0.000
 -21388063.189 9 -16645169.35348  21379156.194    21379155.9194   21379167.6954
        -0.000          -0.000
  10183231.569 9   7932608.90147  22379867.088    22379866.3804   22379877.8064
        -0.000          -0.000
 -14017872.160 9 -10213849.68346  22856251.344    22856250.8064   22856262.5014
        -0.000          -0.000
 -15344697.386 9 -11936249.40748  21211220.615    21211220.3984   21211229.8754
        -0.000          -0.000
  -5354894.817 8  -4167665.33245  24509875.011    24509874.6764   24509891.5704
        -0.000          -0.000
 99  4 14 19  6  0.0000000  0  8  8  2  4 24  7  5  9 16             0.000000047
 -13085301.698 9 -10175798.27446  22612234.949    22612234.2864   22612246.3724
        -0.000          -0.000
   9400682.258 9   7279587.27946  23274279.483    23274278.9424   23274294.7294
        -0.000          -0.000
 -16856333.995 9 -13120185.32549  20245055.021    20245055.1404   20245063.9794
        -0.000          -0.000
 -21465075.312 9 -16705178.74148  21364501.195    21364500.9344   21364512.6754
        -0.000          -0.000
  10245259.917 9   7980942.55947  22391670.828    22391670.1094   22391681.5484
        -0.000          -0.000
 -14100395.307 9 -10278153.35146  22840547.605    22840547.1384   22840558.8014
        -0.000          -0.000
 -15343934.858 9 -11935655.27248  21211365.760    21211365.5474   21211375.0174
        -0.000          -0.000
  -5373774.840 8  -4182376.93445  24506282.247    24506281.6654   24506298.6454
        -0.000          -0.000
 99  4 14 19  6 30.0000000  0  8  8  2  4 24  7  5  9 16             0.000000048
 -13161220.889 9 -10234956.02246  22597787.870    22597787.2384   22597799.3764
        -0.000          -0.000
   9474473.796 9   7337086.85746  23288321.849    23288321.2604   23288337.0674
        -0.000          -0.000
 -16856159.525 9 -13120049.38449  20245088.231    20245088.3574   20245097.1794
        -0.000          -0.000
 -21541684.200 9 -16764873.89848  21349922.923    21349922.6664   21349934.4164
        -0.000          -0.000
  10307337.690 9   8029314.73647  22403483.940    22403483.1914   22403494.6164
        -0.000          -0.000
 -14182874.604 9 -10342422.84146  22824852.324    22824851.7844   22824863.4404
        -0.000          -0.000
 -15342639.120 9 -11934645.63948  21211612.311    21211612.1164   21211621.6014
        -0.000          -0.000
  -5392223.050 8  -4196752.06045  24502771.358    24502770.9354   24502787.8394
        -0.000          -0.000
 99  4 14 19  7  0.0000000  0  8  8  2  4 24  7  5  9 16             0.000000037
 -13236713.969 9 -10293781.74246  22583421.864    22583421.2734   22583433.5594
        -0.000          -0.000
   9548512.340 9   7394778.91646  23302411.094    23302410.4774   23302426.3764
        -0.000          -0.000
 -16855407.078 9 -13119463.08049  20245231.427    20245231.5484   20245240.3724
        -0.000          -0.000
 -21617895.455 9 -16824259.22848  21335420.357    21335420.1264   21335431.8424
        -0.000          -0.000
  10369471.538 9   8077730.59947  22415307.724    22415306.9464   22415318.4414
        -0.000          -0.000
 -14265314.571 9 -10406661.69146  22809164.475    22809163.9254   22809175.5934
        -0.000          -0.000
 -15340795.796 9 -11933209.33348  21211963.099    21211962.9134   21211972.4244
        -0.000          -0.000
  -5410212.815 8  -4210769.97445  24499347.820    24499347.5854   24499364.6254
        -0.000          -0.000
 99  4 14 19  7 30.0000000  0  8  8  2  4 24  7  5  9 16             0.000000025
 -13311760.881 9 -10352259.78646  22569140.841    22569140.2894   22569152.5464
        -0.000          -0.000
   9622789.535 9   7452656.92746  23316545.613    23316545.1114   23316561.0814
        -0.000          -0.000
 -16854067.877 9 -13118419.55849  20245486.324    20245486.4214   20245495.2574
        -0.000          -0.000
 -21693694.192 9 -16883323.10948  21320996.271    21320996.0424   21321007.7534
        -0.000          -0.000
  10431646.196 9   8126178.26947  22427139.260    22427138.5154   22427149.9814
        -0.000          -0.000
 -14347699.685 9 -10470857.81046  22793487.031    22793486.4984   22793498.1124
        -0.000          -0.000
 -15338397.405 9 -11931340.49448  21212419.551    21212419.3384   21212428.8374
        -0.000          -0.000
  -5427726.934 8  -4224417.23845  24496014.994    24496014.5534   24496031.6934
        -0.000          -0.000
 99  4 14 19  8  0.0000000  0  8  8  2  4 24  7  5  9 16             0.000000011
 -13386375.977 9 -10410401.36146  22554942.056    22554941.5194   22554953.7084
        -0.000          -0.000
   9697307.587 9   7510722.62246  23330726.305    23330725.7144   23330741.6514
        -0.000          -0.000
 -16852157.668 9 -13116931.10549  20245849.848    20245849.9404   20245858.7924
        -0.000          -0.000
 -21769087.113 9 -16942070.77048  21306649.449    21306649.2144   21306660.9194
        -0.000          -0.000
  10493844.198 9   8174644.12447  22438975.223    22438974.4814   22438986.0224
        -0.000          -0.000
 -14430046.382 9 -10535023.98946  22777816.963    22777816.4164   22777828.0064
        -0.000          -0.000
 -15335443.832 9 -11929039.05948  21212981.616    21212981.4084   21212990.8934
        -0.000          -0.000
  -5444776.996 8  -4237702.90745  24492770.668    24492770.0294   24492787.2184
        -0.000          -0.000
 99  4 14 19  8 30.0000000  0  8  8  2  4 24  7  5  9 16            -0.000000009
 -13460542.755 9 -10468193.60346  22540828.578    22540827.9804   22540840.1794
        -0.000          -0.000
   9772073.737 9   7568981.63446  23344954.153    23344953.4854   23344969.5264
        -0.000          -0.000
 -16849639.844 9 -13114969.18249  20246328.980    20246329.0684   20246337.9024
        -0.000          -0.000
 -21844052.222 9 -17000485.07348  21292383.993    21292383.7604   21292395.4714
        -0.000          -0.000
  10556071.503 9   8223132.80747  22450816.861    22450816.0434   22450827.5724
        -0.000          -0.000
 -14512333.209 9 -10599143.51146  22762158.211    22762157.7164   22762169.2394
        -0.000          -0.000
 -15331907.194 9 -11926283.28148  21213654.656    21213654.4634   21213663.9614
        -0.000          -0.000
  -5461352.900 8  -4250619.08145  24489616.168    24489615.4624   24489632.6824
        -0.000          -0.000
 99  4 14 19  9  0.0000000  0  8  8  2  4 24  7  5  9 16            -0.000000023
 -13534242.531 9 -10525621.93646  22526803.926    22526803.3184   22526815.5454
        -0.000          -0.000
   9847103.099 9   7627445.73846  23359232.068    23359231.3704   23359247.4924
        -0.000          -0.000
 -16846496.139 9 -13112519.55649  20246927.233    20246927.3144   20246936.1364
        -0.000          -0.000
 -21918571.565 9 -17058552.02348  21278203.379    21278203.1574   21278214.8054
        -0.000          -0.000
  10618316.137 9   8271634.99347  22462661.658    22462660.8744   22462672.4414
        -0.000          -0.000
 -14594532.271 9 -10663194.64346  22746516.191    22746515.7254   22746527.1664
        -0.000          -0.000
 -15327791.434 9 -11923076.23548  21214437.878    21214437.6804   21214447.2164
        -0.000          -0.000
  -5477456.863 8  -4263167.56445  24486551.655    24486550.9744   24486568.1364
        -0.000          -0.000
 99  4 14 19  9 30.0000000  0  8  8  2  4 24  7  5  9 16            -0.000000026
 -13607475.673 9 -10582686.66746  22512868.084    22512867.4964   22512879.6514
        -0.000          -0.000
   9922413.111 9   7686128.53846  23373563.287    23373562.6484   23373578.8774
        -0.000          -0.000
 -16842723.556 9 -13109579.89649  20247645.118    20247645.2174   20247654.0634
        -0.000          -0.000
 -21992630.196 9 -17116259.97748  21264110.465    21264110.2434   21264121.8734
        -0.000          -0.000
  10680571.986 9   8320145.91847  22474508.617    22474507.8824   22474519.4934
        -0.000          -0.000
 -14676646.099 9 -10727179.37046  22730890.356    22730889.9224   22730901.3384
        -0.000          -0.000
 -15323100.118 9 -11919420.70648  21215330.597    21215330.4124   21215339.9364
        -0.000          -0.000
  -5493090.867 8  -4275349.83045  24483576.657    24483576.0334   24483592.9904
        -0.000          -0.000
 99  4 14 19 10  0.0000000  0  8  8  2  4 24  7  5  9 16            -0.000000028
 -13680253.284 9 -10639396.44646  22499018.948    22499018.3444   22499030.4964
        -0.000          -0.000
   9998018.770 9   7745041.69746  23387950.759    23387950.1984   23387966.5344
        -0.000          -0.000
 -16838320.905 9 -13106149.27549  20248482.944    20248483.0274   20248491.8704
        -0.000          -0.000
 -22066242.107 9 -17173619.83448  21250102.522    21250102.3114   21250113.9434
        -0.000          -0.000
  10742861.937 9   8368683.41447  22486362.122    22486361.3764   22486373.0234
        -0.000          -0.000
 -14758684.698 9 -10791105.47646  22715278.895    22715278.4504   22715289.8324
        -0.000          -0.000
 -15317837.521 9 -11915320.02548  21216332.076    21216331.8894   21216341.3984
        -0.000          -0.000
  -5508257.418 8  -4287167.84045  24480690.468    24480689.8524   24480706.8314
        -0.000          -0.000
 99  4 14 19 10 30.0000000  0  8  8  2  4 24  7  5  9 16            -0.000000024
 -13752565.792 9 -10695743.80146  22485258.305    22485257.7204   22485269.8124
        -0.000          -0.000
  10073927.164 9   7804190.76346  23402395.963    23402395.3894   23402411.7964
        -0.000          -0.000
 -16833293.023 9 -13102231.45849  20249439.758    20249439.8344   20249448.6874
        -0.000          -0.000
 -22139416.335 9 -17230638.65248  21236177.856    21236177.6604   21236189.2194
        -0.000          -0.000
  10805209.077 9   8417265.46847  22498226.494    22498225.7624   22498237.4534
        -0.000          -0.000
 -14840639.956 9 -10854966.63646  22699683.290    22699682.7474   22699694.1944
        -0.000          -0.000
 -15312004.262 9 -11910774.67348  21217442.185    21217441.9914   21217451.5094
        -0.000          -0.000
  -5522947.610 8  -4298614.68945  24477895.166    24477894.3974   24477911.3394
        -0.000          -0.000
 99  4 14 19 11  0.0000000  0  8  8  2  4 24  7  5  9 16            -0.000000011
 -13824402.700 9 -10751720.55646  22471588.159    22471587.5234   22471599.6464
        -0.000          -0.000
  10150139.601 9   7863576.73446  23416898.894    23416898.2784   23416914.8124
        -0.000          -0.000
 -16827662.361 9 -13097843.94849  20250511.250    20250511.3234   20250520.1494
        -0.000          -0.000
 -22212170.966 9 -17287330.50548  21222333.085    21222332.8654   21222344.4004
        -0.000          -0.000
  10867615.121 9   8465893.41547  22510102.064    22510101.3414   22510113.0524
        -0.000          -0.000
 -14922527.497 9 -10918775.03646  22684100.514    22684099.9844   22684111.4484
        -0.000          -0.000
 -15305597.822 9 -11905782.68248  21218661.329    21218661.1564   21218670.6904
        -0.000          -0.000
  -5537158.712 8  -4309688.22145  24475190.426    24475189.7494   24475206.8344
        -0.000          -0.000
 99  4 14 19 11 30.0000000  0  8  8  2  4 24  7  5  9 16            -0.000000001
 -13895779.828 9 -10807339.04246  22458005.461    22458004.8674   22458016.9604
        -0.000          -0.000
  10226629.409 9   7923178.84246  23431454.556    23431454.0314   23431470.6744
        -0.000          -0.000
 -16821456.477 9 -13093008.20849  20251692.208    20251692.2554   20251701.1054
        -0.000          -0.000
 -22284529.025 9 -17343713.34248  21208563.785    21208563.5274   21208575.0454
        -0.000          -0.000
  10930073.671 9   8514562.28247  22521987.608    22521986.8534   22521998.6224
        -0.000          -0.000
 -15004361.806 9 -10982541.95546  22668527.856    22668527.2954   22668538.9094
        -0.000          -0.000
 -15298623.912 9 -11900348.51248  21219988.452    21219988.2684   21219997.8234
        -0.000          -0.000
  -5550907.556 8  -4320401.54345  24472574.180    24472573.3204   24472590.4344
        -0.000          -0.000
 99  4 14 19 12  0.0000000  0  8  8  2  4 24  7  5  9 16             0.000000004
 -13966697.359 9 -10862599.40446  22444510.277    22444509.6394   22444521.7304
        -0.000          -0.000
  10303383.357 9   7982986.76746  23446060.697    23446060.0204   23446076.6854
        -0.000          -0.000
 -16814682.493 9 -13087729.79349  20252981.212    20252981.2934   20252990.1254
        -0.000          -0.000
 -22356492.405 9 -17399788.64048  21194869.542    21194869.2774   21194880.7744
        -0.000          -0.000
  10992595.481 9   8563280.45347  22533885.167    22533884.4174   22533896.2604
        -0.000          -0.000
 -15086121.607 9 -11046250.81446  22652969.355    22652968.7664   22652980.4704
        -0.000          -0.000
 -15291068.984 9 -11894461.59548  21221426.160    21221425.9924   21221435.5374
        -0.000          -0.000
  -5564201.533 8  -4330760.42645  24470044.425    24470043.5604   24470060.7214
        -0.000          -0.000
 99  4 14 19 12 30.0000000  0  8  8  2  4 24  7  5  9 16             0.000000007
 -14037138.489 9 -10917488.54346  22431105.681    22431105.0894   22431117.1454
        -0.000          -0.000
  10380373.663 9   8042978.88246  23460711.796    23460711.0574   23460727.8574
        -0.000          -0.000
 -16807338.761 9 -13082007.41749  20254378.698    20254378.7854   20254387.6184
        -0.000          -0.000
 -22428041.607 9 -17455541.20148  21181254.142    21181253.8934   21181265.3984
        -0.000          -0.000
  11055163.318 9   8612034.48047  22545791.526    22545790.8144   22545802.6674
        -0.000          -0.000
 -15167787.513 9 -11109886.51046  22637428.741    22637428.2154   22637439.9424
        -0.000          -0.000
 -15282923.149 9 -11888114.23648  21222976.294    21222976.1094   21222985.6554
        -0.000          -0.000
  -5577030.213 8  -4340756.74045  24467603.095    24467602.3114   24467619.6084
        -0.000          -0.000
 99  4 14 19 13  0.0000000  0  8  8  2  4 24  7  5  9 16            -0.000000007
 -14107118.556 9 -10972018.42047  22417788.983    22417788.3284   22417800.3234
        -0.000          -0.000
  10457562.141 9   8103125.40946  23475400.564    23475399.7884   23475416.6784
        -0.000          -0.000
 -16799437.006 9 -13075850.21649  20255882.364    20255882.4444   20255891.2904
        -0.000          -0.000
 -22499178.942 9 -17510972.82848  21167717.053    21167716.8354   21167728.3274
        -0.000          -0.000
  11117739.234 9   8660794.80447  22557699.420    22557698.7204   22557710.5434
        -0.000          -0.000
 -15249366.779 9 -11173454.69846  22621904.692    22621904.1414   22621915.8524
        -0.000          -0.000
 -15274207.906 9 -11881323.17948  21224634.787    21224634.5814   21224644.1524
        -0.000          -0.000
  -5589412.838 8  -4350405.50545  24465246.900    24465246.1834   24465263.2504
        -0.000          -0.000
 99  4 14 19 13 30.0000000  0  8  8  2  4 24  7  5  9 16            -0.000000032
 -14176642.073 9 -11026192.55747  22404558.982    22404558.3574   22404570.3704
        -0.000          -0.000
  10534960.730 9   8163435.66446  23490129.272    23490128.5224   23490145.4424
        -0.000          -0.000
 -16790965.378 9 -13069248.97149  20257494.477    20257494.5684   20257503.4234
        -0.000          -0.000
 -22569881.284 9 -17566065.51348  21154262.818    21154262.5994   21154274.0544
        -0.000          -0.000
  11180335.419 9   8709570.91547  22569611.163    22569610.4944   22569622.2904
        -0.000          -0.000
 -15330824.974 9 -11236928.55246  22606403.583    22606403.0934   22606414.7844
        -0.000          -0.000
 -15264931.977 9 -11874095.23848  21226399.985    21226399.7994   21226409.3574
        -0.000          -0.000
  -5601336.091 8  -4359696.31645  24462977.842    24462977.2634   24462994.3454
        -0.000          -0.000
 99  4 14 19 14  0.0000000  0  8  8  2  4 24  7  5  9 16            -0.000000050
 -14245666.977 9 -11079978.15846  22391423.840    22391423.3104   22391435.2914
        -0.000          -0.000
  10612602.092 9   8223935.07946  23504904.008    23504903.2944   23504920.4424
        -0.000          -0.000
 -16781882.240 9 -13062171.21449  20259222.953    20259223.0524   20259231.8994
        -0.000          -0.000
 -22640117.968 9 -17620795.33648  21140897.205    21140896.9724   21140908.4594
        -0.000          -0.000
  11242972.252 9   8758378.71147  22581530.621    22581529.9324   22581541.7764
        -0.000          -0.000
 -15412138.298 9 -11300289.51147  22590930.057    22590929.5654   22590941.2994
        -0.000          -0.000
 -15255081.506 9 -11866419.59148  21228274.493    21228274.3014   21228283.8814
        -0.000          -0.000
  -5612767.739 8  -4368604.06145  24460802.427    24460801.8194   24460818.8374
        -0.000          -0.000
 99  4 14 19 14 30.0000000  0  8  8  2  4 24  7  5  9 16            -0.000000061
 -14314186.138 9 -11133369.67747  22378385.182    22378384.5774   22378396.4994
        -0.000          -0.000
  10690494.570 9   8284630.17446  23519726.679    23519726.0914   23519743.2814
        -0.000          -0.000
 -16772181.850 9 -13054612.49349  20261068.894    20261069.0044   20261077.8404
        -0.000          -0.000
 -22709895.938 9 -17675167.73148  21127618.870    21127618.5944   21127630.0364
        -0.000          -0.000
  11305625.740 9   8807199.47547  22593453.261    22593452.6184   22593464.4784
        -0.000          -0.000
 -15493330.305 9 -11363555.95947  22575479.703    22575479.2114   22575490.8824
        -0.000          -0.000
 -15244683.987 9 -11858317.68148  21230253.148    21230252.9424   21230262.5294
        -0.000          -0.000
  -5623700.241 8  -4377122.85045  24458721.947    24458721.3404   24458738.4004
        -0.000          -0.000
 99  4 14 19 15  0.0000000  0  8  8  2  4 24  7  5  9 16            -0.000000069
 -14382219.348 9 -11186382.52647  22365438.889    22365438.3294   22365450.1764
        -0.000          -0.000
  10768663.573 9   8345540.74346  23534602.076    23534601.4244   23534618.6214
        -0.000          -0.000
 -16761869.125 9 -13046576.62049  20263031.366    20263031.4754   20263040.3094
        -0.000          -0.000
 -22779233.195 9 -17729196.70748  21114424.324    21114424.0994   21114435.5264
        -0.000          -0.000
  11368302.476 9   8856038.35547  22605380.303    22605379.6714   22605391.6004
        -0.000          -0.000
 -15574418.862 9 -11426741.79047  22560048.990    22560048.5034   22560060.1214
        -0.000          -0.000
 -15233754.728 9 -11849801.42748  21232332.888    21232332.6824   21232342.2974
        -0.000          -0.000
  -5634144.853 8  -4385261.47145  24456734.540    24456733.9054   24456750.9584
        -0.000          -0.000
 99  4 14 19 15 30.0000000  0  8  8  2  4 24  7  5  9 16            -0.000000074
 -14449764.204 9 -11239014.83247  22352585.441    22352584.8484   22352596.8054
        -0.000          -0.000
  10847131.331 8   8406684.10246  23549534.185    23549533.4974   23549550.9054
        -0.000          -0.000
 -16750936.113 9 -13038057.40549  20265111.887    20265111.9754   20265120.8274
        -0.000          -0.000
 -22848128.567 9 -17782881.35848  21101313.941    21101313.6954   21101325.0934
        -0.000          -0.000
  11431023.707 9   8904911.91047  22617315.856    22617315.2184   22617327.1524
        -0.000          -0.000
 -15655414.716 9 -11489855.37547  22544635.952    22544635.4544   22544647.0054
        -0.000          -0.000
 -15222290.209 9 -11840868.08748  21234514.566    21234514.3524   21234523.9754
        -0.000          -0.000
  -5644093.407 8  -4393013.57245  24454841.350    24454840.7864   24454857.7244
        -0.000          -0.000
 99  4 14 19 16  0.0000000  0  8  8  2  4 24  7  5  9 16            -0.000000076
 -14516802.798 9 -11291252.67047  22339828.336    22339827.7994   22339839.7354
        -0.000          -0.000
  10925897.665 9   8468060.11346  23564523.136    23564522.5504   23564539.9894
        -0.000          -0.000
 -16739374.014 9 -13029047.99849  20267312.092    20267312.2024   20267321.0484
        -0.000          -0.000
 -22916584.714 9 -17836223.76248  21088287.126    21088286.8834   21088298.2544
        -0.000          -0.000
  11493794.294 9   8953823.91947  22629260.867    22629260.1894   22629272.1554
        -0.000          -0.000
 -15736333.054 9 -11552908.55647  22529237.633    22529237.1344   22529248.6784
        -0.000          -0.000
 -15210264.306 9 -11831497.31048  21236803.041    21236802.8274   21236812.4384
        -0.000          -0.000
  -5653531.129 8  -4400367.60845  24453045.577    24453044.8594   24453061.8104
        -0.000          -0.000
 99  4 14 19 16 30.0000000  0  8  8  2  4 24  7  5  9 16            -0.000000069
 -14583346.979 9 -11343105.22947  22327165.421    22327164.8564   22327176.7634
        -0.000          -0.000
  11004966.123 8   8529671.53946  23579569.643    23579569.0344   23579586.5934
        -0.000          -0.000
 -16727195.806 9 -13019558.49949  20269629.538    20269629.6374   20269638.4794
        -0.000          -0.000
 -22984595.054 9 -17889218.76948  21075345.139    21075344.8924   21075356.2944
        -0.000          -0.000
  11556624.443 9   9002782.34947  22641217.142    22641216.4724   22641228.4724
        -0.000          -0.000
 -15817171.888 9 -11615899.79547  22513854.520    22513853.9544   22513865.4464
        -0.000          -0.000
 -15197667.902 9 -11821681.98648  21239200.063    21239199.8784   21239209.5284
        -0.000          -0.000
  -5662446.109 8  -4407314.32145  24451348.941    24451348.2944   24451365.3624
        -0.000          -0.000
 99  4 14 19 17  0.0000000  0  8  8  2  4 24  7  5  9 16            -0.000000058
 -14649402.355 9 -11394576.92147  22314595.550    22314594.9374   22314606.7734
        -0.000          -0.000
  11084319.835 9   8591505.23946  23594670.496    23594669.8794   23594687.4404
        -0.000          -0.000
 -16714417.983 9 -13009601.78149  20272061.047    20272061.1644   20272070.0154
        -0.000          -0.000
 -23052156.270 9 -17941863.82848  21062488.584    21062488.3534   21062499.7294
        -0.000          -0.000
  11619528.192 9   9051798.11147  22653187.530    22653186.8254   22653198.7944
        -0.000          -0.000
 -15897925.289 9 -11678824.47447  22498487.672    22498487.1214   22498498.4994
        -0.000          -0.000
 -15184489.043 9 -11811412.81248  21241707.965    21241707.7924   21241717.4554
        -0.000          -0.000
  -5670848.966 8  -4413861.95045  24449749.873    24449749.3904   24449766.2274
        -0.000          -0.000
 99  4 14 19 17 30.0000000  0  8  8  2  4 24  7  5  9 16            -0.000000046
 -14714954.163 9 -11445656.22547  22302121.386    22302120.7744   22302132.6214
        -0.000          -0.000
  11163930.771 9   8653539.38946  23609820.182    23609819.5724   23609837.2984
        -0.000          -0.000
 -16701052.530 9 -12999187.16949  20274604.424    20274604.5334   20274613.3974
        -0.000          -0.000
 -23119274.856 9 -17994163.97948  21049716.331    21049716.0854   21049727.4374
        -0.000          -0.000
  11682483.018 9   9100853.67747  22665167.610    22665166.7914   22665178.8064
        -0.000          -0.000
 -15978590.342 9 -11741680.30047  22483137.650    22483137.0384   22483148.3754
        -0.000          -0.000
 -15170737.602 9 -11800697.46648  21244324.849    21244324.6704   21244334.3414
        -0.000          -0.000
  -5678746.599 8  -4420015.92345  24448246.927    24448246.5514   24448263.2814
        -0.000          -0.000
 99  4 14 19 18  0.0000000  0  8  8  2  4 24  7  5  9 16            -0.000000022
 -14779984.671 9 -11496329.32047  22289746.474    22289745.8904   22289757.7464
        -0.000          -0.000
  11243798.372 8   8715773.52345  23625018.663    23625018.1104   23625035.9364
        -0.000          -0.000
 -16687102.674 9 -12988317.17649  20277259.025    20277259.1364   20277268.0024
        -0.000          -0.000
 -23185945.010 9 -18046114.69448  21037029.328    21037029.0984   21037040.4874
        -0.000          -0.000
  11745485.148 9   9149946.09646  22677156.560    22677155.7914   22677167.8864
        -0.000          -0.000
 -16059142.167 9 -11804447.88747  22467809.120    22467808.5204   22467819.8434
        -0.000          -0.000
 -15156410.162 9 -11789533.29348  21247051.359    21247051.1624   21247060.8664
        -0.000          -0.000
  -5686137.430 8  -4425774.96545  24446840.562    24446840.1944   24446856.8774
        -0.000          -0.000
 99  4 14 19 18 30.0000000  0  8  8  2  4 24  7  5  9 16            -0.000000006
 -14844525.961 9 -11546621.20347  22277464.675    22277464.0924   22277475.8624
        -0.000          -0.000
  11323885.648 9   8778178.83045  23640259.036    23640258.4094   23640276.2864
        -0.000          -0.000
 -16672612.819 9 -12977026.40449  20280016.365    20280016.4774   20280025.3514
        -0.000          -0.000
 -23252196.782 9 -18097739.39848  21024422.052    21024421.8164   21024433.1514
        -0.000          -0.000
  11808494.250 9   9199043.95447  22689146.993    22689146.1814   22689158.3114
        -0.000          -0.000
 -16139605.924 9 -11867146.85247  22452497.336    22452496.7204   22452508.0724
        -0.000          -0.000
 -15141561.401 9 -11777962.89248  21249877.041    21249876.8364   21249886.5564
        -0.000          -0.000
  -5693069.408 8  -4431176.47245  24445521.390    24445521.0484   24445537.6994
        -0.000          -0.000
 99  4 14 19 19  0.0000000  0  8  8  2  4 24  7  5  9 16             0.000000005
 -14908548.317 9 -11596508.71947  22265281.666    22265281.0364   22265292.7634
        -0.000          -0.000
  11404202.469 9   8840763.00845  23655543.137    23655542.4694   23655560.3514
        -0.000          -0.000
 -16657557.354 9 -12965294.90149  20282881.360    20282881.4634   20282890.3124
        -0.000          -0.000
 -23318016.315 9 -18149027.29348  21011896.952    21011896.7274   21011908.0904
        -0.000          -0.000
  11871525.844 9   9248159.34546  22701141.647    22701140.7974   22701153.0434
        -0.000          -0.000
 -16219952.700 9 -11929754.67247  22437207.856    22437207.2354   22437218.5174
        -0.000          -0.000
 -15126178.638 9 -11765976.38748  21252804.332    21252804.1404   21252813.8544
        -0.000          -0.000
  -5699542.344 8  -4436220.29445  24444289.458    24444289.0414   24444305.9574
        -0.000          -0.000
 99  4 14 19 19 30.0000000  0  8  8  2  4 24  7  5  9 16             0.000000016
 -14972048.711 9 -11645989.50747  22253197.837    22253197.2424   22253208.9824
        -0.000          -0.000
  11484767.926 9   8903540.92745  23670874.494    23670873.8154   23670891.8974
        -0.000          -0.000
 -16641914.794 9 -12953105.92149  20285858.027    20285858.1334   20285867.0054
        -0.000          -0.000
 -23383387.543 9 -18199965.86148  20999457.195    20999456.9794   20999468.3104
        -0.000          -0.000
  11934588.676 9   9297299.07246  22713142.116    22713141.3004   22713153.6024
        -0.000          -0.000
 -16300162.189 9 -11992255.51447  22421944.470    22421943.8314   22421955.1194
        -0.000          -0.000
 -15110258.678 9 -11753571.28748  21255833.832    21255833.6424   21255843.3854
        -0.000          -0.000
  -5705544.089 8  -4440896.94445  24443147.386    24443146.9914   24443163.7654
        -0.000          -0.000
 99  4 14 19 20  0.0000000  0  8  8  2  4 24  7  5  9 16             0.000000023
 -15035054.931 9 -11695085.22747  22241208.150    22241207.6024   22241219.3194
        -0.000          -0.000
  11565582.463 9   8966512.94445  23686253.223    23686252.5874   23686270.6974
        -0.000          -0.000
 -16625704.075 9 -12940474.21949  20288942.853    20288942.9574   20288951.8414
        -0.000          -0.000
 -23448303.580 9 -18250549.72948  20987104.052    20987103.8304   20987115.1514
        -0.000          -0.000
  11997680.817 9   9346461.63646  22725148.313    22725147.4374   22725159.7784
        -0.000          -0.000
 -16380254.451 9 -12054665.00947  22406703.429    22406702.7434   22406714.0614
        -0.000          -0.000
 -15093807.559 9 -11740752.29748  21258964.457    21258964.2654   21258974.0154
        -0.000          -0.000
  -5711080.203 8  -4445210.78245  24442094.048    24442093.5814   24442110.1404
        -0.000          -0.000
 99  4 14 19 20 30.0000000  0  8  8  2  4 24  7  5  9 16             0.000000014
 -15097577.609 9 -11743804.16947  22229310.486    22229309.9494   22229321.6184
        -0.000          -0.000
  11646644.271 9   9029677.61745  23701679.136    23701678.3484   23701696.5514
        -0.000          -0.000
 -16608919.866 9 -12927395.65249  20292136.795    20292136.9264   20292145.8004
        -0.000          -0.000
 -23512749.898 9 -18300767.58648  20974840.320    20974840.0704   20974851.4134
        -0.000          -0.000
  12060806.215 9   9395650.11746  22737160.720    22737159.8824   22737172.3314
        -0.000          -0.000
 -16460246.608 9 -12116996.50047  22391481.333    22391480.6504   22391492.0074
        -0.000          -0.000
 -15076819.760 9 -11727515.11548  21262197.123    21262196.9474   21262206.7094
        -0.000          -0.000
  -5716149.498 8  -4449160.86645  24441129.487    24441128.9294   24441145.4094
        -0.000          -0.000
 99  4 14 19 21  0.0000000  0  8  8  2  4 24  7  5  9 16             0.000000006
 -15159608.153 9 -11792139.61447  22217506.455    22217505.9214   22217517.5554
        -0.000          -0.000
  11727977.791 9   9093054.01945  23717156.661    23717155.9734   23717174.1094
        -0.000          -0.000
 -16591548.587 9 -12913859.61449  20295442.480    20295442.6074   20295451.4724
        -0.000          -0.000
 -23576705.976 9 -18350603.43748  20962669.837    20962669.6164   20962680.8934
        -0.000          -0.000
  12123971.513 9   9444869.68446  22749180.753    22749179.9004   22749192.4054
        -0.000          -0.000
 -16540121.570 9 -12179236.67847  22376281.590    22376280.9034   22376292.2094
        -0.000          -0.000
 -15059263.151 9 -11713834.70248  21265538.074    21265537.8844   21265547.6334
        -0.000          -0.000
  -5720729.114 8  -4452729.37345  24440257.716    24440257.1934   24440273.9264
        -0.000          -0.000
 99  4 14 19 21 30.0000000  0  8  8  2  4 24  7  5  9 16             0.000000001
 -15221161.915 9 -11840103.54747  22205793.094    22205792.5704   22205804.2544
        -0.000          -0.000
  11809565.323 9   9156628.35945  23732682.591    23732681.9264   23732699.9884
        -0.000          -0.000
 -16573621.249 9 -12899890.28849  20298853.953    20298854.0764   20298862.9504
        -0.000          -0.000
 -23640174.080 9 -18400059.05248  20950592.244    20950592.0074   20950603.2614
        -0.000          -0.000
  12187147.269 9   9494097.40546  22761202.758    22761201.9084   22761214.3914
        -0.000          -0.000
 -16619908.173 9 -12241408.00147  22361098.633    22361098.0044   22361109.2434
        -0.000          -0.000
 -15041151.069 9 -11699721.45348  21268984.718    21268984.5284   21268994.3474
        -0.000          -0.000
  -5724808.999 8  -4455908.48645  24439481.261    24439480.7794   24439497.5374
        -0.000          -0.000
 99  4 14 19 22  0.0000000  0  8  8  2  4 24  7  5  9 16            -0.000000003
 -15282232.852 9 -11887691.25547  22194171.689    22194171.1454   22194182.7964
        -0.000          -0.000
  11891392.945 9   9220389.77345  23748253.998    23748253.3364   23748271.6334
        -0.000          -0.000
 -16555152.561 9 -12885499.13249  20302368.475    20302368.5834   20302377.4464
        -0.000          -0.000
 -23703170.416 9 -18449147.04948  20938604.391    20938604.1564   20938615.4434
        -0.000          -0.000
  12250312.565 9   9543316.97946  22773222.875    22773222.0364   22773234.5004
        -0.000          -0.000
 -16699628.993 9 -12303528.07347  22345928.172    22345927.6064   22345938.7504
        -0.000          -0.000
 -15022488.739 9 -11685179.43848  21272536.085    21272535.9204   21272545.7504
        -0.000          -0.000
  -5728380.697 8  -4458691.61645  24438801.812    24438801.2504   24438817.9044
        -0.000          -0.000
 99  4 14 19 22 30.0000000  0  8  8  2  4 24  7  5  9 16            -0.000000007
 -15342796.136 9 -11934883.39347  22182646.833    22182646.3144   22182657.9474
        -0.000          -0.000
  11973459.047 9   9284336.99545  23763870.955    23763870.2344   23763888.7184
        -0.000          -0.000
 -16536125.014 9 -12870672.49849  20305989.321    20305989.4364   20305998.3114
        -0.000          -0.000
 -23765705.118 9 -18497875.34248  20926704.416    20926704.1744   20926715.4244
        -0.000          -0.000
  12313466.901 9   9592528.00446  22785240.680    22785239.8874   22785252.4234
        -0.000          -0.000
 -16779274.905 9 -12365589.76047  22330772.005    22330771.4794   22330782.5754
        -0.000          -0.000
 -15003272.332 9 -11670205.67048  21276192.939    21276192.7484   21276202.5864
        -0.000          -0.000
  -5731447.679 8  -4461081.44045  24438218.240    24438217.5344   24438234.1904
        -0.000          -0.000
 99  4 14 19 23  0.0000000  0  8  8  2  4 24  7  5  9 16            -0.000000011
 -15402839.511 9 -11981670.40947  22171220.931    22171220.3744   22171232.0244
        -0.000          -0.000
  12055758.864 9   9348466.34445  23779532.512    23779531.7524   23779550.1824
        -0.000          -0.000
 -16516537.087 9 -12855409.21049  20309716.789    20309716.9064   20309725.7784
        -0.000          -0.000
 -23827788.510 9 -18546251.96148  20914890.242    20914890.0334   20914901.3014
        -0.000          -0.000
  12376616.420 9   9641735.28446  22797257.569    22797256.8974   22797269.5614
        -0.000          -0.000
 -16858833.352 9 -12427583.30347  22315632.435    22315631.9304   22315642.9934
        -0.000          -0.000
 -14983508.376 9 -11654805.24948  21279953.924    21279953.7544   21279963.5914
        -0.000          -0.000
  -5734002.203 8  -4463071.95745  24437731.982    24437731.3804   24437747.9554
        -0.000          -0.000
 99  4 14 19 23 30.0000000  0  8  8  2  4 24  7  5  9 16            -0.000000016
 -15462328.216 9 -12028025.21147  22159900.510    22159900.0014   22159911.6354
        -0.000          -0.000
  12138300.462 9   9412784.08745  23795240.087    23795239.2584   23795257.7354
        -0.000          -0.000
 -16496352.812 9 -12839681.22649  20313557.772    20313557.8774   20313566.7694
        -0.000          -0.000
 -23889403.512 9 -18594263.60548  20903165.284    20903165.0504   20903176.2814
        -0.000          -0.000
  12439807.405 9   9690974.87246  22809282.574    22809281.8824   22809294.5234
        -0.000          -0.000
 -16938285.372 9 -12489493.90447  22300513.192    22300512.6964   22300523.7564
        -0.000          -0.000
 -14963186.397 9 -11638969.99848  21283821.109    21283820.9474   21283830.8184
        -0.000          -0.000
  -5736020.100 8  -4464644.33445  24437347.685    24437347.2784   24437364.0044
        -0.000          -0.000
 99  4 14 19 24  0.0000000  0  8  8  2  4 24  7  5  9 16            -0.000000028
 -15521257.911 9 -12073944.42547  22148686.521    22148686.0344   22148697.6524
        -0.000          -0.000
  12221097.453 9   9477300.86645  23810996.039    23810995.2714   23811013.8414
        -0.000          -0.000
 -16475555.896 9 -12823475.86449  20317515.289    20317515.3974   20317524.3184
        -0.000          -0.000
 -23950558.089 9 -18641916.47348  20891527.895    20891527.6964   20891538.9064
        -0.000          -0.000
  12503062.480 9   9740264.41846  22821319.700    22821319.0794   22821331.7754
        -0.000          -0.000
 -17017616.495 9 -12551310.30747  22285416.938    22285416.4374   22285427.4874
        -0.000          -0.000
 -14942303.564 9 -11622697.71848  21287795.026    21287794.8364   21287804.7334
        -0.000          -0.000
  -5737527.228 8  -4465818.69645  24437060.959    24437060.4154   24437077.4094
        -0.000          -0.000
 99  4 14 19 24 30.0000000  0  8  8  2  4 24  7  5  9 16            -0.000000047
 -15579634.500 9 -12119432.66147  22137577.748    22137577.2444   22137588.9234
        -0.000          -0.000
  12304151.726 9   9542018.09145  23826800.989    23826800.2594   23826818.9204
        -0.000          -0.000
 -16454143.681 9 -12806791.04649  20321589.917    20321590.0264   20321598.9314
        -0.000          -0.000
 -24011238.095 9 -18689199.54048  20879980.845    20879980.6204   20879991.8374
        -0.000          -0.000
  12566401.239 9   9789619.16046  22833372.691    22833372.1554   22833384.8694
        -0.000          -0.000
 -17096794.209 9 -12613007.16447  22270349.870    22270349.3684   22270360.4424
        -0.000          -0.000
 -14920857.535 9 -11605986.59048  21291876.037    21291875.8614   21291885.7824
        -0.000          -0.000
  -5738525.996 8  -4466596.93145  24436871.246    24436870.5664   24436887.1324
        -0.000          -0.000
 99  4 14 19 25  0.0000000  0  8  8  2  4 24  7  5  9 16            -0.000000059
 -15637455.840 9 -12164488.22947  22126574.695    22126574.2114   22126585.9094
        -0.000          -0.000
  12387473.894 9   9606944.08245  23842656.814    23842656.2424   23842675.0564
        -0.000          -0.000
 -16432108.286 9 -12789620.63449  20325783.148    20325783.2734   20325792.1894
        -0.000          -0.000
 -24071419.802 9 -18736094.33248  20868528.614    20868528.3884   20868539.5774
        -0.000          -0.000
  12629829.755 9   9839043.83946  22845442.930    22845442.3394   22845455.0744
        -0.000          -0.000
 -17175785.222 9 -12674558.53847  22255318.335    22255317.8544   22255328.9174
        -0.000          -0.000
 -14898834.516 9 -11588825.84948  21296066.932    21296066.7704   21296076.7334
        -0.000          -0.000
  -5738985.797 8  -4466955.20045  24436783.731    24436783.1374   24436799.6424
        -0.000          -0.000
 99  4 14 19 25 30.0000000  0  8  8  2  4 24  7  5  9 16            -0.000000067
 -15694742.080 9 -12209126.83047  22115673.511    22115672.9484   22115684.6264
        -0.000          -0.000
  12471057.723 9   9672073.95045  23858562.641    23858562.0414   23858580.9014
        -0.000          -0.000
 -16409476.283 9 -12771985.33149  20330089.884    20330090.0024   20330098.9094
        -0.000          -0.000
 -24131123.880 9 -18782616.94248  20857167.283    20857167.0444   20857178.2444
        -0.000          -0.000
  12693305.316 9   9888505.16946  22857522.050    22857521.4674   22857534.1244
        -0.000          -0.000
 -17254604.339 9 -12735975.96747  22240319.517    22240319.0084   22240330.1224
        -0.000          -0.000
 -14876256.341 9 -11571232.53048  21300363.464    21300363.3154   21300373.2694
        -0.000          -0.000
  -5738934.024 8  -4466914.83745  24436793.456    24436793.0204   24436809.4344
        -0.000          -0.000
 99  4 14 19 26  0.0000000  0  8  8  2  4 24  7  5  9 16            -0.000000066
 -15751513.254 9 -12253364.08147  22104870.275    22104869.6974   22104881.3874
        -0.000          -0.000
  12554896.511 9   9737402.49845  23874516.896    23874516.2764   23874535.3344
        -0.000          -0.000
 -16386283.856 9 -12753913.33649  20334503.285    20334503.4164   20334512.3244
        -0.000          -0.000
 -24190355.049 9 -18828771.05848  20845895.877    20845895.6774   20845906.8504
        -0.000          -0.000
  12756786.226 9   9937970.67746  22869602.206    22869601.6144   22869614.2854
        -0.000          -0.000
 -17333246.345 9 -12797255.39447  22225354.356    22225353.8884   22225365.0774
        -0.000          -0.000
 -14853138.567 9 -11553218.74748  21304762.688    21304762.5104   21304772.4814
        -0.000          -0.000
  -5738388.582 8  -4466489.80445  24436897.255    24436896.7494   24436913.2694
        -0.000          -0.000
 99  4 14 19 26 30.0000000  0  8  8  2  4 24  7  5  9 16            -0.000000050
 -15807760.991 9 -12297193.46947  22094166.668    22094166.1074   22094177.8374
        -0.000          -0.000
  12638978.767 9   9802920.73945  23890517.425    23890516.8884   23890535.9804
        -0.000          -0.000
 -16362540.770 9 -12735412.25049  20339021.447    20339021.5684   20339030.5224
        -0.000          -0.000
 -24249110.548 9 -18874554.51048  20834715.047    20834714.8374   20834726.0024
        -0.000          -0.000
  12820249.996 9   9987422.82746  22881679.060    22881678.4934   22881691.1774
        -0.000          -0.000
 -17411715.143 9 -12858399.84047  22210422.102    22210421.7054   22210432.9544
        -0.000          -0.000
 -14829478.012 9 -11534782.01648  21309265.204    21309265.0234   21309274.9774
        -0.000          -0.000
  -5737329.722 8  -4465664.69745  24437098.662    24437098.1894   24437114.8244
        -0.000          -0.000
 99  4 14 19 27  0.0000000  0  8  8  2  4 24  7  5  9 16            -0.000000017
 -15863459.039 9 -12340594.52147  22083567.709    22083567.1354   22083578.8714
        -0.000          -0.000
  12723305.083 8   9868629.17345  23906564.546    23906563.9894   23906582.9274
        -0.000          -0.000
 -16338244.295 9 -12716479.95649  20343644.929    20343645.0484   20343653.9984
        -0.000          -0.000
 -24307393.473 9 -18919969.72648  20823624.177    20823623.9954   20823635.1214
        -0.000          -0.000
  12883689.247 9  10036855.87546  22893751.320    22893750.7074   22893763.4844
        -0.000          -0.000
 -17490040.614 9 -12919432.60247  22195517.278    22195516.8444   22195528.0364
        -0.000          -0.000
 -14805274.143 9 -11515921.91848  21313871.069    21313870.8944   21313880.8764
        -0.000          -0.000
  -5735761.884 8  -4464442.98745  24437397.047    24437396.4934   24437413.3084
        -0.000          -0.000
 99  4 14 19 27 30.0000000  0  8  8  2  4 24  7  5  9 16             0.000000018
 -15918613.718 9 -12383572.16247  22073072.087    22073071.5114   22073083.3004
        -0.000          -0.000
  12807858.530 8   9934514.59645  23922654.890    23922654.3204   23922673.4764
        -0.000          -0.000
 -16313418.770 9 -12697135.41849  20348369.119    20348369.2374   20348378.1804
        -0.000          -0.000
 -24365219.332 9 -18965028.79648  20812620.225    20812620.0234   20812631.1494
        -0.000          -0.000
  12947110.632 9  10086274.98846  22905820.146    22905819.4714   22905832.2934
        -0.000          -0.000
 -17568256.429 9 -12980379.93247  22180633.260    22180632.8374   22180643.9774
        -0.000          -0.000
 -14780548.220 9 -11496655.03748  21318576.357    21318576.1774   21318586.1674
        -0.000          -0.000
  -5733711.105 8  -4462844.97145  24437787.280    24437786.7024   24437803.2704
        -0.000          -0.000
 99  4 14 19 28  0.0000000  0  8  8  2  4 24  7  5  9 16             0.000000047
 -15973219.457 9 -12426122.05947  22062680.868    22062680.3544   22062692.0934
        -0.000          -0.000
  12892624.442 8  10000565.56845  23938785.689    23938785.1444   23938804.2294
        -0.000          -0.000
 -16288066.611 9 -12677380.50549  20353193.468    20353193.5674   20353202.5354
        -0.000          -0.000
 -24422570.699 9 -19009718.12448  20801706.581    20801706.3784   20801717.5164
        -0.000          -0.000
  13010538.559 9  10135699.20646  22917890.205    22917889.5264   22917902.3244
        -0.000          -0.000
 -17646369.230 9 -13041246.97447  22165768.828    22165768.3884   22165779.5484
        -0.000          -0.000
 -14755304.813 9 -11476984.91648  21323380.107    21323379.9014   21323389.8864
        -0.000          -0.000
  -5731179.402 8  -4460872.20645  24438269.027    24438268.5994   24438284.9614
        -0.000          -0.000
 99  4 14 19 28 30.0000000  0  8  8  2  4 24  7  5  9 16             0.000000064
 -16027255.796 9 -12468228.26647  22052398.106    22052397.5834   22052409.3324
        -0.000          -0.000
  12977617.551 8  10066793.59645  23954959.560    23954959.1064   23954978.5284
        -0.000          -0.000
 -16262149.876 9 -12657185.67249  20358125.253    20358125.3834   20358134.3584
        -0.000          -0.000
 -24479436.818 9 -19054029.34248  20790885.259    20790885.0604   20790896.1854
        -0.000          -0.000
  13074006.881 9  10185154.90546  22929968.035    22929967.2844   22929980.1014
        -0.000          -0.000
 -17724389.486 9 -13102041.91547  22150922.047    22150921.5864   22150932.7424
        -0.000          -0.000
 -14729539.263 9 -11456907.93648  21328283.139    21328282.9574   21328292.9764
        -0.000          -0.000
  -5728152.889 8  -4458513.88445  24438844.965    24438844.5404   24438861.0184
        -0.000          -0.000
 99  4 14 19 29  0.0000000  0  8  8  2  4 24  7  5  9 16             0.000000071
 -16080730.214 9 -12509896.62147  22042222.255    22042221.7074   22042233.4414
        -0.000          -0.000
  13062855.422 8  10133212.32045  23971180.043    23971179.4374   23971198.9224
        -0.000          -0.000
 -16235666.250 9 -12636549.10149  20363164.938    20363165.0744   20363174.0754
        -0.000          -0.000
 -24535815.453 9 -19097960.70148  20780156.765    20780156.5474   20780167.6464
        -0.000          -0.000
  13137538.674 9  10234660.05446  22942057.888    22942057.1344   22942070.0014
        -0.000          -0.000
 -17802297.514 9 -13162749.39447  22136096.597    22136096.1594   22136107.3204
        -0.000          -0.000
 -14703255.876 9 -11436427.44748  21333284.763    21333284.5844   21333294.5954
        -0.000          -0.000
  -5724632.918 8  -4455771.05245  24439514.986    24439514.4564   24439530.7554
        -0.000          -0.000
 99  4 14 19 29 30.0000000  0  8  8  2  4 24  7  5  9 16             0.000000068
 -16133672.265 9 -12551150.13647  22032147.734    22032147.2024   22032158.8674
        -0.000          -0.000
  13148334.544 8  10199819.04445  23987446.347    23987445.7274   23987465.3634
        -0.000          -0.000
 -16208643.325 9 -12615492.29849  20368307.255    20368307.3844   20368316.3754
        -0.000          -0.000
 -24591709.188 9 -19141514.21048  20769520.547    20769520.3204   20769531.3994
        -0.000          -0.000
  13201120.489 9  10284204.18646  22954157.284    22954156.5384   22954169.4374
        -0.000          -0.000
 -17880082.675 9 -13223361.13747  22121294.554    22121294.0374   22121305.2164
        -0.000          -0.000
 -14676469.245 9 -11415554.82248  21338382.164    21338381.9664   21338391.9964
        -0.000          -0.000
  -5720636.268 8  -4452656.77645  24440275.452    24440274.9004   24440291.4074
        -0.000          -0.000
 99  4 14 19 30  0.0000000  0  8  8  2  4 24  7  5  9 16             0.000000062
 -16186081.057 9 -12591988.12547  22022174.684    22022174.1364   22022185.7764
        -0.000          -0.000
  13234064.874 8  10266621.51145  24003760.553    24003759.8924   24003779.7144
        -0.000          -0.000
 -16181068.766 9 -12594005.64949  20373554.536    20373554.6714   20373563.6784
        -0.000          -0.000
 -24647113.795 9 -19184686.58248  20758977.399    20758977.1594   20758988.1854
        -0.000          -0.000
  13264747.591 9  10333783.60646  22966265.086    22966264.3754   22966277.4134
        -0.000          -0.000
 -17957728.128 9 -13283864.01947  22106519.053    22106518.5264   22106529.7194
        -0.000          -0.000
 -14649168.524 9 -11394281.60448  21343577.352    21343577.1594   21343587.2254
        -0.000          -0.000
  -5716140.354 8  -4449153.46645  24441130.765    24441130.2484   24441146.7204
        -0.000          -0.000
 99  4 14 19 30 30.0000000  0  8  8  2  4 24  7  5  9 16             0.000000069
 -16237952.385 9 -12632407.31047  22012303.772    22012303.2804   22012314.9234
        -0.000          -0.000
  13320062.553 8  10333632.30845  24020125.692    24020125.0034   24020145.1454
        -0.000          -0.000
 -16152931.561 9 -12572080.58249  20378908.902    20378909.0354   20378918.0344
        -0.000          -0.000
 -24702039.310 9 -19227485.63848  20748525.356    20748525.1454   20748536.1814
        -0.000          -0.000
  13328423.973 9  10383401.42046  22978382.404    22978381.7074   22978394.7494
        -0.000          -0.000
 -18035206.581 9 -13344236.77447  22091775.372    22091774.8734   22091786.0154
        -0.000          -0.000
 -14621317.170 9 -11372579.32948  21348877.331    21348877.1504   21348887.2244
        -0.000          -0.000
  -5711114.535 8  -4445237.24145  24442087.100    24442086.5364   24442102.9994
        -0.000          -0.000
 99  4 14 19 31  0.0000000  0  8  8  2  4 24  7  5  9 16             0.000000084
 -16289311.726 9 -12672427.53547  22002530.366    22002529.8954   22002541.5314
        -0.000          -0.000
  13406289.892 8  10400822.06045  24036534.533    24036533.7834   24036553.9934
        -0.000          -0.000
 -16124281.986 9 -12549756.25849  20384360.762    20384360.8814   20384369.8904
        -0.000          -0.000
 -24756505.172 9 -19269926.52448  20738160.888    20738160.6704   20738171.6204
        -0.000          -0.000
  13392116.664 9  10433031.93646  22990502.867    22990502.1964   22990515.2394
        -0.000          -0.000
 -18112528.518 9 -13404487.56847  22077061.428    22077060.9294   22077072.0304
        -0.000          -0.000
 -14592923.268 9 -11350454.28648  21354280.558    21354280.3794   21354290.4704
        -0.000          -0.000
  -5705577.748 8  -4440922.86745  24443140.814    24443140.3054   24443156.7514
        -0.000          -0.000
 99  4 14 19 31 30.0000000  0  8  8  2  4 24  7  5  9 16             0.000000087
 -16340164.832 9 -12712053.31147  21992853.364    21992852.8754   21992864.5164
        -0.000          -0.000
  13492711.026 8  10468162.81945  24052980.344    24052979.6584   24052999.6614
        -0.000          -0.000
 -16095133.217 9 -12527042.96449  20389907.551    20389907.6814   20389916.7294
        -0.000          -0.000
 -24810512.861 9 -19312010.38948  20727883.569    20727883.3354   20727894.3184
        -0.000          -0.000
  13455803.261 9  10482657.70946  23002622.124    23002621.4364   23002634.5434
        -0.000          -0.000
 -18189734.264 9 -13464647.82547  22062369.599    22062369.1204   22062380.1584
        -0.000          -0.000
 -14564004.086 9 -11327919.94048  21359783.763    21359783.5794   21359793.6764
        -0.000          -0.000
  -5699539.928 8  -4436218.05845  24444289.775    24444289.2614   24444305.6554
        -0.000          -0.000
 99  4 14 19 32  0.0000000  0  8  8  2  4 24  7  5  9 16             0.000000081
 -16390487.522 9 -12751265.76347  21983277.270    21983276.8044   21983288.3394
        -0.000          -0.000
  13579332.714 8  10535659.84845  24069464.313    24069463.5764   24069483.5894
        -0.000          -0.000
 -16065452.342 9 -12503915.03249  20395555.697    20395555.8204   20395564.8834
        -0.000          -0.000
 -24864046.094 9 -19353724.54748  20717696.479    20717696.2274   20717707.2044
        -0.000          -0.000
  13519499.061 9  10532290.65246  23014743.128    23014742.4454   23014755.5774
        -0.000          -0.000
 -18266805.240 9 -13524703.06247  22047703.432    22047702.9634   22047713.9654
        -0.000          -0.000
 -14534539.521 9 -11304960.61448  21365390.687    21365390.5384   21365400.6344
        -0.000          -0.000
  -5692966.720 8  -4431096.07545  24445540.601    24445539.9454   24445556.5844
        -0.000          -0.000
 99  4 14 19 32 30.0000000  0  8  8  2  4 24  7  5  9 16             0.000000055
 -16440287.248 9 -12790070.72447  21973800.674    21973800.2144   21973811.7104
        -0.000          -0.000
  13666136.371 8  10603298.66245  24085982.850    24085982.2004   24086002.2454
        -0.000          -0.000
 -16035255.549 9 -12480385.08849  20401301.969    20401302.0924   20401311.1734
        -0.000          -0.000
 -24917106.533 9 -19395070.29948  20707599.330    20707599.1084   20707610.0664
        -0.000          -0.000
  13583188.075 9  10581918.30546  23026862.881    23026862.1654   23026875.2774
        -0.000          -0.000
 -18343751.799 9 -13584661.35247  22033060.996    22033060.5304   22033071.4484
        -0.000          -0.000
 -14504543.606 9 -11281587.25148  21371098.818    21371098.6364   21371108.7634
        -0.000          -0.000
  -5685886.713 8  -4425579.19545  24446887.798    24446887.1034   24446904.0014
        -0.000          -0.000
 99  4 14 19 33  0.0000000  0  8  8  2  4 24  7  5  9 16             0.000000019
 -16489521.440 9 -12828435.00947  21964431.737    21964431.2414   21964442.7594
        -0.000          -0.000
  13753145.270 8  10671097.42545  24102540.502    24102539.7584   24102559.7194
        -0.000          -0.000
 -16004515.731 9 -12456432.01049  20407151.579    20407151.6834   20407160.7914
        -0.000          -0.000
 -24969647.165 9 -19436011.00548  20697601.155    20697600.8994   20697611.8564
        -0.000          -0.000
  13646891.564 9  10631557.25046  23038985.400    23038984.5834   23038997.7914
        -0.000          -0.000
 -18420557.517 9 -13644509.90947  22018445.362    22018444.8484   22018455.7174
        -0.000          -0.000
 -14474018.573 9 -11257801.59248  21376907.578    21376907.4154   21376917.5434
        -0.000          -0.000
  -5678285.037 8  -4419655.81545  24448334.383    24448333.6104   24448350.3584
        -0.000          -0.000
 99  4 14 19 33 30.0000000  0  8  8  2  4 24  7  5  9 16            -0.000000027
 -16538179.242 9 -12866350.15747  21955172.429    21955171.9314   21955183.4794
        -0.000          -0.000
  13840368.630 8  10739063.26945  24119138.763    24119138.0484   24119158.1304
        -0.000          -0.000
 -15973215.517 9 -12432042.26049  20413107.843    20413107.9594   20413117.0534
        -0.000          -0.000
 -25021665.209 9 -19476544.50848  20687702.402    20687702.1724   20687713.0744
        -0.000          -0.000
  13710609.975 9  10681207.80746  23051110.749    23051109.9194   23051123.2004
        -0.000          -0.000
 -18497206.296 9 -13704236.17147  22003859.558    22003859.0654   22003869.8594
        -0.000          -0.000
 -14442979.067 9 -11233615.05048  21382814.284    21382814.1064   21382824.2684
        -0.000          -0.000
  -5670159.345 8  -4413324.10445  24449880.737    24449880.1004   24449896.4944
        -0.000          -0.000
 99  4 14 19 34  0.0000000  0  8  8  2  4 24  7  5  9 16            -0.000000064
 -16586239.999 9 -12903800.07747  21946026.723    21946026.2224   21946037.7584
        -0.000          -0.000
  13927843.677 8  10807225.26945  24135785.098    24135784.1634   24135804.3884
        -0.000          -0.000
 -15941328.450 9 -12407195.21849  20419175.749    20419175.8594   20419184.9884
        -0.000          -0.000
 -25073155.418 9 -19516666.70148  20677904.158    20677903.8954   20677914.8004
        -0.000          -0.000
  13774357.591 9  10730881.13046  23063241.570    23063240.8004   23063254.1054
        -0.000          -0.000
 -18573645.402 9 -13763799.05047  21989313.556    21989313.0754   21989323.8754
        -0.000          -0.000
 -14411406.827 9 -11209013.38648  21388822.345    21388822.1764   21388832.3254
        -0.000          -0.000
  -5661497.076 8  -4406574.28845  24451529.030    24451528.4694   24451544.6824
        -0.000          -0.000
 99  4 14 19 34 30.0000000  0  8  8  2  4 24  7  5  9 16            -0.000000089
 -16633694.190 9 -12940777.35047  21936996.574    21936996.0444   21937007.5204
        -0.000          -0.000
  14015580.681 8  10875591.39045  24152481.000    24152480.3554   24152500.6974
        -0.000          -0.000
 -15908852.544 9 -12381889.34949  20425355.770    20425355.8804   20425364.9924
        -0.000          -0.000
 -25124119.113 9 -19556378.63348  20668206.020    20668205.7694   20668216.6234
        -0.000          -0.000
  13838145.878 9  10780586.14346  23075380.251    23075379.4374   23075392.7744
        -0.000          -0.000
 -18649873.530 9 -13823197.53347  21974807.774    21974807.3274   21974818.0974
        -0.000          -0.000
 -14379306.583 9 -11184000.28948  21394930.887    21394930.7274   21394940.8884
        -0.000          -0.000
  -5652308.505 8  -4399414.35845  24453277.535    24453276.8884   24453293.3014
        -0.000          -0.000
 99  4 14 19 35  0.0000000  0  8  8  2  4 24  7  5  9 16            -0.000000101
 -16680538.241 9 -12977279.20247  21928082.455    21928081.9154   21928093.4034
        -0.000          -0.000
  14103590.002 8  10944169.69045  24169228.572    24169228.1514   24169248.8134
        -0.000          -0.000
 -15875776.397 9 -12356115.75249  20431649.959    20431650.0834   20431659.1934
        -0.000          -0.000
 -25174562.591 9 -19595685.19548  20658606.899    20658606.6544   20658617.5544
        -0.000          -0.000
  13901980.014 9  10830326.88346  23087527.519    23087526.7874   23087540.1894
        -0.000          -0.000
 -18725893.650 9 -13882433.93447  21960341.543    21960341.0834   21960351.8794
        -0.000          -0.000
 -14346675.782 9 -11158573.77348  21401140.371    21401140.2094   21401150.3894
        -0.000          -0.000
  -5642589.177 8  -4391840.86145  24455127.165    24455126.5284   24455142.8244
        -0.000          -0.000
 99  4 14 19 35 30.0000000  0  8  8  2  4 24  7  5  9 16            -0.000000103
 -16726797.894 9 -13013325.66847  21919279.515    21919278.9694   21919290.4944
        -0.000          -0.000
  14191871.556 8  11012960.13145  24186028.324    24186027.8304   24186048.7754
        -0.000          -0.000
 -15842108.528 9 -12329881.07349  20438056.782    20438056.8784   20438065.9884
        -0.000          -0.000
 -25224503.458 9 -19634600.11648  20649103.455    20649103.2234   20649114.0814
        -0.000          -0.000
  13965860.147 9  10880103.47346  23099683.684    23099682.9624   23099696.3264
        -0.000          -0.000
 -18801704.917 9 -13941507.59947  21945915.127    21945914.6604   21945925.4534
        -0.000          -0.000
 -14313507.286 9 -11132728.27648  21407452.172    21407451.9894   21407462.2294
        -0.000          -0.000
  -5632352.621 8  -4383864.32845  24457074.912    24457074.6094   24457090.7554
        -0.000          -0.000
 99  4 14 19 36  0.0000000  0  8  8  2  4 24  7  5  9 16            -0.000000093
 -16772475.729 9 -13048918.77847  21910587.248    21910586.7164   21910598.2254
        -0.000          -0.000
  14280425.174 8  11081962.56845  24202879.940    24202879.5154   24202900.4084
        -0.000          -0.000
 -15807861.467 9 -12303195.07549  20444573.824    20444573.9164   20444583.0104
        -0.000          -0.000
 -25273937.538 9 -19673120.13348  20639696.438    20639696.2064   20639707.0864
        -0.000          -0.000
  14029795.610 9  10929923.18146  23111850.306    23111849.5804   23111863.0114
        -0.000          -0.000
 -18877325.619 9 -14000432.77047  21931524.919    21931524.4814   21931535.2824
        -0.000          -0.000
 -14279787.435 9 -11106453.14648  21413868.933    21413868.7574   21413878.9944
        -0.000          -0.000
  -5621590.439 8  -4375478.20345  24459123.080    24459122.8714   24459138.9524
        -0.000          -0.000
 99  4 14 19 36 30.0000000  0  8  8  2  4 24  7  5  9 16            -0.000000081
 -16817590.359 9 -13084073.02047  21902002.259    21902001.6904   21902013.1594
        -0.000          -0.000
  14369216.466 8  11151150.20545  24219776.831    24219776.1184   24219797.1754
        -0.000          -0.000
 -15773070.872 9 -12276085.54449  20451194.249    20451194.3434   20451203.4314
        -0.000          -0.000
 -25322874.729 9 -19711252.97048  20630384.002    20630383.7634   20630394.6054
        -0.000          -0.000
  14093777.791 9  10979779.27846  23124025.799    23124025.0614   23124038.5924
        -0.000          -0.000
 -18952791.972 9 -14059237.66447  21917164.153    21917163.6634   21917174.4464
        -0.000          -0.000
 -14245524.912 9 -11079755.15848  21420388.910    21420388.7334   21420399.0184
        -0.000          -0.000
  -5610315.069 8  -4366692.17945  24461269.134    24461268.3574   24461284.5404
        -0.000          -0.000
 99  4 14 19 37  0.0000000  0  8  8  2  4 24  7  5  9 16            -0.000000064
 -16862142.111 9 -13118788.66347  21893524.264    21893523.7594   21893535.2464
        -0.000          -0.000
  14458238.704 8  11220517.78645  24236717.404    24236716.8594   24236737.9794
        -0.000          -0.000
 -15737753.158 9 -12248565.27249  20457914.999    20457915.1104   20457924.2044
        -0.000          -0.000
 -25371313.185 9 -19748997.17848  20621166.448    20621166.1944   20621177.0144
        -0.000          -0.000
  14157802.721 9  11029668.70346  23136209.483    23136208.7564   23136222.3234
        -0.000          -0.000
 -19028099.856 9 -14117919.08247  21902833.564    21902833.0544   21902843.7914
        -0.000          -0.000
 -14210715.478 9 -11052631.00448  21427012.977    21427012.7884   21427023.1064
        -0.000          -0.000
  -5598515.486 8  -4357497.72745  24463514.267    24463513.5334   24463529.8614
        -0.000          -0.000
 99  4 14 19 37 30.0000000  0  8  8  2  4 24  7  5  9 16            -0.000000067
 -16906175.409 9 -13153100.31047  21885145.049    21885144.4904   21885155.9944
        -0.000          -0.000
  14547432.185 8  11290018.81845  24253690.688    24253690.0994   24253711.4294
        -0.000          -0.000
 -15701972.277 9 -12220684.09249  20464723.873    20464723.9864   20464733.1184
        -0.000          -0.000
 -25419296.889 9 -19786387.03648  20612035.384    20612035.1454   20612045.9654
        -0.000          -0.000
  14221824.969 9  11079556.02446  23148392.627    23148391.8924   23148405.4614
        -0.000          -0.000
 -19103283.530 9 -14176503.71147  21888526.563    21888526.0694   21888536.7924
        -0.000          -0.000
 -14175420.618 9 -11025128.59848  21433729.454    21433729.2484   21433739.5974
        -0.000          -0.000
  -5586234.257 8  -4347927.92645  24465850.989    24465850.5444   24465867.0714
        -0.000          -0.000
 99  4 14 19 38  0.0000000  0  8  8  2  4 24  7  5  9 16            -0.000000080
 -16949663.801 9 -13186987.35647  21876869.422    21876868.8994   21876880.4054
        -0.000          -0.000
  14636797.114 8  11359653.44145  24270696.577    24270696.0164   24270717.3024
        -0.000          -0.000
 -15665721.204 9 -12192436.53149  20471622.271    20471622.3614   20471631.4964
        -0.000          -0.000
 -25466810.668 9 -19823410.71448  20602993.761    20602993.5444   20603004.3274
        -0.000          -0.000
  14285853.210 9  11129448.01846  23160576.996    23160576.1674   23160589.8114
        -0.000          -0.000
 -19178320.282 9 -14234973.84647  21874247.478    21874246.9944   21874257.6994
        -0.000          -0.000
 -14139636.277 9 -10997244.77148  21440539.084    21440538.8744   21440549.2264
        -0.000          -0.000
  -5573441.798 8  -4337959.77145  24468285.270    24468284.8094   24468301.4674
        -0.000          -0.000
 99  4 14 19 38 30.0000000  0  8  8  2  4 24  7  5  9 16            -0.000000096
 -16992593.236 9 -13220438.84647  21868700.238    21868699.6744   21868711.1734
        -0.000          -0.000
  14726351.877 8  11429436.00145  24287738.487    24287737.9884   24287759.2224
        -0.000          -0.000
 -15628979.922 9 -12163806.99249  20478613.905    20478614.0104   20478623.1474
        -0.000          -0.000
 -25513842.051 9 -19860058.50448  20594043.959    20594043.7404   20594054.5304
        -0.000          -0.000
  14349889.952 9  11179346.63446  23172762.659    23172761.9604   23172775.6364
        -0.000          -0.000
 -19253176.448 9 -14293303.28247  21860002.766    21860002.2864   21860012.9874
        -0.000          -0.000
 -14103368.544 9 -10968984.28448  21447440.620    21447440.4164   21447450.8284
        -0.000          -0.000
  -5560136.622 8  -4327592.10345  24470817.265    24470816.7364   24470833.3004
        -0.000          -0.000
 99  4 14 19 39  0.0000000  0  8  8  2  4 24  7  5  9 16            -0.000000106
 -17034941.061 9 -13253437.13947  21860641.692    21860641.1134   21860652.6314
        -0.000          -0.000
  14816122.556 8  11499386.79945  24304821.695    24304821.0324   24304842.3654
        -0.000          -0.000
 -15591725.443 9 -12134777.55249  20485703.237    20485703.3134   20485712.4404
        -0.000          -0.000
 -25560367.180 9 -19896311.81248  20585190.487    20585190.2894   20585201.0434
        -0.000          -0.000
  14413943.829 9  11229258.60446  23184951.760    23184951.0724   23184964.7844
        -0.000          -0.000
 -19327828.649 9 -14351473.77047  21845796.843    21845796.3904   21845807.0804
        -0.000          -0.000
 -14066612.732 9 -10940343.46748  21454435.025    21454434.8544   21454445.2714
        -0.000          -0.000
  -5546302.326 8  -4316812.10645  24473449.750    24473449.2344   24473465.9094
        -0.000          -0.000
 99  4 14 19 39 30.0000000  0  7  8  4 24  7  5  9 16               -0.000000047
 -17076819.745 9 -13286069.87447  21852672.406    21852671.8804   21852683.3864
        -0.000          -0.000
 -15554064.105 9 -12105431.08749  20492869.950    20492870.0614   20492879.1894
        -0.000          -0.000
 -25606497.337 9 -19932257.34548  20576412.182    20576411.9664   20576422.7184
        -0.000          -0.000
  14477895.455 9  11279090.88146  23197121.512    23197120.8374   23197134.5394
        -0.000          -0.000
 -19402401.598 9 -14409582.50147  21831606.080    21831605.6044   21831616.3354
        -0.000          -0.000
 -14029487.602 9 -10911414.87448  21461499.802    21461499.6334   21461510.0414
        -0.000          -0.000
  -5532059.861 8  -4305714.09945  24476160.028    24476159.3274   24476176.1254
        -0.000          -0.000
 99  4 14 19 40  0.0000000  0  7  8  4 24  7  5  9 16               -0.000000086
 -17118060.368 9 -13318205.41547  21844824.614    21844824.0934   21844835.5914
        -0.000          -0.000
 -15515827.219 9 -12075636.14149  20500146.224    20500146.3344   20500155.4674
        -0.000          -0.000
 -25652066.111 9 -19967765.44048  20567740.726    20567740.5004   20567751.2364
        -0.000          -0.000
  14541896.525 9  11328961.70246  23209300.653    23209299.9354   23209313.6874
        -0.000          -0.000
 -19476749.873 9 -14467516.17047  21817458.011    21817457.5084   21817468.2604
        -0.000          -0.000
 -13991817.909 9 -10882061.94848  21468668.173    21468668.0004   21468678.4574
        -0.000          -0.000
  -5517243.274 8  -4294168.68645  24478979.523    24478978.8864   24478995.5754
        -0.000          -0.000
 99  4 14 19 40 30.0000000  0  7  8  4 24  7  5  9 16               -0.000000104
 -17158659.200 9 -13349840.85147  21837098.933    21837098.4224   21837109.8864
        -0.000          -0.000
 -15477009.218 9 -12045388.37449  20507533.088    20507533.2004   20507542.3524
        -0.000          -0.000
 -25697074.424 9 -20002836.80848  20559175.863    20559175.6394   20559186.3794
        -0.000          -0.000
  14605936.005 9  11378862.45946  23221487.051    23221486.3794   23221500.1754
        -0.000          -0.000
 -19550892.149 9 -14525289.30947  21803349.177    21803348.6564   21803359.4154
        -0.000          -0.000
 -13953602.483 9 -10852283.76848  21475940.379    21475940.2264   21475950.7154
        -0.000          -0.000
  -5501858.554 8  -4282180.59045  24481907.147    24481906.6484   24481923.2054
        -0.000          -0.000
 99  4 14 19 41  0.0000000  0  7  8  4 24  7  5  9 16               -0.000000100
 -17198636.693 9 -13380992.13247  21829491.432    21829490.9184   21829502.4134
        -0.000          -0.000
 -15437633.845 9 -12014706.29549  20515025.953    20515026.0734   20515035.2584
        -0.000          -0.000
 -25741557.089 9 -20037498.58548  20550711.078    20550710.8494   20550721.5864
        -0.000          -0.000
  14669999.405 9  11428781.83746  23233677.931    23233677.2204   23233691.0704
        -0.000          -0.000
 -19624855.931 9 -14582923.36747  21789274.292    21789273.7704   21789284.5324
        -0.000          -0.000
 -13914849.001 9 -10822086.33348  21483314.996    21483314.8314   21483325.3374
        -0.000          -0.000
  -5485919.922 8  -4269760.84945  24484940.390    24484939.8294   24484956.4224
        -0.000          -0.000
 99  4 14 19 41 30.0000000  0  7  8  4 24  7  5  9 16               -0.000000082
 -17238002.424 9 -13411666.71647  21822000.394    21821999.8544   21822011.3464
        -0.000          -0.000
 -15397715.273 9 -11983600.95049  20522622.273    20522622.3644   20522631.5324
        -0.000          -0.000
 -25785533.913 9 -20071766.20348  20542342.518    20542342.2824   20542353.0124
        -0.000          -0.000
  14734081.334 9  11478715.67246  23245872.345    23245871.6684   23245885.5744
        -0.000          -0.000
 -19698642.306 9 -14640419.18947  21775233.120    21775232.6304   21775243.3804
        -0.000          -0.000
 -13875572.517 9 -10791481.36748  21490789.152    21490788.9574   21490799.4644
        -0.000          -0.000
  -5469432.961 8  -4256913.86245  24488077.575    24488077.1874   24488093.7114
        -0.000          -0.000
 99  4 14 19 42  0.0000000  0  8  8 10  4 24  7  5  9 16            -0.000000127
 -17276617.819 9 -13441756.61847  21814652.054    21814651.5314   21814663.0824
        -0.000          -0.000
  -4261412.376 8  -1399714.05945  24590793.685    24590792.7594   24590816.6464
        -0.000          -0.000
 -15357112.115 9 -11951962.15949  20530348.795    20530348.9254   20530358.0834
        -0.000          -0.000
 -25828864.514 9 -20105530.26448  20534096.967    20534096.7214   20534107.4294
        -0.000          -0.000
  14798329.487 9  11528779.01346  23258098.487    23258097.7734   23258111.7524
        -0.000          -0.000
 -19772083.830 9 -14697646.29147  21761257.615    21761257.1154   21761267.8334
        -0.000          -0.000
 -13835642.885 9 -10760367.45648  21498387.554    21498387.3564   21498397.8844
        -0.000          -0.000
  -5452255.628 8  -4243528.91845  24491346.027    24491345.5754   24491362.4324
        -0.000          -0.000
 99  4 14 19 42 30.0000000  0  8  8 10  4 24  7  5  9 16            -0.000000087
 -17314755.578 9 -13471474.34347  21807394.677    21807394.1454   21807405.6414
        -0.000          -0.000
  -4355599.517 8  -1473106.42845  24572870.342    24572869.3874   24572893.3274
        -0.000          -0.000
 -15316107.427 9 -11920010.48949  20538151.788    20538151.8934   20538161.0384
        -0.000          -0.000
 -25871816.461 9 -20138999.27148  20525923.469    20525923.2194   20525933.9184
        -0.000          -0.000
  14862490.648 9  11578774.58946  23270308.090    23270307.4404   23270321.3054
        -0.000          -0.000
 -19845440.610 9 -14754807.36047  21747298.238    21747297.7394   21747308.4224
        -0.000          -0.000
 -13795351.833 9 -10728971.91648  21506054.773    21506054.5784   21506065.1244
        -0.000          -0.000
  -5434676.537 8  -4229830.90845  24494691.292    24494690.7894   24494707.6124
        -0.000          -0.000
 99  4 14 19 43  0.0000000  0  8  8 10  4 24  7  5  9 16            -0.000000069
 -17352338.297 9 -13500759.57447  21800242.975    21800242.4264   21800253.9274
        -0.000          -0.000
  -4449929.851 8  -1546610.38145  24554919.449    24554918.4944   24554942.5974
        -0.000          -0.000
 -15274640.149 9 -11887698.35649  20546042.795    20546042.8704   20546052.0224
        -0.000          -0.000
 -25914291.668 9 -20172096.78948  20517840.630    20517840.4154   20517851.1064
        -0.000          -0.000
  14926668.275 9  11628782.98246  23282520.829    23282520.1364   23282534.0314
        -0.000          -0.000
 -19918621.106 9 -14811831.06447  21733372.399    21733371.9004   21733382.6044
        -0.000          -0.000
 -13754624.118 9 -10697236.11748  21513805.076    21513804.8934   21513815.4664
        -0.000          -0.000
  -5416619.464 8  -4215760.46345  24498127.418    24498126.9494   24498143.6554
        -0.000          -0.000
 99  4 14 19 43 30.0000000  0  8  8 10  4 24  7  5  9 16            -0.000000062
 -17389338.561 9 -13529590.94947  21793202.023    21793201.4714   21793213.0084
        -0.000          -0.000
  -4544379.395 8  -1620207.22445  24536946.151    24536945.2764   24536969.3874
        -0.000          -0.000
 -15232685.730 9 -11855006.63849  20554026.495    20554026.5644   20554035.7194
        -0.000          -0.000
 -25956245.205 9 -20204787.81548  20509857.118    20509856.8824   20509867.5564
        -0.000          -0.000
  14990885.875 9  11678822.53546  23294741.072    23294740.4374   23294754.2934
        -0.000          -0.000
 -19991603.175 9 -14868700.16147  21719484.281    21719483.8044   21719494.4664
        -0.000          -0.000
 -13713441.984 9 -10665146.23548  21521641.845    21521641.6574   21521652.2354
        -0.000          -0.000
  -5398061.425 8  -4201299.63545  24501659.210    24501658.6544   24501675.0714
        -0.000          -0.000
 99  4 14 19 44  0.0000000  0  8  8 10  4 24  7  5  9 16            -0.000000063
 -17425749.993 9 -13557963.48747  21786273.121    21786272.5284   21786284.0094
        -0.000          -0.000
  -4638918.383 8  -1693873.74245  24518955.970    24518954.9714   24518979.0604
        -0.000          -0.000
 -15190227.091 9 -11821922.01449  20562106.125    20562106.2204   20562115.3764
        -0.000          -0.000
 -25997652.133 9 -20237052.90748  20501977.605    20501977.3864   20501988.0294
        -0.000          -0.000
  15055152.568 9  11728900.33746  23306970.704    23306970.0404   23306983.9094
        -0.000          -0.000
 -20064376.801 9 -14925406.82747  21705635.872    21705635.3814   21705646.0284
        -0.000          -0.000
 -13671779.992 9 -10632682.43248  21529569.925    21529569.7494   21529580.3384
        -0.000          -0.000
  -5378999.907 8  -4186446.51845  24505286.691    24505285.9944   24505302.5204
        -0.000          -0.000
 99  4 14 19 44 30.0000000  0  8  8 10  4 24  7  5  9 16            -0.000000069
 -17461579.201 9 -13585882.34447  21779455.034    21779454.4874   21779465.9414
        -0.000          -0.000
  -4733536.478 8  -1767601.89145  24500950.625    24500949.4864   24500973.7614
        -0.000          -0.000
 -15147284.265 9 -11788460.10949  20570277.885    20570277.9634   20570287.1454
        -0.000          -0.000
 -26038516.359 9 -20268895.11848  20494201.346    20494201.1404   20494211.7814
        -0.000          -0.000
  15119455.458 9  11779006.35246  23319207.340    23319206.6294   23319220.5594
        -0.000          -0.000
 -20136959.907 9 -14981965.04547  21691823.671    21691823.2144   21691833.8694
        -0.000          -0.000
 -13629624.676 9 -10599834.22148  21537591.893    21537591.7064   21537602.2854
        -0.000          -0.000
  -5359439.229 8  -4171204.44245  24509008.843    24509008.1564   24509024.9204
        -0.000          -0.000
 99  4 14 19 45  0.0000000  0  8  8 10  4 24  7  5  9 16            -0.000000081
 -17496835.709 9 -13613354.94747  21772745.908    21772745.3724   21772756.8574
        -0.000          -0.000
  -4828230.983 8  -1841389.56745  24482930.574    24482929.5514   24482953.7064
        -0.000          -0.000
 -15103846.867 9 -11754612.82149  20578543.790    20578543.8904   20578553.0624
        -0.000          -0.000
 -26078850.203 9 -20300324.05048  20486526.026    20486525.8234   20486536.4504
        -0.000          -0.000
  15183772.208 9  11829123.16646  23331446.629    23331445.9364   23331459.8194
        -0.000          -0.000
 -20209333.308 9 -15038359.86447  21678051.461    21678051.0384   21678061.6474
        -0.000          -0.000
 -13586965.024 9 -10566593.02848  21545709.806    21545709.6354   21545720.2304
        -0.000          -0.000
  -5339366.542 8  -4155563.37145  24512828.354    24512827.9124   24512844.6354
        -0.000          -0.000
 99  4 14 19 45 30.0000000  0  8  8 10  4 24  7  5  9 16            -0.000000091
 -17531503.356 9 -13640368.68747  21766148.840    21766148.3094   21766159.8134
        -0.000          -0.000
  -4922995.041 8  -1915231.41545  24464897.345    24464896.3054   24464920.5544
        -0.000          -0.000
 -15059879.143 9 -11720352.28649  20586910.579    20586910.6784   20586919.8944
        -0.000          -0.000
 -26118651.176 9 -20331337.74948  20478952.089    20478951.8974   20478962.5284
        -0.000          -0.000
  15248104.386 9  11879251.98946  23343688.740    23343688.0714   23343701.9074
        -0.000          -0.000
 -20281471.742 9 -15094571.58047  21664323.951    21664323.4814   21664334.1294
        -0.000          -0.000
 -13543784.764 9 -10532946.15948  21553926.802    21553926.6474   21553937.2414
        -0.000          -0.000
  -5318758.693 8  -4139505.29445  24516750.190    24516749.6474   24516766.0724
        -0.000          -0.000
 99  4 14 19 46  0.0000000  0  8  8 10  4 24  7  5  9 16            -0.000000104
 -17565594.609 9 -13666933.29947  21759661.500    21759660.9804   21759672.4674
        -0.000          -0.000
  -5017837.081 8  -1989134.01345  24446849.266    24446848.3494   24446872.4174
        -0.000          -0.000
 -15015413.853 9 -11685704.04249  20595372.042    20595372.1704   20595381.3734
        -0.000          -0.000
 -26157930.799 9 -20361945.20348  20471477.455    20471477.2414   20471487.8294
        -0.000          -0.000
  15312433.880 9  11929378.72546  23355930.340    23355929.6164   23355943.5764
        -0.000          -0.000
 -20353380.913 9 -15150604.65947  21650640.074    21650639.6244   21650650.2684
        -0.000          -0.000
 -13500095.730 9 -10498902.84848  21562240.682    21562240.5214   21562251.1354
        -0.000          -0.000
  -5297623.424 8  -4123036.22845  24520772.030    24520771.4434   24520787.9064
        -0.000          -0.000
 99  4 14 19 46 30.0000000  0  8  8 10  4 24  7  5  9 16            -0.000000105
 -17599085.038 9 -13693029.73847  21753288.491    21753287.9724   21753299.4234
        -0.000          -0.000
  -5112756.402 9  -2063096.84345  24428786.538    24428785.6054   24428809.6954
        -0.000          -0.000
 -14970455.985 9 -11650671.96749  20603927.249    20603927.3884   20603936.5734
        -0.000          -0.000
 -26196693.856 9 -20392150.13648  20464101.096    20464100.8584   20464111.4434
        -0.000          -0.000
  15376773.380 9  11979513.24046  23368173.867    23368173.1604   23368187.1714
        -0.000          -0.000
 -20425056.598 9 -15206455.80047  21637000.646    21637000.1674   21637010.8064
        -0.000          -0.000
 -13455907.035 9 -10464470.18548  21570649.562    21570649.3704   21570660.0304
        -0.000          -0.000
  -5275940.091 8  -4106140.12145  24524898.228    24524897.6574   24524914.1884
        -0.000          -0.000
 99  4 14 19 47  0.0000000  0  8  8 10  4 24  7  5  9 16            -0.000000103
 -17631976.786 9 -13718659.67247  21747029.330    21747028.8554   21747040.3224
        -0.000          -0.000
  -5207763.558 8  -2137128.08745  24410707.201    24410706.2304   24410730.2104
        -0.000          -0.000
 -14925012.173 9 -11615261.23949  20612574.970    20612575.0714   20612584.2694
        -0.000          -0.000
 -26234955.240 9 -20421964.15948  20456820.145    20456819.9184   20456830.4984
        -0.000          -0.000
  15441114.143 9  12029648.75946  23380417.599    23380416.8544   23380430.9774
        -0.000          -0.000
 -20496520.304 9 -15262141.76547  21623401.565    21623401.0414   21623411.6644
        -0.000          -0.000
 -13411253.828 9 -10429675.57848  21579146.820    21579146.6574   21579157.3314
        -0.000          -0.000
  -5253719.583 8  -4088825.43645  24529126.300    24529125.9104   24529142.6424
        -0.000          -0.000
 99  4 14 19 47 30.0000000  0  8  8 10  4 24  7  5  9 16            -0.000000090
 -17664256.495 9 -13743812.69047  21740886.726    21740886.2284   21740897.6854
        -0.000          -0.000
  -5302838.592 8  -2211212.21645  24392614.688    24392613.7864   24392637.7914
        -0.000          -0.000
 -14879100.351 9 -11579485.82849  20621311.724    20621311.8134   20621321.0494
        -0.000          -0.000
 -26272704.977 9 -20451379.49448  20449636.551    20449636.3514   20449646.9134
        -0.000          -0.000
  15505465.620 9  12079792.61046  23392663.395    23392662.5964   23392676.7784
        -0.000          -0.000
 -20567795.605 9 -15317680.92747  21609838.277    21609837.7614   21609848.3404
        -0.000          -0.000
 -13366137.568 9 -10394520.14048  21587732.268    21587732.0944   21587742.7564
        -0.000          -0.000
  -5230967.147 8  -4071096.27145  24533456.033    24533455.5524   24533472.2094
        -0.000          -0.000
 99  4 14 19 48  0.0000000  0  8  8 10  4 24  7  5  9 16            -0.000000072
 -17695941.788 9 -13768502.53647  21734857.239    21734856.7124   21734868.2034
        -0.000          -0.000
  -5397976.690 8  -2285345.47045  24374510.163    24374509.4894   24374533.2624
        -0.000          -0.000
 -14832756.918 9 -11543374.09549  20630130.603    20630130.6984   20630139.9274
        -0.000          -0.000
 -26309977.643 9 -20480423.08548  20442543.773    20442543.5524   20442554.1154
        -0.000          -0.000
  15569795.989 9  12129920.02046  23404905.247    23404904.4214   23404918.5654
        -0.000          -0.000
 -20638915.371 9 -15373098.88447  21596304.590    21596304.0704   21596314.6474
        -0.000          -0.000
 -13320587.405 9 -10359026.59348  21596400.238    21596400.0334   21596410.7664
        -0.000          -0.000
  -5207720.844 8  -4052982.25545  24537879.646    24537879.1404   24537895.8034
        -0.000          -0.000
 99  4 14 19 48 30.0000000  0  8  8 10  4 24  7  5  9 16            -0.000000045
 -17727013.339 9 -13792714.13947  21728944.527    21728944.0054   21728955.4964
        -0.000          -0.000
  -5493163.960 8  -2359517.06445  24356396.433    24356395.7194   24356419.5344
        -0.000          -0.000
 -14785954.777 9 -11506904.93149  20639036.783    20639036.8824   20639046.1234
        -0.000          -0.000
 -26346771.668 9 -20509093.71348  20435542.084    20435541.8694   20435552.4154
        -0.000          -0.000
  15634125.987 9  12180047.14246  23417146.908    23417146.1474   23417160.3574
        -0.000          -0.000
 -20709868.641 9 -15428387.11347  21582802.625    21582802.0874   21582812.6684
        -0.000          -0.000
 -13274601.055 9 -10323193.16948  21605151.251    21605151.0554   21605161.8044
        -0.000          -0.000
  -5183979.188 8  -4034482.26845  24542397.748    24542397.0624   24542413.4104
        -0.000          -0.000
 99  4 14 19 49  0.0000000  0  8  8 10  4 24  7  5  9 16            -0.000000020
 -17757487.683 9 -13816460.38147  21723145.497    21723144.9404   21723156.4174
        -0.000          -0.000
  -5588398.319 8  -2433725.33045  24338273.741    24338272.9554   24338296.6714
        -0.000          -0.000
 -14738689.765 9 -11470075.08149  20648031.044    20648031.1354   20648040.3734
        -0.000          -0.000
 -26383073.809 9 -20537381.04748  20428633.972    20428633.7614   20428644.3024
        -0.000          -0.000
  15698448.819 9  12230168.67646  23429387.290    23429386.5334   23429400.7104
        -0.000          -0.000
 -20780647.183 9 -15483539.18148  21569333.873    21569333.3514   21569343.9214
        -0.000          -0.000
 -13228171.517 9 -10287014.40348  21613986.575    21613986.3784   21613997.1164
        -0.000          -0.000
  -5159754.243 8  -4015605.69745  24547007.472    24547006.9414   24547023.2884
        -0.000          -0.000
 99  4 14 19 49 30.0000000  0  8  8 10  4 24  7  5  9 16            -0.000000001
 -17787359.152 9 -13839736.85647  21717461.141    21717460.5654   21717472.0664
        -0.000          -0.000
  -5683686.788 9  -2507975.75145  24320140.836    24320139.8584   24320163.5644
        -0.000          -0.000
 -14690942.627 9 -11432869.54849  20657117.056    20657117.1654   20657126.3944
        -0.000          -0.000
 -26418869.078 9 -20565273.42348  20421822.314    20421822.1074   20421832.6574
        -0.000          -0.000
  15762785.951 9  12280301.37346  23441630.483    23441629.7374   23441643.8794
        -0.000          -0.000
 -20851212.460 9 -15538525.07048  21555905.778    21555905.2174   21555915.7544
        -0.000          -0.000
 -13181277.781 9 -10250473.92448  21622910.210    21622910.0014   21622920.7704
        -0.000          -0.000
  -5135041.919 8  -3996349.36545  24551710.098    24551709.5754   24551725.9764
        -0.000          -0.000
 99  4 14 19 50  0.0000000  0  8  8 10  4 24  7  5  9 16             0.000000003
 -17816634.455 9 -13862548.78947  21711890.270    21711889.7114   21711901.1764
        -0.000          -0.000
  -5779047.299 8  -2582282.33245  24301994.122    24301993.2204   24302016.7414
        -0.000          -0.000
 -14642696.072 9 -11395274.86349  20666298.106    20666298.2094   20666307.4434
        -0.000          -0.000
 -26454157.129 9 -20592770.55948  20415107.204    20415106.9864   20415117.5394
        -0.000          -0.000
  15827136.793 9  12330444.74146  23453876.078    23453875.3804   23453889.5254
        -0.000          -0.000
 -20921539.227 9 -15593325.10548  21542523.014    21542522.4424   21542532.9824
        -0.000          -0.000
 -13133918.273 9 -10213570.50648  21631922.456    21631922.2424   21631933.0454
        -0.000          -0.000
  -5109835.935 8  -3976708.34045  24556506.658    24556506.1344   24556522.6414
        -0.000          -0.000
 99  4 14 19 50 30.0000000  0  8  8 10  4 24  7  5  9 16            -0.000000011
 -17845308.209 9 -13884891.97747  21706433.882    21706433.2994   21706444.7674
        -0.000          -0.000
  -5874488.021 8  -2656651.41245  24283832.147    24283831.3344   24283854.4344
        -0.000          -0.000
 -14593929.903 9 -11357275.28549  20675577.997    20675578.1054   20675587.3974
        -0.000          -0.000
 -26488894.429 9 -20619838.54348  20408496.866    20408496.6524   20408507.1884
        -0.000          -0.000
  15891532.344 9  12380622.93946  23466130.173    23466129.4564   23466143.5754
        -0.000          -0.000
 -20991594.762 9 -15647913.79148  21529191.806    21529191.2614   21529201.7984
        -0.000          -0.000
 -13086074.123 9 -10176289.44148  21641026.899    21641026.7194   21641037.5034
        -0.000          -0.000
  -5084103.337 8  -3956656.99845  24561403.515    24561402.9544   24561419.3694
        -0.000          -0.000
 99  4 14 19 51  0.0000000  0  8  8 10  4 24  7  5  9 16            -0.000000027
 -17873360.501 9 -13906750.91747  21701095.664    21701095.1154   21701106.5764
        -0.000          -0.000
  -5969989.577 8  -2731067.85945  24265658.420    24265657.6964   24265680.8144
        -0.000          -0.000
 -14544614.860 9 -11318848.01148  20684962.391    20684962.5084   20684971.7994
        -0.000          -0.000
 -26523056.651 9 -20646458.41348  20401995.987    20401995.7724   20402006.3434
        -0.000          -0.000
  15955997.966 9  12430855.75346  23478397.666    23478396.9444   23478411.1724
        -0.000          -0.000
 -21061334.784 9 -15702256.61548  21515920.645    21515920.0994   21515930.6584
        -0.000          -0.000
 -13037707.667 9 -10138601.38948  21650230.846    21650230.6474   21650241.4624
        -0.000          -0.000
  -5057809.773 8  -3936168.51645  24566406.911    24566406.4514   24566422.8524
        -0.000          -0.000
